GFSGL_925_thetae_000.txt.gz
Theta_e
294 294 294 294 293 294 294 295 295 294 294 293 293 291 290 289 288 287 287 287 286 286 285 284 283 283 282 282 281 281 280 279 278 278 279 279 279 279 279 279 280 281 281
296 295 295 294 294 293 293 293 293 293 293 293 292 291 289 288 288 287 287 287 286 285 284 283 282 282 282 281 280 279 278 277 277 276 276 276 276 277 278 277 277 276 277
295 296 296 295 294 294 294 293 292 292 292 292 291 291 290 288 286 286 286 286 286 285 284 283 282 282 281 280 279 278 277 276 275 274 274 274 275 275 276 276 276 277 277
293 293 293 294 294 293 293 292 292 291 290 289 290 290 289 288 286 286 285 285 285 284 284 283 283 282 281 280 278 277 276 275 274 273 273 274 274 276 277 277 277 276 276
291 292 292 292 293 293 292 293 292 290 290 288 288 288 289 287 286 284 284 284 283 282 282 282 282 282 281 280 279 277 276 275 274 273 273 274 276 277 277 276 276 276 277
290 290 290 291 292 292 293 292 291 290 288 288 287 287 286 285 285 285 285 283 282 281 280 280 280 280 279 278 277 277 277 276 275 274 275 276 277 277 276 276 276 277 278
289 289 289 289 289 290 291 291 290 288 287 286 285 285 285 285 284 284 283 282 281 280 280 279 278 278 277 277 277 276 276 276 276 277 277 277 276 276 276 276 277 277 277
289 288 288 288 288 289 289 289 289 287 286 285 284 284 284 284 284 284 283 281 280 280 280 280 279 277 277 277 277 277 278 278 278 277 276 276 277 277 278 278 277 275 273
289 289 287 287 287 287 287 287 287 285 284 283 283 283 282 282 283 284 283 278 279 278 278 278 277 277 278 276 275 276 276 275 275 276 277 278 278 277 277 275 273 272 271
286 286 286 286 287 286 285 285 284 284 283 282 282 282 281 281 282 284 283 278 277 276 276 276 277 278 277 277 275 275 274 275 275 275 276 275 275 274 273 272 271 271 270
281 280 284 286 286 287 284 283 282 282 281 281 280 279 280 280 281 284 284 278 277 276 275 275 275 276 277 278 276 275 275 276 276 276 275 274 273 272 272 272 272 270 270
277 278 280 281 284 284 283 281 280 280 279 278 278 277 277 278 279 284 285 278 277 277 276 275 275 277 277 278 278 276 277 277 275 275 274 273 272 272 271 271 270 270 270
274 275 276 278 281 282 281 280 278 278 277 276 276 276 275 276 277 281 285 281 278 276 276 275 276 278 278 279 279 278 278 275 274 273 271 271 271 270 269 269 269 268 268
271 272 272 274 277 281 279 279 278 277 277 277 276 276 275 275 276 279 283 283 279 275 276 276 276 278 279 278 278 276 273 273 272 271 270 269 269 269 268 268 267 267 267
268 269 270 271 274 278 279 279 278 278 279 278 277 277 276 275 275 278 283 282 279 275 275 276 277 276 274 273 273 272 270 269 269 269 268 268 268 267 267 267 266 266 266
266 266 268 270 272 274 279 278 278 279 278 279 279 278 277 278 277 278 282 282 279 278 275 276 274 273 272 270 268 268 268 268 268 268 267 267 267 266 265 265 265 265 265
264 264 265 267 269 272 277 277 277 277 279 280 280 280 279 277 278 279 281 283 279 278 274 273 272 271 270 269 268 268 267 267 267 267 267 266 266 265 264 264 264 265 265
263 263 264 266 268 271 274 277 276 276 276 279 280 280 281 279 279 279 281 282 281 278 273 272 271 270 269 268 268 267 267 266 266 266 266 266 266 264 264 263 263 264 265
262 263 264 266 268 270 272 276 275 275 276 277 278 279 281 280 279 280 281 281 280 273 271 271 270 269 269 268 268 267 267 266 266 266 266 266 266 264 263 263 263 264 264
263 263 264 266 267 268 271 275 274 274 274 276 277 278 280 280 279 280 280 281 275 272 270 269 269 269 268 267 267 266 266 266 266 266 266 266 265 264 263 263 263 263 264
263 263 264 265 267 269 272 273 273 273 274 275 276 277 279 278 278 279 280 275 272 269 269 269 270 269 267 267 266 266 265 266 265 265 265 265 265 264 265 264 263 263 265
264 264 264 265 267 270 272 272 272 273 273 274 276 277 279 277 277 273 271 270 270 270 269 269 268 267 267 266 266 265 265 265 265 265 265 265 265 265 265 264 263 264 266
266 267 268 269 270 271 271 271 272 272 273 274 275 276 277 271 270 268 267 268 269 269 269 269 267 266 265 265 265 265 265 265 265 265 265 265 266 266 265 264 264 265 265
266 267 268 269 270 270 271 271 272 272 273 273 268 267 266 266 265 265 266 267 268 267 266 266 266 266 265 265 265 265 265 265 265 265 265 266 266 267 266 264 264 265 264
264 265 266 267 267 268 267 267 268 267 266 265 264 264 264 264 264 265 266 266 266 265 265 265 265 264 264 264 264 264 264 265 265 265 266 266 266 267 266 266 265 265 264
263 263 264 264 265 266 266 265 264 264 263 263 263 264 264 264 264 265 266 265 264 264 264 263 263 263 263 263 263 264 264 265 266 266 266 267 267 267 267 267 265 264 263

GFSGL_925_thetae_003.txt.gz
Theta_e
292 292 292 292 293 293 293 293 294 294 294 294 294 293 291 292 290 289 288 288 288 288 288 287 287 287 286 285 285 284 284 283 284 280 280 280 279 279 279 279 279 280 281
291 292 292 292 291 292 292 293 293 293 293 293 293 293 291 290 291 290 287 287 287 287 287 286 285 285 284 284 284 283 283 282 282 281 278 278 278 279 279 279 279 279 280
290 290 291 292 292 291 291 291 291 292 292 292 292 291 290 290 288 288 288 286 286 286 286 286 285 284 283 283 283 282 281 281 280 279 278 278 278 279 279 279 279 279 281
289 289 290 290 290 292 291 291 291 291 290 290 290 291 291 290 288 287 286 286 286 286 285 286 285 285 284 283 282 281 280 279 278 277 276 276 276 278 277 277 278 278 279
289 289 289 289 288 288 292 292 291 291 290 290 289 289 289 289 289 286 285 285 284 284 284 284 284 285 285 285 283 280 279 277 276 276 276 276 276 277 278 278 277 278 278
288 289 288 288 287 286 288 291 291 290 290 289 288 287 287 287 287 287 287 284 284 283 282 282 282 282 283 283 283 283 282 278 275 275 276 277 277 278 277 277 277 279 280
286 287 288 287 285 285 286 288 291 289 289 289 288 287 286 286 286 286 286 285 284 283 282 281 280 280 281 281 280 280 279 278 279 279 277 278 278 278 277 277 278 278 278
284 284 285 284 282 284 285 285 287 288 286 287 287 286 286 286 286 286 286 284 283 283 282 281 280 279 280 280 280 279 277 277 277 277 278 278 278 277 277 278 277 276 274
282 282 282 280 280 283 284 284 284 286 285 284 285 285 285 285 285 286 286 285 282 282 281 280 279 279 280 279 279 278 277 276 277 278 278 278 277 278 278 277 275 273 273
280 280 278 278 278 282 282 282 283 283 284 284 283 284 284 284 284 285 286 286 282 281 280 279 279 278 279 280 279 278 278 278 278 278 277 278 279 277 276 274 273 272 272
277 276 275 275 276 278 279 281 281 282 282 282 282 282 282 283 282 284 286 286 281 280 279 278 277 278 279 280 278 278 278 277 277 276 277 277 276 275 273 272 272 272 271
274 272 272 272 272 274 275 277 280 280 281 280 280 280 280 280 280 282 284 287 282 280 279 278 277 279 279 281 279 276 277 276 276 275 275 274 273 272 271 271 271 271 271
270 269 269 269 269 271 272 274 278 280 279 280 279 279 279 278 279 281 282 286 282 279 278 278 277 279 280 281 280 277 277 276 275 274 272 272 271 271 270 270 270 269 269
266 266 266 266 267 268 269 272 275 279 280 279 280 279 279 277 277 278 281 284 282 281 278 278 278 280 280 280 281 279 277 277 275 273 272 271 270 269 269 269 269 268 268
264 264 264 264 265 266 268 270 273 277 279 280 280 279 279 278 277 278 279 282 283 280 277 277 278 280 279 279 279 275 274 274 273 272 270 269 268 268 268 268 267 267 266
262 262 262 263 263 264 266 267 270 273 277 281 281 281 279 280 280 279 280 282 282 279 277 277 278 279 276 276 275 273 273 274 272 271 269 268 268 268 267 267 267 266 266
261 261 261 262 262 263 264 267 269 271 277 280 281 282 282 281 280 280 281 282 283 280 277 277 278 278 276 275 273 272 270 271 271 269 268 268 267 267 266 266 266 266 266
261 261 261 261 262 262 264 266 268 271 274 277 278 280 283 283 282 280 281 283 282 280 278 278 277 276 274 273 272 271 270 269 268 267 267 267 266 266 265 265 265 265 265
261 261 261 261 262 262 263 265 267 269 271 276 277 278 279 283 283 280 281 283 282 280 276 276 274 274 272 272 271 270 268 267 267 266 266 266 266 266 266 265 265 265 264
261 261 262 263 263 263 264 265 267 269 272 275 276 276 278 281 283 281 281 281 283 280 274 273 273 272 271 270 268 268 267 266 266 266 266 266 265 266 266 265 265 264 264
262 262 262 263 263 263 264 265 267 270 273 274 274 275 277 279 281 280 280 281 279 273 273 271 271 269 268 268 268 267 267 266 266 266 266 265 266 266 266 265 265 265 264
263 263 264 264 265 264 264 266 268 271 273 272 273 274 277 279 280 279 278 275 272 270 271 272 269 268 268 268 269 268 266 266 266 266 266 266 266 266 266 265 265 264 263
262 263 264 266 267 267 266 267 270 271 271 272 273 274 275 272 271 270 269 269 269 270 270 271 270 267 268 269 269 268 267 266 266 266 266 266 266 266 266 266 265 264 264
262 263 264 265 266 267 267 268 269 269 268 267 267 267 267 266 266 266 266 267 267 268 269 270 269 268 267 267 266 266 266 266 265 265 265 266 266 266 266 266 265 265 264
261 262 263 263 264 265 265 264 264 264 264 264 264 264 264 264 263 264 264 265 266 267 268 268 268 267 267 266 266 265 265 265 265 265 265 266 266 266 266 266 266 265 264
260 261 261 262 262 262 262 263 262 262 262 262 262 262 262 262 262 262 263 265 265 266 266 266 265 265 265 265 264 264 264 264 265 265 265 266 266 266 266 266 266 265 265

GFSGL_925_thetae_006.txt.gz
Theta_e
290 291 291 292 292 292 292 292 292 291 291 291 292 291 291 290 290 290 290 290 289 289 288 289 289 289 289 289 288 288 288 289 293 285 286 285 284 283 281 281 282 282 281
289 289 289 289 289 289 290 292 292 292 292 290 290 290 290 290 289 289 289 289 288 288 288 287 288 287 288 288 287 287 287 287 289 286 283 282 282 281 281 280 282 281 280
288 289 289 288 287 287 286 288 290 291 291 291 290 289 289 289 289 288 289 289 288 288 288 288 287 286 286 286 286 286 286 285 285 287 283 281 280 280 279 279 280 280 280
287 288 288 288 288 286 285 285 286 288 290 290 290 289 289 288 288 288 287 288 288 287 288 287 287 287 286 286 285 285 285 284 283 283 283 280 280 279 279 281 281 281 281
285 286 287 287 287 285 284 284 284 285 286 289 289 289 288 288 287 287 287 287 287 287 287 287 286 286 286 287 286 285 284 284 283 282 282 281 280 279 280 281 281 281 282
284 284 285 286 285 283 282 283 284 284 284 285 288 288 288 288 287 287 287 286 286 286 286 286 285 285 285 285 285 285 286 284 283 282 281 281 281 281 281 280 280 281 284
283 282 282 283 282 282 281 282 284 284 284 284 285 287 287 287 287 287 287 287 286 286 286 286 285 284 283 284 284 284 283 283 285 283 282 281 281 281 281 280 280 281 282
283 282 282 282 281 280 279 280 283 283 283 284 284 285 286 287 287 287 287 287 287 286 286 286 285 284 282 283 283 283 282 281 282 281 282 281 281 281 280 280 280 281 279
282 280 280 280 279 277 277 278 279 280 282 283 283 283 285 286 286 286 287 287 287 286 286 285 285 284 282 282 283 282 281 280 280 279 279 280 280 280 279 279 279 278 278
279 279 278 278 276 275 275 275 276 278 280 281 282 282 283 284 285 286 286 287 287 287 286 284 284 283 282 282 282 282 281 280 279 278 278 280 279 279 279 279 278 277 277
277 276 275 275 274 273 272 273 274 275 276 278 280 281 282 283 283 285 285 286 287 287 287 284 283 282 283 282 283 282 282 280 279 278 279 279 278 279 279 278 276 275 276
273 272 271 271 270 270 270 270 271 272 273 275 278 281 282 282 282 283 284 285 286 287 287 285 282 281 282 282 283 282 282 280 279 280 279 279 278 277 276 274 274 274 274
269 268 267 267 267 267 267 268 269 270 272 274 277 280 282 282 283 282 283 284 285 286 286 284 282 281 282 282 283 282 282 280 280 279 279 278 277 276 274 273 272 272 272
265 265 264 264 264 264 265 265 267 268 270 272 275 279 281 282 282 281 281 282 284 284 286 283 281 280 282 281 282 283 281 278 279 278 278 277 275 273 272 272 271 270 270
263 263 263 263 263 263 263 264 265 266 268 270 272 276 280 281 282 281 280 280 282 284 283 280 280 280 281 282 282 281 279 276 277 277 276 273 272 272 272 271 271 270 270
263 263 263 263 263 263 263 263 264 265 267 269 270 273 275 277 281 281 282 282 282 283 280 280 280 280 281 282 282 279 277 276 276 274 273 272 272 271 270 270 270 269 270
261 261 262 262 262 263 263 263 264 264 265 267 269 272 274 278 280 282 282 283 282 283 281 280 281 280 281 282 280 276 276 276 274 273 272 272 271 270 270 269 269 269 269
260 261 261 262 262 262 262 263 263 264 264 266 268 272 274 280 283 284 284 283 282 283 281 280 281 281 281 279 277 276 275 273 273 272 271 270 270 269 269 269 268 268 268
261 262 262 262 262 263 263 263 263 264 264 265 267 269 273 278 279 280 284 283 282 282 282 280 280 280 279 279 276 274 273 272 271 270 269 268 268 268 268 268 268 267 267
262 262 263 263 263 263 263 264 264 265 266 267 268 271 275 276 278 280 284 282 282 283 282 279 279 277 276 275 274 272 271 270 269 268 267 267 267 267 267 266 267 267 266
262 263 263 264 264 264 264 265 265 265 266 267 269 273 275 276 278 279 283 282 282 283 278 275 274 274 274 272 271 270 269 268 267 266 266 266 267 266 266 266 266 265 266
263 263 263 264 265 266 267 267 266 266 267 270 272 273 274 275 277 279 281 279 276 275 274 274 273 273 271 270 269 268 267 266 266 267 267 267 267 266 265 265 265 265 265
262 263 264 265 265 266 268 269 269 269 271 271 271 272 272 272 271 271 271 271 272 271 272 272 270 269 268 268 268 268 267 266 267 268 267 266 265 265 265 265 265 264 265
261 262 263 264 264 264 265 266 266 266 267 267 266 266 266 266 265 265 266 267 268 268 268 268 268 268 267 267 267 267 269 269 269 268 268 267 265 265 265 265 265 265 264
260 261 262 263 263 263 264 264 264 265 265 264 264 264 264 263 263 264 264 264 265 265 266 267 267 267 268 268 269 269 268 268 268 267 266 266 266 266 265 265 265 264 265
259 260 260 261 262 262 262 262 263 263 263 263 263 262 262 262 262 262 262 263 263 263 264 266 266 267 268 267 267 267 267 267 266 265 265 265 266 266 265 266 266 265 265

GFSGL_925_thetae_009.txt.gz
Theta_e
289 290 289 289 288 288 287 288 287 290 291 292 291 291 292 292 293 293 293 293 293 293 292 292 293 293 292 292 293 293 293 295 298 289 290 289 288 286 285 285 284 285 284
288 289 289 289 288 287 285 285 285 286 286 289 290 290 291 291 291 292 292 291 292 292 291 291 291 291 291 291 291 291 291 292 295 288 288 288 287 286 285 284 283 283 283
287 287 288 288 288 287 285 284 284 285 285 285 286 289 290 290 290 290 290 290 291 291 291 291 290 290 290 290 290 290 290 290 291 290 286 286 285 285 284 282 281 281 282
287 286 286 287 287 287 285 284 284 284 284 285 285 285 286 290 289 289 289 289 289 290 290 290 290 289 289 289 289 289 289 289 288 289 285 284 283 282 282 281 280 280 282
286 286 285 285 284 284 284 283 282 283 284 284 284 284 284 285 288 290 288 288 288 288 289 289 289 289 289 289 289 288 288 288 287 287 286 283 282 281 281 281 282 282 282
284 284 283 283 283 283 283 282 281 282 283 284 284 284 284 285 285 287 289 288 287 287 288 288 288 288 288 288 288 289 288 288 287 287 286 285 283 282 281 281 282 283 283
283 283 284 283 282 282 282 281 280 280 281 282 283 283 284 284 285 286 287 289 288 287 287 287 287 287 287 287 287 288 288 288 289 288 287 285 284 282 282 282 282 283 285
282 282 283 282 281 281 281 280 279 278 279 280 280 281 282 283 284 285 286 287 288 288 287 287 287 287 287 286 285 287 287 287 288 288 287 287 285 283 283 283 282 282 282
280 280 280 280 280 279 279 278 277 277 277 277 277 279 280 282 283 284 285 287 287 287 288 288 287 287 287 286 285 285 286 286 285 286 286 285 284 284 283 282 282 282 281
279 278 278 277 277 276 276 276 275 274 274 275 275 276 277 278 280 282 284 285 287 287 287 288 287 287 286 286 285 285 285 286 284 284 283 283 283 283 282 282 282 281 280
275 274 273 273 273 272 272 272 272 271 271 271 272 273 274 275 277 279 282 284 286 286 287 288 288 287 287 286 286 284 285 285 283 283 281 281 281 282 281 281 281 281 280
271 270 269 268 267 267 267 267 267 268 268 269 270 271 272 274 276 279 281 283 284 286 286 287 288 288 286 286 286 284 284 285 283 282 280 281 281 281 280 279 279 279 279
268 266 266 265 265 265 265 265 265 265 266 267 268 269 271 273 275 277 280 283 284 285 286 286 287 288 287 285 285 285 285 284 281 281 280 281 281 280 280 278 277 276 276
265 264 264 264 264 264 264 264 264 264 265 265 266 268 269 271 273 276 280 282 283 283 284 285 286 287 286 284 284 285 284 284 281 281 281 281 280 278 276 276 275 274 273
264 263 263 263 263 264 264 264 264 264 264 265 265 266 267 268 269 271 276 278 282 281 282 283 285 286 284 283 283 284 284 283 281 281 281 280 277 276 275 274 273 272 272
262 262 262 262 262 262 263 263 264 265 266 266 267 268 268 269 270 272 274 275 277 281 283 283 285 284 282 282 283 282 283 283 281 281 280 277 276 275 274 273 273 272 272
261 261 261 261 262 262 263 263 264 264 264 265 266 267 268 269 270 272 273 275 278 279 283 283 283 283 282 282 283 282 283 280 280 279 276 275 274 274 273 272 272 272 272
261 261 261 262 262 263 263 264 264 264 264 264 265 265 267 268 270 272 274 277 278 280 284 283 283 282 281 281 282 282 280 278 277 275 275 275 274 273 273 272 271 271 271
260 261 262 262 263 263 264 264 264 265 265 265 265 266 267 268 271 274 278 280 282 282 283 283 283 282 281 282 281 279 277 276 276 275 274 274 273 272 271 271 270 270 270
261 261 262 263 264 264 265 265 266 266 266 266 266 267 267 270 273 276 277 279 280 283 283 282 281 281 281 279 277 277 276 275 274 274 273 272 271 271 270 270 269 268 268
261 263 263 263 264 265 266 267 268 269 268 267 267 268 271 274 274 275 276 278 283 283 283 281 280 279 278 278 276 275 274 273 272 271 270 270 270 269 269 269 268 268 268
262 262 263 263 264 265 266 266 267 268 269 269 270 270 271 271 272 273 275 277 279 280 279 278 277 277 276 275 274 273 272 271 269 269 268 268 268 268 268 267 267 267 267
261 261 262 263 264 264 265 265 266 266 266 266 267 267 267 267 267 268 269 270 272 274 275 275 274 273 272 272 272 271 269 268 268 268 267 267 267 267 267 267 267 267 266
261 261 261 262 262 263 264 264 264 264 265 264 264 265 265 265 265 265 266 266 267 268 269 269 269 269 270 270 270 270 269 268 268 268 268 267 267 267 266 266 266 266 266
261 261 261 261 261 262 262 263 263 263 263 263 263 263 263 263 263 263 264 264 265 265 266 267 267 267 268 268 268 268 267 268 268 268 268 268 267 267 266 266 266 266 266
260 260 260 260 260 261 261 261 262 262 263 262 262 262 262 262 262 262 262 263 263 263 264 264 264 265 266 266 266 266 267 268 269 269 268 268 267 266 266 266 266 266 265

GFSGL_925_thetae_012.txt.gz
Theta_e
287 288 288 287 287 286 285 284 284 284 285 285 285 285 289 291 291 291 292 293 294 294 294 294 294 294 295 296 296 296 296 296 292 290 291 290 290 290 290 288 287 285 285
287 286 287 287 286 286 285 284 284 284 284 284 285 285 285 285 289 290 290 291 292 293 293 293 293 293 293 294 294 294 294 295 296 288 290 290 290 290 289 288 287 285 285
287 287 286 285 285 285 285 284 284 284 284 284 284 284 284 284 285 286 289 289 289 290 291 291 291 292 291 292 292 292 292 293 294 292 288 289 289 289 287 286 286 285 284
286 285 284 284 284 284 283 283 283 283 282 283 283 283 284 284 284 285 285 288 290 289 289 289 290 290 290 290 291 291 290 290 290 291 289 288 288 287 286 284 282 283 282
286 285 284 284 283 283 283 282 282 282 282 281 281 282 282 283 284 285 285 286 286 289 291 289 288 289 289 290 289 289 289 289 290 289 288 286 285 284 284 283 282 282 282
285 284 283 282 281 282 282 281 281 281 281 280 280 280 281 282 282 284 285 286 286 286 287 288 290 288 288 289 289 289 289 289 289 289 289 286 285 285 284 283 282 282 281
284 282 282 282 281 281 281 281 280 280 279 279 278 278 279 279 280 282 283 285 286 286 287 287 287 288 287 287 288 289 289 289 289 289 289 288 286 284 283 282 282 283 284
281 281 280 280 279 279 279 278 278 278 278 277 277 277 277 277 278 279 281 283 284 284 285 286 286 287 287 287 287 287 288 289 289 289 289 289 288 284 285 285 284 284 284
279 279 278 278 277 276 275 275 275 275 274 274 274 275 275 275 275 277 278 279 280 282 284 285 286 286 286 287 287 286 286 287 288 289 289 289 288 287 285 284 283 282 280
276 275 274 274 273 272 271 271 271 270 270 271 271 271 272 272 272 273 275 276 278 279 281 283 285 286 286 287 287 287 286 286 286 287 288 288 288 286 284 285 284 283 283
273 271 270 269 268 268 267 267 267 267 267 266 267 267 267 268 269 270 272 274 275 277 279 282 283 285 286 287 288 287 287 286 286 286 286 287 286 285 284 284 285 285 283
269 268 267 266 265 265 265 265 264 264 264 264 265 265 265 266 267 269 270 272 274 277 279 281 282 284 285 287 288 288 288 287 286 286 285 285 285 284 283 283 283 283 283
267 266 265 264 264 264 264 264 264 264 264 264 264 265 265 265 265 266 268 270 272 275 278 280 282 283 285 286 288 288 288 288 286 285 284 284 283 283 283 282 282 282 282
265 264 264 264 263 263 263 263 263 263 264 264 264 264 264 264 265 265 266 267 268 269 274 277 282 284 285 285 286 287 288 287 285 285 284 284 282 282 281 280 279 279 278
264 264 263 263 262 262 262 262 263 263 264 265 266 267 268 268 268 269 269 270 270 271 273 275 277 281 282 284 286 286 287 286 285 285 283 282 281 281 281 279 279 277 277
263 263 263 262 262 262 262 262 263 264 266 267 268 269 269 269 269 270 270 271 271 272 273 274 276 279 282 283 285 284 284 285 285 284 282 281 281 280 279 277 277 276 276
262 262 262 261 261 261 262 262 263 264 265 266 267 268 268 269 269 270 270 271 272 272 274 275 276 278 281 283 283 283 283 284 284 282 282 281 280 278 276 276 275 275 275
262 261 261 261 261 262 262 263 263 264 264 265 266 267 268 270 270 271 272 273 273 273 274 275 276 277 281 282 282 282 283 283 283 281 281 279 278 277 275 275 274 275 275
261 261 261 261 262 263 263 264 264 265 265 266 267 267 267 268 269 271 273 275 275 275 274 276 276 278 281 282 281 282 282 281 280 279 278 277 277 276 275 275 274 274 273
261 260 261 262 262 262 263 264 265 266 266 267 268 268 268 269 270 272 273 274 275 276 278 279 279 282 282 281 281 282 280 279 278 277 276 276 275 275 274 273 272 272 272
261 261 261 261 261 262 263 264 264 265 266 266 266 266 269 268 267 267 269 270 270 277 278 282 282 282 281 281 280 279 278 277 276 276 275 274 273 273 272 271 271 271 270
261 260 261 261 261 262 262 263 264 264 264 264 264 264 266 265 265 266 266 267 267 269 275 277 279 279 279 278 277 276 275 274 274 273 272 272 271 271 270 270 269 269 269
261 260 260 260 261 261 261 262 262 263 263 263 263 263 263 264 264 264 264 265 266 268 270 272 272 273 274 275 275 274 273 272 271 271 270 270 270 269 269 269 268 268 268
261 261 260 260 260 260 260 261 261 262 262 262 262 263 263 263 263 263 263 263 264 265 267 268 269 270 271 272 272 272 272 271 270 270 270 269 269 268 268 268 268 267 267
260 260 260 260 260 260 260 260 260 261 261 262 262 262 262 262 262 262 262 262 262 263 264 265 266 267 268 269 269 269 269 269 269 269 269 268 268 267 267 267 267 267 267
260 260 259 259 259 259 259 259 260 260 260 260 261 261 261 261 261 262 262 262 262 262 263 263 264 265 265 266 267 267 267 267 267 268 267 267 267 266 267 267 267 266 266

GFSGL_925_thetae_015.txt.gz
Theta_e
286 286 285 285 285 285 284 284 284 284 284 284 284 284 284 284 285 285 285 288 291 291 292 293 293 294 294 294 294 295 295 294 294 295 292 293 291 290 290 290 291 291 290
286 286 285 285 284 284 284 284 284 284 284 283 283 283 283 284 284 284 284 285 285 289 290 290 291 291 291 292 292 292 293 293 293 294 293 291 290 291 291 290 291 290 289
286 285 285 284 284 283 283 282 282 282 282 283 282 282 282 283 282 283 283 284 284 285 286 287 290 290 289 290 290 291 291 292 292 292 291 291 289 290 289 289 290 289 288
286 286 285 284 283 282 282 282 281 281 281 281 281 281 281 281 281 281 282 283 284 284 285 285 285 288 289 289 289 289 290 291 291 290 289 289 289 288 288 286 284 287 287
287 286 285 285 284 282 281 281 280 280 280 280 280 279 279 279 279 280 282 282 283 284 285 285 285 285 285 288 289 289 289 289 290 290 289 287 287 286 286 284 285 284 283
286 285 284 283 281 280 280 279 279 279 279 278 278 278 278 278 278 279 280 280 281 282 283 284 285 285 285 285 286 289 289 289 289 290 290 289 287 288 286 285 285 283 282
284 284 282 280 279 279 278 278 277 276 276 276 276 276 277 277 277 278 278 279 279 279 280 282 283 284 285 285 285 287 288 290 290 289 289 290 289 287 286 286 285 285 286
281 279 278 278 278 277 275 274 273 273 273 273 273 273 273 273 274 275 276 276 277 277 278 279 281 282 283 285 285 286 286 287 289 289 290 289 289 289 287 287 286 285 286
277 276 276 275 274 272 271 271 270 270 270 269 269 270 270 270 270 271 272 272 273 273 274 275 277 278 280 283 285 286 286 286 287 288 289 289 289 289 288 285 285 284 284
274 273 272 271 270 269 268 267 267 267 267 267 267 266 266 266 266 267 269 270 270 271 271 272 274 276 278 280 282 285 286 286 286 286 287 288 289 289 289 285 285 284 286
271 269 269 268 267 266 266 265 265 265 264 264 264 264 264 264 265 266 268 269 270 271 271 272 273 275 277 279 281 284 285 286 286 286 286 287 287 288 289 287 285 285 286
268 267 266 266 265 265 264 264 263 263 263 263 263 264 264 264 265 266 267 269 269 270 270 270 271 274 276 278 280 282 284 286 287 286 286 286 286 287 288 288 285 285 285
266 266 265 265 264 264 263 263 262 263 263 263 263 263 264 264 265 266 267 268 268 268 269 269 270 271 273 275 279 282 284 286 286 287 286 286 286 286 287 286 286 285 284
265 265 265 264 263 263 263 262 262 262 262 262 263 264 265 266 268 268 268 268 267 268 268 269 269 271 272 274 276 281 283 285 287 287 287 286 285 285 285 284 283 282 282
264 264 264 263 263 262 262 262 262 263 264 266 267 268 268 269 269 270 272 272 272 272 272 270 270 272 273 274 275 281 283 284 285 287 287 286 285 284 284 283 282 281 282
263 263 263 262 262 262 262 262 262 264 266 267 268 269 269 270 270 271 272 273 274 274 274 272 272 272 272 273 275 278 281 282 285 286 286 286 284 283 283 281 282 280 281
263 262 262 261 261 261 261 261 262 263 264 266 267 268 269 270 271 272 272 273 274 275 275 273 272 272 273 274 275 277 282 282 284 286 285 284 283 282 282 281 280 279 279
262 262 261 261 261 261 261 262 262 263 263 264 265 267 268 269 270 271 272 273 272 273 274 273 273 272 273 274 275 276 282 283 283 285 285 283 282 282 281 279 279 278 278
262 262 261 261 261 261 261 262 262 263 264 264 265 265 265 266 268 268 268 267 269 270 271 273 273 273 273 275 276 278 281 282 282 283 282 282 281 280 279 278 278 277 277
262 262 261 261 260 260 261 261 262 263 263 264 264 263 264 267 264 264 265 266 266 267 268 270 274 277 275 275 276 279 280 281 281 282 281 280 279 279 278 277 276 276 276
262 261 261 260 260 260 260 261 261 262 262 263 262 263 266 265 263 263 264 264 265 265 266 268 271 276 278 280 279 280 280 280 280 279 278 278 278 277 276 276 275 275 274
261 261 261 260 260 260 260 260 260 261 261 262 262 262 264 263 263 262 263 263 263 264 265 266 268 271 273 275 277 279 278 278 277 277 276 275 275 274 274 273 273 272 272
261 261 260 260 260 260 260 260 260 260 261 261 262 262 262 262 262 262 262 262 262 262 264 265 266 268 270 272 274 274 274 274 274 274 273 273 272 272 272 271 271 271 271
261 260 260 260 260 259 259 259 260 260 260 260 261 261 261 261 261 262 262 262 262 262 263 264 265 266 268 269 270 271 272 272 273 272 272 271 270 270 270 270 270 270 269
260 260 259 259 259 259 259 259 259 259 259 259 260 260 260 260 260 261 261 262 262 263 263 264 264 265 266 267 268 269 269 270 271 271 271 270 269 269 269 268 268 268 268
260 260 259 259 259 259 258 258 258 259 258 259 259 259 259 259 260 260 261 261 262 263 263 264 265 266 266 267 267 267 268 268 268 269 269 269 268 268 268 267 267 267 267

GFSGL_925_thetae_018.txt.gz
Theta_e
286 285 285 285 285 285 284 284 283 283 283 283 283 282 282 282 282 282 283 283 284 284 285 285 285 288 290 291 291 291 292 292 292 293 294 295 294 293 293 293 291 291 291
286 285 285 285 285 284 283 283 282 282 282 282 282 282 282 282 282 281 281 281 282 282 283 283 284 285 285 286 290 290 290 290 291 292 292 293 293 293 292 292 292 291 290
286 286 285 285 284 283 282 282 281 281 281 281 281 281 281 281 280 280 280 280 280 281 282 283 283 284 284 285 285 288 289 289 290 290 290 292 293 291 290 290 290 290 289
287 286 286 285 284 284 283 282 281 281 280 280 279 278 278 278 278 278 279 279 280 280 281 282 283 283 284 284 285 286 287 288 289 289 289 290 290 290 289 288 287 287 288
288 287 286 285 284 283 282 280 280 280 279 278 277 277 277 277 277 278 279 279 279 279 279 280 280 282 283 284 285 285 286 288 288 289 289 290 287 287 288 287 287 286 286
287 286 284 284 283 281 279 279 278 277 276 275 275 275 275 275 276 277 277 277 277 278 278 278 279 279 279 281 283 285 286 287 287 289 289 289 290 287 288 288 286 286 286
285 284 283 281 279 278 277 276 275 275 274 273 272 272 272 272 273 273 274 275 275 275 275 276 277 277 278 279 281 283 284 285 287 288 288 289 289 290 288 287 286 287 288
282 280 279 277 276 275 274 274 273 272 270 270 269 269 269 269 270 270 271 271 271 271 272 272 273 274 274 275 277 278 281 283 284 285 288 289 289 289 289 288 287 286 287
280 277 275 274 273 272 271 270 269 268 267 267 267 267 267 266 267 268 269 269 269 269 269 270 270 271 272 273 275 276 277 279 282 284 285 286 288 290 289 288 287 286 286
275 274 273 272 271 269 268 268 267 266 266 265 265 265 264 264 265 266 268 268 269 269 269 270 270 271 272 273 275 276 276 277 279 282 284 285 286 288 289 290 287 287 286
271 271 271 270 269 268 268 266 265 265 264 264 263 263 263 264 264 266 268 269 269 269 269 270 270 270 271 272 273 274 275 277 279 280 283 284 285 286 287 288 289 287 287
270 270 269 268 268 267 266 265 265 264 263 262 262 263 263 264 264 266 267 269 270 270 270 270 270 270 270 271 273 273 273 275 278 280 282 284 285 285 285 286 287 288 287
268 268 268 267 267 266 264 264 263 263 262 262 262 263 263 264 264 266 268 269 270 270 270 270 272 273 273 273 272 271 272 272 275 277 281 283 285 285 285 285 286 287 287
267 267 266 265 265 264 264 264 263 262 262 262 263 263 265 268 268 269 269 269 270 271 271 272 271 272 273 273 273 272 272 273 274 275 278 283 285 286 285 285 285 286 286
266 265 265 264 264 264 263 263 263 263 264 266 267 268 269 269 269 271 272 273 273 274 275 275 275 271 269 269 269 271 272 272 273 274 279 283 285 286 285 285 285 285 285
264 264 264 263 263 263 262 262 264 264 266 267 268 269 269 270 270 272 272 272 273 274 275 275 275 275 274 273 272 271 271 273 274 275 281 283 285 286 285 285 284 285 283
263 263 263 263 262 262 261 261 261 263 264 265 266 267 268 269 269 270 271 272 271 270 269 270 271 272 273 274 273 272 272 273 274 278 281 283 283 284 284 284 283 283 282
263 263 263 263 262 261 261 260 261 261 262 262 264 265 266 266 268 269 269 268 265 265 266 267 268 269 269 272 272 272 273 274 275 277 282 283 284 284 283 283 282 282 281
262 263 263 262 262 261 261 260 260 261 261 262 262 263 263 264 267 265 265 263 264 264 265 265 266 267 270 272 273 272 273 274 276 279 281 283 284 283 283 283 281 281 280
262 263 262 261 261 261 260 260 260 260 260 261 261 262 263 266 263 262 262 262 262 263 263 264 265 266 268 271 274 274 274 275 277 279 280 282 282 282 282 281 280 279 279
262 262 261 261 261 261 260 260 259 260 260 260 261 261 266 263 262 262 262 262 262 262 262 262 263 265 266 268 270 275 276 277 279 280 281 281 281 280 281 280 279 278 278
262 261 261 261 261 261 260 260 260 260 259 259 260 261 263 261 261 261 262 262 262 262 262 262 263 264 265 267 268 270 272 274 275 277 278 278 278 278 278 277 277 276 275
261 261 261 261 261 260 260 260 260 260 259 260 260 260 260 260 260 260 261 261 262 262 263 263 263 264 265 267 268 269 270 271 272 274 275 275 275 275 274 274 274 273 273
260 261 260 260 260 260 259 259 259 259 259 259 259 259 259 260 260 260 261 261 262 263 264 264 264 265 266 267 267 268 269 270 271 272 273 273 272 272 272 272 272 272 272
260 260 260 260 259 259 259 259 260 259 259 259 259 259 259 260 260 261 261 262 262 263 264 265 265 266 267 267 268 268 268 269 269 270 271 271 271 270 270 270 270 270 270
260 260 260 259 259 260 259 259 259 259 259 259 259 259 259 259 260 260 261 261 262 263 263 264 265 266 266 267 268 268 268 268 268 269 269 269 269 269 269 268 268 268 268

GFSGL_925_thetae_021.txt.gz
Theta_e
285 285 285 285 285 285 284 283 283 283 283 283 282 283 282 282 282 281 281 281 280 281 281 281 282 282 283 283 284 285 287 289 290 291 291 292 292 293 294 294 294 293 293
285 285 285 285 285 285 284 283 283 282 282 282 282 281 281 280 280 279 279 279 279 279 280 280 281 281 281 282 282 283 284 285 287 288 289 290 291 292 293 293 294 294 293
286 286 285 285 284 284 284 283 282 281 281 280 279 279 278 278 277 277 278 278 279 279 279 279 280 280 281 281 282 283 284 285 286 287 287 288 289 290 291 292 291 292 292
286 286 285 285 285 284 283 283 282 281 280 280 279 278 277 276 276 276 277 278 278 278 278 278 279 279 279 280 281 282 283 284 284 286 287 287 287 288 289 289 289 289 289
286 286 285 285 284 284 284 283 281 280 279 278 278 278 276 275 275 275 276 276 276 276 276 277 277 278 278 279 280 280 281 283 283 284 285 286 287 286 287 288 287 288 288
285 285 285 284 284 284 282 281 280 279 278 277 276 275 274 273 273 273 274 274 274 274 274 274 274 275 275 277 278 279 280 281 282 284 285 285 286 287 287 287 288 287 287
285 284 284 284 283 281 279 278 278 277 276 274 273 271 271 270 270 272 272 272 271 271 271 271 272 272 272 272 273 275 276 277 279 281 283 285 286 286 287 287 287 288 288
284 284 283 282 280 278 278 277 275 274 273 272 271 269 268 268 269 269 270 270 270 269 269 269 270 270 270 271 271 272 273 273 274 275 277 281 283 284 286 287 288 287 287
283 282 281 279 277 277 276 275 273 271 270 270 268 267 266 266 266 268 269 269 269 269 269 269 269 269 270 271 273 273 273 273 274 275 276 277 279 282 284 285 287 287 287
280 279 277 276 275 274 273 271 270 269 268 267 266 266 265 265 265 266 268 269 269 269 269 269 269 270 271 272 273 273 273 272 273 273 274 275 277 278 280 285 286 288 287
279 277 275 273 272 271 270 270 269 267 266 266 265 265 264 265 265 266 268 269 269 269 270 270 270 271 272 272 273 273 273 273 274 274 274 274 275 278 279 281 284 286 287
275 274 273 272 271 271 269 268 267 266 265 264 263 263 264 265 265 266 268 269 271 271 271 271 271 271 272 273 274 275 276 276 276 275 274 274 274 277 279 280 283 284 285
272 271 271 270 270 269 268 268 266 265 263 263 262 263 264 264 265 266 268 270 271 272 272 272 273 274 275 275 274 274 274 274 273 272 272 272 272 273 275 279 282 284 284
270 269 268 268 268 268 267 266 265 264 263 262 263 264 265 268 269 269 269 270 271 272 272 273 274 275 275 275 275 274 274 274 274 273 273 272 272 273 275 276 281 284 284
268 267 267 266 266 266 265 265 265 265 264 266 267 269 269 269 269 271 272 272 272 273 274 273 271 271 271 271 272 272 272 272 271 271 271 272 272 273 273 275 281 284 284
267 266 265 265 265 264 264 264 266 265 266 268 269 269 269 269 270 271 271 272 273 272 271 267 267 267 268 269 269 270 272 272 271 271 271 272 272 273 275 277 281 284 285
266 265 264 264 263 263 262 262 261 267 265 265 266 267 267 269 269 270 271 270 269 267 264 264 265 266 266 267 268 269 269 271 272 272 272 273 274 275 277 280 281 285 285
265 264 263 264 263 263 262 261 261 260 261 264 265 264 265 266 268 268 268 265 263 262 262 263 263 264 265 265 266 269 272 272 272 272 273 274 275 277 282 281 283 284 285
264 264 263 263 263 262 261 261 261 261 260 261 263 265 265 264 266 265 264 262 261 261 262 262 262 262 263 264 266 268 269 273 272 272 273 275 277 279 282 283 283 283 283
263 263 263 263 262 262 261 261 260 260 260 260 260 261 263 265 264 262 262 261 261 261 262 262 262 262 263 264 265 266 268 270 274 274 275 276 278 279 281 282 283 282 282
262 262 262 261 261 261 261 261 260 260 260 260 261 261 264 264 262 261 261 261 261 261 262 262 262 263 263 264 265 266 267 268 270 272 274 277 279 281 281 281 282 281 281
262 262 261 261 261 261 261 261 260 260 260 260 260 261 262 261 260 260 261 261 261 261 262 262 263 263 264 264 265 266 266 268 269 269 271 274 275 277 278 280 279 279 278
261 261 261 261 261 261 261 261 260 260 260 260 259 260 260 260 260 260 261 262 262 263 263 263 263 263 265 266 266 267 267 267 268 269 270 272 273 274 275 276 276 275 275
261 260 260 261 260 260 260 260 260 260 260 260 260 260 260 260 260 261 261 261 262 263 263 264 264 264 266 266 266 268 269 268 268 269 270 271 271 272 273 273 273 273 273
260 260 260 260 260 260 260 260 260 260 260 260 260 260 260 260 260 260 261 261 262 262 263 263 264 264 266 267 267 268 268 269 268 268 269 270 270 270 271 271 271 271 271
260 260 260 259 260 260 260 260 260 260 260 260 260 259 259 259 260 260 261 261 261 261 262 263 263 264 266 267 267 268 268 269 268 268 268 268 269 269 269 269 269 269 269

GFSGL_925_thetae_024.txt.gz
Theta_e
285 285 285 285 285 285 284 284 283 282 282 282 281 281 281 280 280 280 280 280 280 281 281 280 280 280 280 281 281 281 281 283 285 285 285 285 285 286 286 286 290 292 293
285 285 285 284 284 284 284 284 283 282 281 281 280 280 279 279 279 278 278 278 278 278 279 279 278 279 279 279 280 280 281 281 282 283 284 284 285 285 285 286 286 289 291
285 285 285 284 284 284 284 283 283 282 281 280 279 279 278 278 277 277 277 276 277 277 277 277 277 278 278 278 278 279 280 280 281 282 283 284 284 285 285 286 286 286 287
285 285 285 284 284 284 284 283 282 281 281 280 279 278 277 276 276 275 275 275 275 275 275 275 275 276 276 277 277 278 279 280 281 281 282 282 283 284 285 286 286 286 287
286 285 285 284 284 283 283 284 283 282 281 280 279 278 277 276 274 274 274 274 274 274 273 273 273 274 274 275 276 276 277 278 279 279 280 281 282 283 284 285 286 286 286
285 285 285 284 283 284 284 284 283 281 279 279 278 277 276 274 273 273 274 273 272 272 272 271 271 271 272 272 273 274 275 276 277 278 279 281 282 283 283 284 285 286 286
285 285 284 283 283 283 283 282 280 279 278 277 276 275 274 273 272 272 272 271 271 271 270 270 270 270 270 270 270 271 272 272 274 275 275 276 277 278 280 282 285 285 286
285 284 284 282 282 282 282 280 278 277 276 276 275 273 272 271 270 270 271 270 269 269 269 269 269 269 269 270 271 271 272 272 273 273 273 274 274 275 275 276 278 281 284
284 283 282 281 281 281 279 278 277 275 275 274 272 270 270 270 270 269 270 269 269 269 269 269 269 269 269 271 272 273 273 273 273 273 274 274 275 276 277 278 279 279 281
283 281 280 280 280 279 277 276 275 274 272 271 271 270 269 269 269 268 269 269 269 269 269 269 270 271 272 273 273 273 273 273 273 273 273 273 273 274 274 275 275 277 279
280 279 279 278 278 277 276 274 273 272 271 270 269 268 268 268 268 267 269 270 270 270 271 271 271 272 272 273 274 274 274 274 275 275 274 274 274 274 274 274 274 275 277
279 278 277 276 275 275 273 272 271 270 269 268 267 268 267 267 267 267 269 271 272 272 272 272 272 273 274 276 276 276 277 277 276 275 274 274 274 273 273 273 274 274 276
277 276 275 275 274 272 271 271 270 269 267 266 265 264 266 267 268 268 269 270 272 272 272 273 274 274 274 275 274 274 274 274 274 275 274 274 274 273 273 273 272 272 273
275 274 273 273 272 271 270 269 268 267 266 265 264 264 267 267 269 269 270 271 272 272 272 273 273 271 270 270 269 270 270 270 271 272 272 273 273 274 273 273 272 272 272
273 272 271 270 270 269 268 268 267 267 266 265 267 268 269 269 269 271 272 272 273 273 272 269 267 266 266 266 267 267 267 268 269 270 271 271 272 272 272 272 272 272 272
271 270 269 268 267 267 266 267 267 266 267 268 270 270 270 269 270 271 271 272 272 269 267 264 263 263 264 264 265 265 266 267 268 269 270 271 271 272 272 272 272 272 272
269 268 267 266 266 265 265 264 263 266 266 265 267 267 267 269 269 270 270 270 266 266 263 262 261 262 262 263 263 264 265 266 267 269 271 272 272 272 272 273 274 274 274
268 267 266 266 265 264 264 263 262 261 261 264 265 263 265 266 267 269 268 265 265 263 261 261 261 261 262 262 263 263 264 265 266 268 271 272 272 272 273 274 275 279 277
267 266 266 264 263 263 263 262 262 261 261 261 263 264 264 265 265 265 264 262 261 261 261 261 261 262 262 262 263 263 264 265 266 268 269 272 273 273 274 276 278 280 281
265 265 264 263 263 263 262 261 262 261 261 261 261 263 264 264 264 263 262 262 261 260 261 261 261 262 262 262 263 263 264 266 267 267 268 269 271 273 275 278 279 280 282
264 264 263 262 262 262 262 261 261 261 261 261 261 262 263 265 262 261 261 262 261 261 261 261 262 262 262 262 263 264 265 266 267 267 268 268 269 271 272 275 278 280 281
263 262 261 261 262 261 261 261 261 260 261 260 261 262 261 261 261 261 262 262 262 262 262 261 262 263 263 263 263 263 265 267 267 267 267 267 268 270 271 273 276 278 279
262 261 261 261 261 261 260 260 260 260 260 260 260 261 261 261 261 261 262 262 262 262 262 262 262 263 263 264 265 265 264 266 268 267 267 267 268 269 271 272 273 274 275
261 261 261 261 260 260 260 260 260 260 260 260 261 261 260 261 260 260 261 261 261 262 262 262 263 263 263 264 266 267 267 267 268 267 267 268 268 269 270 271 272 272 273
260 260 260 260 259 259 259 259 259 260 260 260 260 260 260 260 260 261 260 260 261 261 262 262 263 263 264 264 266 267 268 268 269 268 268 268 268 268 269 270 270 271 271
260 260 260 260 260 259 259 259 260 260 260 260 260 260 259 259 259 260 260 260 260 261 262 262 263 263 264 265 266 267 268 268 269 268 267 267 267 268 268 268 269 269 269

GFSGL_925_thetae_030.txt.gz
Theta_e
285 285 285 285 284 285 285 285 285 285 285 284 284 283 282 282 281 281 280 280 280 280 280 280 280 280 280 280 280 280 281 281 282 282 282 282 282 282 282 283 283 284 284
285 285 285 285 285 285 285 286 286 285 285 284 283 282 282 281 280 280 279 279 278 279 279 278 279 278 278 279 279 279 279 279 280 280 280 281 281 281 281 282 282 283 283
285 285 284 284 285 285 286 285 285 284 283 283 282 281 280 280 279 278 277 277 278 278 278 277 277 277 277 277 277 277 277 278 278 278 279 278 279 279 280 281 281 281 282
285 284 284 284 285 285 285 285 284 283 282 281 281 280 279 279 278 276 277 277 277 277 277 276 276 275 275 275 275 275 276 276 277 277 277 277 277 277 278 279 281 281 282
285 284 284 285 285 285 284 283 283 282 280 279 279 279 278 278 276 276 277 277 277 276 276 275 275 274 273 273 274 274 275 275 275 275 275 276 277 277 277 277 277 278 278
285 285 284 284 284 284 284 283 281 280 279 279 278 278 277 277 276 276 276 276 275 275 275 274 273 273 273 273 273 273 273 274 274 274 274 275 275 276 276 276 276 276 278
286 285 285 284 284 284 283 282 281 279 279 278 277 276 276 276 276 275 274 274 274 274 273 273 273 273 272 272 272 272 273 273 274 274 274 275 275 275 275 275 275 276 277
287 286 285 285 284 283 282 281 280 279 278 277 276 276 274 275 275 274 274 274 273 273 272 272 272 272 272 272 273 273 273 274 274 274 274 274 274 275 275 275 276 276 277
287 286 286 285 284 283 282 280 279 278 277 276 275 275 274 275 274 273 272 273 273 273 272 272 272 272 272 274 275 275 275 275 275 275 276 276 277 277 277 278 278 278 278
287 287 286 284 283 283 281 279 278 278 276 275 274 273 274 274 273 272 272 273 273 273 273 273 273 274 274 275 275 276 276 276 277 277 277 277 276 276 276 276 276 277 277
287 286 285 284 283 281 279 278 277 276 275 274 273 273 273 272 272 271 271 273 273 274 274 274 274 274 274 276 276 275 274 275 274 274 274 274 274 274 275 276 276 276 276
286 285 284 283 281 279 278 277 276 274 273 272 271 272 271 271 271 271 271 272 273 274 274 274 274 275 274 273 273 272 272 272 271 271 272 272 273 273 273 274 274 275 275
285 284 282 280 278 277 276 275 274 273 271 271 270 271 270 269 270 270 271 272 273 273 273 274 273 272 270 269 269 269 269 269 269 269 270 270 271 271 271 271 272 273 273
284 281 279 278 276 275 274 273 273 272 271 270 270 270 270 270 270 270 271 272 273 273 274 271 270 268 268 267 267 267 267 267 267 267 268 269 269 269 270 271 271 272 273
281 279 277 276 275 274 273 272 272 272 271 270 270 270 270 271 271 272 273 273 273 274 272 270 268 266 266 267 266 266 266 266 267 267 267 267 267 268 269 270 272 273 273
279 276 275 274 273 272 270 270 271 269 269 270 271 272 272 272 273 272 272 273 273 271 269 267 266 265 265 266 266 266 266 266 266 266 266 267 267 268 269 269 271 273 273
277 275 274 273 271 270 269 269 269 268 268 268 269 269 270 271 271 271 271 272 270 268 266 265 264 264 264 265 265 265 265 265 265 266 266 266 267 268 268 269 270 271 273
275 274 273 271 270 269 268 268 267 267 267 267 267 266 266 267 269 269 270 270 267 265 264 263 263 263 263 264 264 264 264 264 265 265 265 266 267 268 268 269 269 270 271
272 271 270 269 268 267 266 265 264 264 264 264 265 266 265 265 265 267 267 265 263 262 262 262 262 262 262 262 263 263 263 263 263 264 265 266 267 268 268 268 269 269 270
269 268 267 266 265 264 264 263 263 263 263 263 263 263 263 263 263 264 264 264 262 262 262 261 261 261 261 261 261 262 262 263 263 264 265 265 266 268 268 268 268 269 270
266 266 265 264 263 262 262 262 262 262 262 262 262 262 263 263 265 264 262 262 262 262 262 261 261 261 261 260 260 261 261 262 262 263 264 265 265 267 267 268 268 269 270
264 264 263 262 262 261 261 261 261 261 261 261 261 261 262 263 263 262 261 261 262 262 261 261 261 261 261 261 260 260 260 261 263 263 263 264 265 267 267 267 268 269 270
263 262 261 261 261 260 260 259 259 260 260 260 260 260 260 260 260 260 260 261 261 261 261 261 260 261 261 261 261 261 261 263 264 264 264 264 265 266 266 267 268 268 269
262 261 261 260 260 260 259 260 260 259 259 259 259 259 259 260 260 261 261 261 261 261 261 261 261 261 261 262 262 262 263 264 265 266 266 265 266 266 266 266 267 267 268
261 261 261 260 260 259 259 259 259 259 259 259 259 259 259 259 260 261 261 260 260 260 261 260 261 261 261 262 263 263 264 265 266 267 267 267 267 267 266 266 266 266 267
261 261 261 260 259 259 259 259 259 259 259 259 259 259 259 259 260 260 260 260 260 260 260 260 261 261 261 262 263 263 264 265 267 267 268 268 267 267 266 266 266 266 266

GFSGL_925_thetae_033.txt.gz
Theta_e
288 287 287 286 286 286 286 285 285 285 284 284 284 284 284 284 283 282 282 281 281 281 281 281 280 280 280 280 280 281 281 281 282 281 281 281 281 281 281 281 281 281 282
288 287 286 286 286 286 285 285 285 285 285 285 285 285 284 283 282 281 280 280 280 280 280 280 280 280 279 279 279 279 279 279 279 280 279 279 279 279 279 279 280 280 281
287 287 286 286 285 286 285 285 285 285 285 285 284 283 282 282 281 280 280 279 279 279 279 279 278 278 278 278 277 277 277 277 277 278 278 278 278 278 278 278 278 279 280
287 286 286 286 286 286 285 285 285 285 285 284 283 282 282 281 280 279 279 279 279 279 278 278 277 277 276 276 276 276 276 276 276 276 276 276 276 276 277 277 277 277 277
287 286 286 286 285 285 285 284 284 284 284 283 282 281 280 280 279 278 278 278 278 278 277 277 276 276 275 275 275 275 275 275 275 275 275 275 276 275 276 276 276 277 277
287 286 286 286 285 285 284 284 284 283 283 283 281 280 280 279 278 278 277 277 277 277 277 276 275 275 274 275 274 274 274 274 274 275 275 275 275 275 275 276 276 276 277
287 286 286 286 285 284 284 284 283 283 282 281 280 279 279 279 278 277 276 276 276 276 276 275 275 274 274 274 273 274 274 274 275 275 275 275 275 275 275 275 276 276 276
287 286 285 285 285 284 284 283 283 281 281 280 279 279 278 278 277 276 275 274 275 275 275 274 274 274 274 274 274 274 275 275 275 275 275 275 275 276 276 276 276 276 277
287 286 286 285 284 284 283 283 282 281 280 279 278 278 277 277 276 275 274 274 274 275 274 274 274 274 274 275 276 276 276 276 276 277 277 277 277 278 278 278 278 277 277
288 288 288 287 285 284 284 283 282 281 279 278 278 277 277 277 275 274 273 273 274 274 275 275 275 276 275 276 276 276 276 274 274 275 274 274 274 274 275 275 275 276 277
289 288 287 286 285 284 283 282 281 279 278 277 277 276 275 275 275 273 273 273 274 274 274 275 275 275 275 276 275 274 273 273 273 272 271 271 272 272 273 274 274 275 275
288 287 286 285 284 283 282 281 279 278 277 275 274 274 274 274 273 273 272 273 274 274 274 274 274 275 275 274 273 272 272 271 269 269 269 270 270 270 271 271 271 272 272
287 286 285 284 283 282 281 279 277 276 274 274 273 273 273 273 272 271 272 273 273 274 274 274 275 273 272 271 270 270 270 268 268 268 268 268 269 269 269 269 270 271 271
286 285 283 282 281 279 278 277 276 274 273 273 273 274 273 273 272 272 271 272 272 274 274 274 273 271 270 269 268 268 268 267 267 267 268 268 268 268 268 269 269 270 271
284 283 281 279 278 277 276 276 275 275 275 274 274 273 273 272 273 273 272 273 273 274 275 271 270 269 268 268 267 267 267 267 267 267 267 266 267 267 268 268 269 269 270
282 280 278 277 275 274 274 274 273 273 272 272 272 272 272 273 273 274 275 274 274 273 272 270 268 267 267 267 266 266 266 267 267 266 265 266 267 267 267 268 268 269 269
279 279 277 275 275 273 273 272 273 273 272 273 273 273 273 273 273 273 273 273 273 270 269 268 267 266 266 266 266 266 266 266 265 265 265 266 266 266 267 268 268 269 269
276 276 275 274 273 273 272 272 271 271 271 270 270 269 269 270 270 271 272 272 270 268 267 265 265 264 264 264 264 264 264 264 264 264 264 264 265 266 267 267 268 268 268
274 273 272 272 271 270 270 269 268 268 267 267 267 266 266 267 268 269 269 269 268 267 265 264 264 264 263 263 263 263 263 263 263 263 264 264 265 265 266 267 268 268 268
271 270 270 269 268 267 267 266 266 266 266 266 265 265 265 265 264 265 266 265 265 265 264 263 263 263 263 263 262 262 262 262 262 263 263 263 264 265 266 266 267 268 268
268 267 267 266 266 265 265 265 265 264 264 264 264 264 265 264 263 264 265 265 264 263 263 263 263 262 262 262 262 261 261 261 262 262 262 263 263 264 264 266 267 267 268
266 265 265 264 264 263 263 263 263 263 263 263 263 263 264 265 265 265 265 264 263 262 262 262 262 262 262 261 261 261 261 261 262 262 262 263 263 263 264 266 267 267 267
265 264 263 263 262 262 261 261 261 261 261 261 261 261 261 261 262 262 262 262 262 262 262 262 262 262 262 261 261 261 261 262 262 262 262 263 264 264 265 266 266 266 267
263 263 262 262 262 261 261 261 261 261 261 260 260 260 260 261 261 261 261 261 261 262 261 261 261 261 261 261 261 261 262 262 262 263 263 264 265 266 266 266 265 266 265
262 261 261 261 261 261 260 260 260 260 260 260 260 260 260 260 260 260 260 260 261 261 261 260 261 261 261 261 261 261 262 262 263 264 265 265 266 266 267 266 266 266 266
261 261 261 260 260 260 260 260 260 260 260 260 260 260 260 260 260 260 259 260 260 260 260 260 261 260 260 261 261 261 262 263 263 264 264 265 266 267 267 266 266 266 266

GFSGL_925_thetae_036.txt.gz
Theta_e
289 289 288 288 288 287 287 286 286 285 285 285 284 284 285 285 285 284 284 283 282 281 281 281 281 280 280 280 279 279 279 279 279 279 279 278 278 278 278 278 278 277 278
289 288 288 287 287 287 286 286 285 285 285 284 284 285 285 285 285 284 283 282 281 281 280 280 280 279 279 279 278 278 277 277 277 277 277 277 277 277 277 276 276 277 277
288 288 287 287 286 286 286 286 285 285 285 284 285 285 285 284 283 282 282 281 281 280 280 280 279 279 278 278 277 277 276 276 276 276 276 276 276 275 275 276 276 276 276
288 287 287 286 286 286 286 285 285 285 285 284 285 285 284 283 282 282 281 281 280 280 279 279 278 278 277 276 276 275 275 275 275 275 275 275 274 275 275 275 275 275 275
288 287 287 286 286 286 286 285 285 285 284 284 285 284 283 283 282 281 281 280 280 279 279 278 278 277 276 276 276 276 275 275 274 274 274 274 275 275 275 275 275 275 275
288 287 287 286 286 286 286 285 285 284 284 284 284 283 283 283 282 282 281 280 279 279 278 277 277 276 276 275 276 276 276 276 276 275 275 275 276 276 275 275 275 276 276
288 287 287 286 286 286 285 285 284 284 284 283 283 283 283 282 281 280 280 279 279 278 277 276 276 275 275 274 274 274 275 275 276 276 276 276 275 275 275 275 276 276 276
289 288 287 286 286 286 285 285 284 284 283 283 283 282 282 282 281 280 279 278 278 277 276 275 275 275 274 274 274 275 275 275 275 276 276 277 277 277 277 277 277 277 276
289 288 287 286 286 285 285 284 284 283 283 282 282 282 282 281 280 278 277 277 276 276 275 275 275 275 275 275 276 276 276 276 275 274 274 275 275 275 274 274 274 275 275
289 289 288 287 286 285 285 284 284 283 283 282 282 281 281 280 278 277 276 276 275 275 274 274 275 276 276 277 277 277 275 274 273 273 273 272 270 270 272 272 273 274 274
291 290 289 288 287 286 285 284 283 283 282 281 280 280 279 278 278 277 275 275 275 274 274 274 274 275 276 276 277 276 274 274 273 272 270 269 268 269 269 270 270 271 271
290 289 288 288 287 286 285 284 283 282 281 280 278 278 277 277 277 276 275 275 275 274 274 274 274 274 275 276 275 273 273 273 271 268 268 267 267 268 269 268 268 269 269
288 288 287 286 286 285 284 283 281 280 279 278 277 276 277 276 276 275 274 274 275 275 275 274 275 276 275 273 272 271 271 269 268 267 267 267 268 268 267 267 267 268 268
287 286 286 285 284 283 282 281 280 279 277 276 275 275 275 275 275 274 274 273 274 274 274 274 274 274 273 271 270 269 268 267 267 267 267 267 267 266 267 267 267 267 268
286 285 284 283 282 281 279 279 278 277 277 277 276 275 275 274 274 274 273 272 273 273 274 273 273 272 271 270 268 267 267 267 267 267 267 266 266 266 266 266 266 267 267
285 284 283 281 280 279 278 276 275 275 274 275 275 274 274 273 273 274 275 275 276 276 275 273 273 271 270 268 267 266 266 266 266 266 265 265 265 265 265 265 266 267 267
283 283 281 280 279 277 275 275 274 275 275 275 275 275 276 276 275 275 275 275 276 275 273 272 271 270 268 267 266 265 265 265 265 264 264 264 264 264 264 265 266 266 267
280 279 279 278 276 275 275 274 273 272 272 272 272 272 272 272 273 273 273 273 273 273 271 271 270 268 267 266 265 265 264 264 264 263 263 263 264 263 264 264 265 266 266
277 276 275 275 274 273 272 272 271 270 269 269 268 268 269 269 270 271 272 272 271 271 270 269 269 267 266 265 264 264 263 263 263 262 262 263 263 263 263 264 265 264 266
273 273 272 272 271 270 270 269 268 268 267 266 266 266 266 265 265 266 266 266 267 268 268 267 266 265 264 264 263 263 263 262 262 262 262 262 263 262 262 263 263 264 266
271 270 269 269 268 268 267 266 266 265 265 265 264 264 265 267 266 266 265 264 265 265 265 265 264 263 263 263 263 262 262 262 261 261 261 262 262 262 263 263 263 264 266
269 268 267 266 266 265 264 264 264 263 263 263 263 262 264 264 264 263 263 264 265 265 264 264 263 262 262 262 262 261 261 261 261 262 261 261 262 263 263 263 264 265 265
266 265 265 264 264 263 263 263 263 262 262 261 261 261 261 261 261 261 261 262 262 263 263 262 262 262 262 262 261 261 260 261 261 261 260 261 262 263 263 263 264 265 265
264 263 263 263 262 262 262 261 261 261 261 261 261 260 260 260 260 260 260 261 261 261 261 261 261 261 261 261 261 261 261 261 260 261 260 260 261 263 264 264 265 265 265
263 263 263 262 262 261 261 261 260 260 260 260 260 260 260 260 260 260 260 260 260 260 260 260 261 260 260 260 261 261 261 260 260 260 261 261 262 264 264 265 266 266 266
262 262 261 261 261 261 260 260 260 260 260 260 260 260 260 260 260 260 260 260 260 260 260 260 260 260 260 260 260 260 260 260 261 261 261 261 262 263 264 266 266 266 266

GFSGL_925_thetae_039.txt.gz
Theta_e
292 291 291 290 290 289 289 288 287 286 286 286 285 285 285 285 285 285 285 284 283 282 282 281 281 280 280 280 279 278 278 278 278 278 278 277 277 276 276 276 276 275 276
291 290 290 290 289 289 288 287 286 286 285 285 285 285 285 285 285 285 285 284 283 283 282 281 281 280 279 279 278 278 277 277 276 276 276 276 276 275 275 275 275 275 275
290 290 289 288 288 288 287 287 286 286 285 285 285 285 285 285 285 285 284 284 283 283 282 282 281 280 279 278 278 277 276 276 275 275 275 275 275 275 275 275 275 275 275
289 289 288 288 287 287 287 286 286 285 285 285 285 285 285 284 285 285 284 283 283 283 282 281 280 279 278 278 277 277 276 276 275 275 275 275 275 275 275 275 275 275 276
289 288 288 287 287 287 286 286 286 285 285 285 284 284 284 284 285 284 284 283 283 282 281 280 280 279 278 277 277 277 276 276 276 275 275 275 275 276 276 276 275 276 276
288 288 287 287 286 286 286 286 285 285 285 284 284 284 284 285 284 284 284 283 282 281 280 280 279 278 277 276 276 276 277 276 276 276 275 276 276 276 276 276 276 276 276
288 288 288 287 286 286 286 286 285 285 284 284 283 284 284 284 284 283 283 282 281 280 280 279 278 277 277 276 275 275 275 275 276 276 276 276 276 276 275 276 276 275 275
288 288 287 287 286 286 286 286 285 284 284 284 283 284 284 283 283 282 281 281 280 279 279 278 277 277 276 275 275 275 275 276 276 276 276 275 275 275 275 273 273 273 272
288 288 288 287 286 286 286 285 285 285 284 284 284 283 283 283 282 281 280 279 279 279 278 277 277 276 275 276 276 276 276 276 276 275 274 274 274 272 272 271 271 271 271
288 289 289 288 287 286 286 285 285 285 284 284 283 283 283 282 281 280 279 278 278 277 277 276 276 275 276 277 277 277 277 276 275 274 273 273 271 270 270 269 269 269 270
291 290 289 288 288 287 286 286 285 284 284 283 283 282 282 281 280 279 278 278 277 277 276 276 275 275 276 276 277 277 276 276 275 273 272 271 269 269 269 268 269 268 268
291 290 289 289 288 287 286 286 285 284 283 283 282 281 280 280 279 278 277 277 277 276 276 276 275 275 275 276 277 276 275 274 273 271 269 268 268 268 268 267 267 267 267
292 291 290 289 288 287 286 285 284 283 282 282 280 280 279 279 278 277 277 277 277 277 277 276 275 276 276 277 275 274 273 271 270 268 267 267 267 267 267 267 267 267 267
290 289 289 288 287 286 285 285 284 283 281 279 278 278 278 277 278 277 276 276 276 277 276 276 276 275 275 275 273 272 271 269 268 267 267 267 267 266 266 266 266 266 266
288 287 286 286 285 285 284 283 282 282 281 280 280 279 278 277 277 276 275 275 274 274 274 274 273 273 273 273 273 271 270 268 267 266 266 266 266 265 265 265 265 265 265
286 285 285 284 283 282 281 280 279 278 277 277 276 276 276 275 274 275 275 276 276 275 274 273 273 273 273 272 271 270 269 267 266 266 265 265 264 264 264 264 264 264 265
285 285 284 283 282 281 279 278 277 276 276 277 277 277 277 276 276 276 276 277 277 277 277 277 274 273 273 271 270 269 267 267 265 264 264 264 263 263 263 263 263 264 264
283 283 282 282 281 279 278 277 275 275 274 275 275 275 275 274 274 274 275 275 275 274 274 274 273 272 271 270 269 267 266 265 264 264 263 263 262 262 261 262 262 263 264
280 280 279 278 277 276 275 274 273 272 272 271 271 271 271 270 269 270 271 271 269 269 269 269 270 270 269 268 267 266 265 264 263 262 262 262 262 261 261 262 262 262 262
277 276 276 275 274 273 272 272 271 270 269 268 268 267 266 266 266 266 266 266 266 266 266 265 265 266 266 266 265 264 264 263 263 262 262 261 261 261 260 261 261 261 262
274 273 273 272 272 270 270 269 269 267 266 266 265 265 265 267 265 264 264 264 264 264 264 265 265 265 264 264 263 263 263 262 262 261 261 261 261 260 261 261 261 262 262
271 270 269 269 268 268 267 266 266 265 264 264 263 263 263 263 263 262 261 261 261 261 262 263 264 263 263 263 262 262 261 261 261 261 260 260 260 260 261 261 262 262 263
268 268 266 266 266 265 265 264 264 263 262 262 262 262 262 261 261 261 261 261 261 261 261 261 261 261 261 261 261 261 261 261 260 260 260 260 260 260 261 261 262 262 264
266 266 265 265 264 263 263 263 262 262 262 262 261 261 261 260 260 260 260 260 260 260 260 260 260 260 260 261 261 261 260 260 260 260 259 259 260 260 260 261 262 264 264
264 264 264 263 263 262 262 262 262 261 261 261 260 260 260 260 260 260 260 260 260 260 260 260 260 260 260 260 260 260 260 260 260 259 259 259 259 260 261 261 263 264 264
263 263 262 262 262 262 262 261 261 261 260 260 260 260 260 259 259 259 259 259 259 259 259 259 259 259 259 259 259 259 259 259 259 260 260 260 260 261 261 262 262 263 264

GFSGL_925_thetae_042.txt.gz
Theta_e
297 296 295 293 291 289 288 288 287 287 286 286 286 286 286 286 285 285 285 285 285 285 284 283 282 281 281 280 279 279 278 278 277 277 277 277 277 277 278 278 277 276 276
295 294 293 291 290 289 288 288 287 287 286 286 286 286 286 285 285 285 286 285 285 285 284 283 282 281 281 280 279 278 278 277 276 276 276 276 276 276 276 276 276 275 275
293 293 291 291 290 289 288 287 287 286 286 285 286 286 285 285 285 285 285 285 285 284 284 283 282 281 281 280 279 278 277 276 276 275 275 275 275 276 276 275 275 275 275
292 291 291 290 289 289 288 287 286 286 286 285 285 285 285 285 285 285 285 285 285 284 284 283 282 281 280 279 278 278 277 276 276 276 275 275 275 275 275 276 275 275 275
290 290 290 289 289 289 288 287 286 285 285 285 285 284 284 284 285 284 285 284 284 284 283 282 281 281 280 279 278 278 277 277 276 276 275 275 275 276 276 275 275 275 275
289 289 289 288 288 287 287 286 285 285 285 285 284 284 284 284 284 284 284 284 283 283 282 281 281 281 280 278 278 278 277 277 277 276 276 276 276 275 275 275 275 275 274
288 288 288 288 287 287 287 286 285 285 285 284 284 284 284 285 284 284 284 283 283 282 281 281 281 280 279 278 278 276 276 276 277 277 277 276 275 275 275 275 273 272 272
287 287 287 287 287 286 286 286 285 285 285 284 284 283 284 284 284 283 282 283 282 282 281 280 280 279 278 278 277 276 276 276 276 276 276 276 275 275 274 273 272 271 270
287 287 287 287 287 286 285 285 285 285 285 284 284 284 284 284 283 282 282 281 281 281 280 280 279 278 278 277 276 276 276 276 277 277 276 276 274 274 272 271 270 269 268
287 287 288 288 287 286 286 286 286 285 285 284 284 284 284 284 283 282 281 281 280 280 280 279 279 278 277 277 277 277 277 277 277 276 275 274 273 272 270 269 269 268 268
288 289 289 289 287 287 287 286 286 285 285 284 284 284 283 283 282 281 280 281 280 280 279 279 279 278 276 277 278 278 277 277 277 275 274 273 272 270 269 269 268 268 268
292 290 288 288 287 287 287 286 285 285 284 284 284 283 283 283 282 281 280 280 280 279 279 279 278 277 276 277 278 277 278 277 276 274 273 271 269 269 268 268 267 267 267
289 289 288 288 288 287 287 286 284 284 284 283 283 282 283 282 281 280 279 279 279 279 279 278 277 276 276 277 278 278 276 275 274 272 270 269 268 268 267 267 267 267 267
289 289 288 288 287 287 286 286 285 284 283 282 281 280 280 279 280 279 279 278 278 278 278 278 278 277 277 277 276 276 275 274 272 271 269 268 267 266 266 266 265 265 265
291 290 289 288 287 287 286 286 285 285 284 283 282 281 280 279 279 278 277 277 276 276 275 275 275 274 274 274 274 274 273 272 271 270 267 266 266 265 265 265 264 264 263
289 288 287 287 286 286 285 284 283 282 281 280 280 279 278 277 276 276 276 277 277 276 275 275 274 274 274 273 273 273 273 272 270 268 266 266 265 264 263 263 263 263 263
288 287 286 285 284 284 282 281 280 278 277 277 278 278 278 278 277 277 277 278 278 278 278 278 276 273 272 272 272 271 271 270 268 266 265 265 264 263 262 262 262 262 262
285 285 284 284 283 281 280 279 278 277 277 277 277 277 277 276 274 274 275 275 274 274 273 272 270 269 268 269 270 269 268 268 266 265 265 264 263 262 261 261 261 261 261
283 282 282 281 280 279 278 276 276 275 274 274 274 274 274 273 273 271 269 269 268 268 267 266 266 266 266 266 267 267 266 266 265 264 263 263 262 261 261 260 261 261 261
279 279 279 278 277 276 275 274 273 272 271 271 271 270 269 267 267 267 266 266 265 265 265 264 264 264 264 264 264 264 264 264 263 263 263 262 262 261 260 260 260 260 260
276 275 275 275 274 273 272 271 270 270 269 268 267 266 266 266 265 264 263 263 262 262 262 262 262 262 263 263 263 262 262 262 262 262 262 262 261 260 260 260 259 260 260
273 273 272 271 270 270 270 269 268 267 266 265 264 264 264 263 262 262 262 262 261 261 261 261 261 261 261 262 262 261 261 261 261 261 261 261 260 260 260 259 259 260 260
270 270 269 269 269 268 266 266 265 265 264 263 262 262 262 262 262 262 262 261 261 261 261 260 260 260 260 260 260 260 260 260 261 261 260 260 260 260 259 259 259 260 260
268 268 267 266 266 265 264 264 263 262 262 262 262 262 262 262 262 261 261 261 260 260 260 260 260 260 260 260 260 260 260 260 260 260 260 260 260 260 259 259 259 260 260
266 265 265 264 264 263 263 262 262 262 262 262 262 261 261 261 261 261 261 260 260 260 260 260 259 260 260 259 260 260 260 260 260 259 259 259 259 259 259 258 259 260 261
263 263 263 263 262 262 262 262 262 262 262 262 261 261 261 260 260 260 260 260 260 260 259 259 259 259 259 259 259 259 259 259 259 259 259 259 259 260 260 260 260 260 261

GFSGL_925_thetae_045.txt.gz
Theta_e
302 301 300 299 298 296 293 290 289 288 287 287 287 287 287 287 287 287 287 286 286 285 284 284 283 282 281 281 280 279 279 278 278 278 278 278 278 278 278 278 278 278 277
300 299 298 298 296 293 290 289 288 288 287 287 286 286 287 286 286 286 287 286 285 285 284 284 283 282 281 281 280 280 279 278 277 276 277 277 277 277 277 277 276 276 276
299 297 296 295 293 291 290 288 287 287 286 286 286 286 286 286 286 286 286 286 285 285 285 284 283 282 282 281 281 280 279 278 277 276 276 276 276 277 277 276 275 275 275
296 295 295 293 293 291 289 288 287 287 286 285 285 286 286 286 286 286 285 285 284 284 284 284 283 283 282 281 281 280 278 278 277 276 276 276 276 276 276 275 275 275 275
294 293 293 293 291 289 288 287 287 286 285 285 285 285 285 285 285 285 285 285 284 284 284 283 283 282 282 282 280 280 279 278 277 277 276 276 276 276 276 275 275 274 274
292 291 290 290 289 289 288 287 286 286 285 285 284 284 284 285 285 285 285 284 284 284 283 283 282 282 282 281 279 279 279 278 277 277 276 276 276 276 275 275 275 274 273
290 289 289 289 288 288 287 287 286 285 285 284 284 284 284 285 285 285 284 283 283 284 282 282 282 281 281 281 280 278 278 278 278 278 277 277 276 276 275 275 274 273 272
289 288 288 287 287 287 287 287 286 285 285 284 284 284 284 285 284 284 283 283 283 282 282 282 281 281 281 280 279 278 278 277 277 276 276 276 276 276 276 274 273 271 270
287 287 287 287 287 287 286 286 285 285 284 284 284 284 284 287 284 283 282 283 283 282 282 282 281 281 281 279 278 278 277 277 277 277 277 278 277 276 274 272 270 269 268
287 287 288 288 288 287 286 286 286 285 285 285 284 284 287 285 283 282 282 282 282 282 282 282 281 281 280 278 278 277 277 277 277 277 277 276 275 274 272 270 269 268 267
288 287 287 287 287 287 286 288 286 285 285 285 285 286 287 284 283 283 282 282 282 282 281 281 281 280 279 278 279 278 278 278 278 277 276 275 274 272 271 269 269 268 268
288 287 287 287 286 287 289 286 286 285 285 285 285 285 283 283 283 283 282 282 282 281 281 281 280 279 278 278 278 278 279 279 279 277 275 274 273 272 270 268 268 267 267
289 289 290 290 290 290 288 286 285 284 284 283 282 282 283 283 283 282 281 281 281 282 281 281 280 279 277 278 278 279 279 279 278 276 275 274 272 271 268 267 267 267 266
292 291 290 288 286 286 285 285 284 283 282 281 282 282 282 282 281 281 281 280 280 280 280 279 279 279 278 278 277 277 277 277 276 275 274 273 271 269 267 267 266 265 264
289 287 286 286 285 285 284 284 284 284 284 284 283 282 281 281 281 280 279 279 278 278 277 276 276 276 276 276 275 276 276 275 274 274 273 271 269 267 266 265 264 264 263
288 287 287 286 285 285 284 282 282 282 282 281 281 281 280 279 279 278 277 277 277 277 276 276 276 276 275 274 274 273 273 273 272 271 270 269 268 266 265 264 263 263 262
290 288 287 287 286 285 283 283 281 279 279 279 279 278 278 278 277 277 278 278 278 279 278 274 272 272 271 271 271 271 271 270 270 269 269 268 266 265 264 263 262 262 262
286 286 286 285 285 284 283 283 282 280 278 277 277 278 277 275 275 275 275 275 275 275 273 271 270 268 267 266 266 266 267 267 267 267 266 266 265 264 263 262 262 261 261
283 283 282 282 281 281 280 279 278 277 277 276 275 274 274 273 273 273 274 272 270 268 268 267 266 266 265 265 265 265 264 264 264 264 264 264 263 262 262 261 261 260 260
281 281 280 280 279 278 277 277 275 275 274 273 272 272 272 272 271 269 268 267 266 265 265 264 264 263 263 263 263 263 263 263 263 263 262 262 262 261 261 261 260 260 260
278 278 277 277 276 276 275 274 273 272 271 271 271 269 267 268 267 266 266 265 264 263 263 262 262 262 262 261 262 262 262 262 262 262 261 261 261 261 260 260 260 260 259
275 275 274 274 273 272 271 271 270 270 269 268 266 265 265 265 265 264 264 263 263 262 262 261 261 261 261 261 261 261 260 260 261 260 260 260 260 260 260 260 259 259 259
272 271 270 270 270 270 269 268 267 266 265 265 264 264 263 263 263 262 262 262 261 261 261 261 261 261 261 261 260 260 260 260 260 260 260 260 260 259 259 259 259 259 259
269 269 268 267 266 266 265 265 264 263 263 263 263 262 262 262 262 262 262 261 261 261 261 261 261 261 261 261 260 260 260 260 259 259 259 259 259 259 259 259 259 258 258
266 266 265 264 264 264 263 263 263 262 262 262 262 262 261 261 261 261 261 261 261 261 261 261 261 260 260 260 260 259 259 259 258 259 259 259 259 259 258 258 258 258 258
264 264 264 264 263 263 263 262 262 262 262 261 261 261 261 261 261 261 261 261 261 261 261 261 260 260 260 260 260 259 259 259 259 259 259 259 259 259 259 259 259 259 259

GFSGL_925_thetae_048.txt.gz
Theta_e
304 303 302 301 300 302 302 301 299 293 289 289 288 288 288 288 288 288 288 287 287 286 286 286 285 284 283 282 282 281 280 279 279 279 279 279 279 279 279 278 278 278 278
304 303 301 300 299 300 299 298 296 291 288 288 287 287 287 287 287 287 287 287 287 286 286 285 285 284 283 282 282 281 280 279 278 277 278 279 278 279 278 278 277 277 277
303 301 299 298 296 297 297 295 294 289 288 287 286 286 286 286 286 286 287 287 286 286 286 286 285 284 283 282 282 281 280 279 278 277 277 277 277 277 277 277 277 277 276
300 299 298 297 296 296 296 294 291 288 287 286 286 285 285 286 285 286 286 286 285 285 285 285 284 284 284 283 282 281 280 279 279 278 277 277 276 277 276 276 277 275 275
297 297 297 296 296 294 293 291 289 287 286 286 285 285 285 285 285 285 285 285 285 285 284 284 284 284 283 282 282 281 280 280 279 278 277 276 276 276 276 276 275 275 275
295 295 294 294 293 291 290 289 287 286 286 285 285 285 285 285 285 285 285 285 285 284 284 284 284 283 283 283 282 281 281 281 279 278 277 276 277 276 276 276 275 275 274
293 292 293 292 290 289 289 287 286 285 285 284 284 284 284 285 285 285 285 285 285 284 284 283 283 283 282 282 281 280 281 281 280 280 279 278 277 277 276 276 275 274 273
291 291 290 290 289 288 287 286 285 285 284 284 284 284 284 284 284 284 284 289 283 283 283 283 283 282 282 281 280 279 279 279 279 278 278 277 276 277 277 276 274 274 273
289 289 288 289 287 287 286 285 284 284 283 284 284 284 284 284 284 284 290 288 282 283 283 282 282 282 282 280 279 279 279 279 278 278 278 278 279 279 277 276 275 271 269
288 288 287 287 287 286 286 285 284 284 284 284 284 284 286 284 284 285 290 283 283 283 283 283 282 282 282 280 279 279 278 278 278 278 278 277 277 277 276 275 272 270 268
288 288 287 287 287 286 285 284 284 284 284 284 285 287 284 284 284 286 287 283 283 283 283 283 282 282 281 280 280 280 279 279 279 278 278 277 276 275 274 273 271 269 268
288 287 286 286 286 286 286 285 285 284 285 287 286 284 285 283 283 287 286 283 283 283 282 282 282 281 281 280 280 279 280 280 280 279 278 277 276 275 273 272 270 269 268
287 286 286 286 286 285 284 284 286 288 287 285 284 283 282 283 286 288 283 282 283 283 283 283 282 281 280 279 280 280 280 280 279 278 277 277 276 274 272 271 269 268 267
287 286 286 286 286 286 286 288 289 285 284 283 282 282 284 286 286 284 282 281 281 281 282 282 281 280 280 279 279 278 278 278 277 276 276 275 274 273 272 270 269 267 265
289 289 288 288 287 287 287 287 287 287 287 285 284 284 283 282 283 282 282 281 281 280 279 279 279 278 277 277 276 276 276 275 274 274 273 272 272 271 270 269 267 266 264
290 289 289 288 287 287 286 283 283 284 282 282 282 282 281 281 281 281 280 279 279 278 277 276 277 276 275 274 273 272 272 271 271 271 270 269 269 269 268 267 266 265 262
287 286 285 285 284 283 282 281 279 279 280 280 280 280 280 280 278 278 278 278 278 279 278 276 274 273 271 271 270 270 269 269 268 268 268 267 267 267 266 265 265 263 262
285 285 284 284 283 282 281 281 281 279 278 278 279 279 279 278 278 277 276 277 277 276 275 273 271 270 268 267 266 266 266 265 265 265 265 265 265 265 264 264 263 261 261
283 282 282 282 282 282 281 280 280 279 278 277 276 276 275 275 273 273 276 275 274 272 271 269 268 267 266 265 264 264 264 264 264 264 264 263 263 263 262 262 261 260 260
281 280 280 280 279 279 278 278 277 277 276 275 274 273 272 272 272 272 272 271 269 268 267 266 265 265 264 263 263 263 263 263 263 262 262 262 261 261 261 261 260 260 260
278 278 278 277 277 276 276 276 275 274 273 272 271 271 270 271 271 269 267 266 265 265 264 264 264 264 263 263 262 262 262 262 261 261 261 261 261 260 260 260 259 259 259
276 276 275 275 274 273 273 272 272 272 271 270 269 268 267 267 266 265 264 264 264 264 263 263 263 263 262 262 261 261 261 261 261 260 260 260 260 259 259 259 259 259 259
273 273 272 271 271 270 270 269 269 269 268 267 266 265 264 264 264 264 263 263 263 263 262 262 262 262 261 261 261 261 260 261 261 260 260 259 259 259 259 259 259 259 258
271 271 270 269 269 268 267 266 266 265 265 264 264 264 263 263 263 262 262 262 262 262 262 262 261 261 261 261 261 260 260 261 260 260 259 259 259 259 259 259 259 258 258
267 267 267 266 266 265 265 264 264 264 263 263 263 263 262 262 262 262 262 261 261 261 261 261 260 260 260 260 260 260 260 260 259 259 259 258 258 258 258 258 258 258 257
265 265 265 265 265 264 264 264 263 263 263 263 262 262 262 262 262 261 261 261 261 261 261 261 261 261 261 261 261 260 260 260 260 260 259 259 259 259 259 259 259 259 258

GFSGL_925_thetae_051.txt.gz
Theta_e
304 305 305 307 307 306 305 305 305 305 304 299 294 290 289 289 288 289 289 289 288 287 286 286 286 285 285 284 284 283 283 282 281 281 281 281 281 280 280 280 280 280 279
304 304 304 306 305 303 302 303 303 303 301 296 291 289 288 288 288 288 288 288 287 287 286 285 285 285 285 284 284 283 282 281 280 279 280 280 280 280 279 280 279 279 278
303 302 302 303 302 302 301 301 301 301 299 292 289 288 287 287 287 287 288 287 287 287 286 286 286 286 285 284 284 283 283 281 280 279 278 279 279 279 279 279 279 278 277
301 301 300 300 300 300 300 299 299 299 297 292 288 287 287 286 286 286 286 286 286 286 286 286 287 286 286 285 284 284 283 281 280 278 277 277 278 279 278 278 278 277 276
299 299 299 299 298 297 297 296 295 294 294 291 287 286 286 286 286 286 286 286 285 285 285 286 286 285 284 284 284 284 282 281 280 278 277 277 277 278 278 277 277 277 276
297 297 296 296 296 295 294 292 291 290 288 287 286 286 285 285 285 285 285 285 285 285 285 289 284 284 284 284 283 283 282 281 280 278 278 278 278 278 278 277 276 276 277
295 295 295 295 293 292 291 290 289 288 287 285 285 285 284 284 284 285 285 285 284 285 288 290 283 283 284 283 282 282 281 282 281 281 280 279 279 278 277 277 276 276 275
293 293 293 293 292 291 290 289 287 286 285 284 283 283 283 284 284 284 285 284 284 284 291 290 283 283 283 283 282 281 280 280 281 281 281 280 279 277 277 277 276 275 274
291 291 291 291 290 289 287 287 286 284 283 283 282 283 283 284 283 284 284 283 283 287 290 289 283 282 282 282 281 280 280 280 280 279 279 278 278 279 280 278 275 274 274
290 290 290 290 289 288 287 286 285 284 282 282 282 283 284 284 283 283 284 287 286 288 289 289 282 282 282 281 280 280 280 280 280 280 279 278 278 278 278 278 277 275 271
289 289 289 288 288 288 286 285 284 282 282 283 283 283 284 284 282 284 287 285 286 288 288 286 283 283 282 282 281 281 281 281 280 279 279 279 278 278 277 276 275 274 271
288 288 287 287 287 286 285 283 283 283 284 284 283 282 282 284 289 289 286 285 286 287 286 283 283 283 282 282 282 282 282 281 281 280 279 279 278 277 277 275 274 273 271
287 286 285 285 285 285 284 283 283 284 283 283 283 285 288 289 288 287 286 284 286 286 284 283 283 283 282 281 281 281 281 280 280 279 279 278 277 276 275 273 272 270 269
285 285 285 285 285 285 285 285 287 285 285 286 287 286 285 286 286 285 285 282 285 284 284 284 283 282 281 280 280 279 279 279 278 277 276 275 274 273 272 271 269 269 267
286 286 285 285 285 285 285 285 286 286 287 286 286 285 284 284 287 286 285 286 285 282 282 281 281 280 279 279 278 277 275 275 274 273 273 272 271 270 269 268 268 266 265
288 287 287 287 286 286 286 285 286 287 287 286 285 286 286 285 285 283 282 281 280 280 278 278 278 277 276 275 274 274 273 272 271 270 270 269 268 268 267 266 265 265 263
289 287 287 286 286 285 284 284 282 282 281 280 281 281 281 281 280 280 280 279 279 278 277 276 276 275 274 273 272 271 270 269 268 267 266 266 265 265 264 264 264 263 262
285 284 285 285 285 284 283 282 282 280 280 280 280 279 279 279 279 279 279 277 277 278 276 275 273 272 271 270 269 267 266 266 265 265 264 264 264 263 262 262 262 261 261
283 283 283 282 281 281 280 280 280 279 279 278 278 279 279 278 277 277 276 276 276 275 274 272 271 269 268 267 266 265 265 264 264 263 263 263 263 262 262 261 261 260 260
280 280 280 280 280 280 279 279 278 278 277 277 276 276 275 274 274 274 274 273 273 272 270 269 268 267 266 265 264 264 263 263 263 262 262 262 262 261 261 261 260 259 259
279 278 278 277 277 277 277 277 276 276 275 273 273 273 272 272 271 271 270 269 268 267 267 266 266 265 264 263 263 263 263 262 262 262 261 261 261 260 260 260 259 259 258
278 277 276 276 275 274 274 273 273 273 272 271 270 270 268 269 269 267 266 266 265 265 265 264 264 263 263 263 262 262 262 262 262 261 261 261 260 260 259 259 259 258 258
276 275 275 274 274 273 272 272 272 271 270 270 269 269 268 266 266 265 264 264 264 263 263 263 263 263 262 262 262 261 261 262 261 260 261 260 260 260 259 259 258 258 258
272 273 272 272 272 271 271 271 270 269 268 267 266 266 265 265 265 264 264 263 263 263 262 262 262 262 262 262 261 261 261 261 260 260 260 260 260 260 259 258 258 258 258
268 269 268 268 268 267 267 266 266 265 265 265 264 264 263 263 263 263 263 263 262 262 262 261 261 261 261 261 261 261 260 260 259 259 259 259 259 259 258 258 257 257 257
265 265 265 264 264 264 264 264 264 263 263 263 263 263 263 263 262 262 262 262 262 262 262 262 261 261 261 261 261 261 261 261 260 260 260 259 259 259 259 259 259 258 258

GFSGL_925_thetae_054.txt.gz
Theta_e
304 304 305 305 304 305 306 309 308 308 308 308 307 308 308 302 293 295 295 293 289 289 288 288 287 287 286 285 285 285 285 285 286 283 282 282 282 281 281 281 282 281 280
303 303 303 303 303 302 304 307 308 307 306 306 305 303 302 296 292 289 289 289 288 288 287 287 286 286 285 285 285 284 284 284 284 284 282 281 281 281 282 281 280 280 280
303 302 302 302 302 301 302 305 304 304 303 301 300 299 297 292 289 288 288 288 288 288 288 287 286 285 285 287 285 284 284 283 283 282 282 281 281 281 281 280 280 280 279
302 301 301 300 300 300 299 302 303 302 301 300 298 296 294 290 288 287 287 287 287 287 287 286 286 286 291 288 284 284 283 282 282 281 281 281 280 280 279 280 281 281 280
300 300 300 299 299 299 297 299 300 300 299 298 295 291 289 288 287 287 287 287 286 286 286 285 285 290 290 286 284 284 283 282 281 281 281 281 281 281 280 281 280 280 280
300 299 299 298 296 296 296 297 297 296 295 293 292 291 288 287 286 287 286 286 286 285 285 284 286 291 289 284 284 283 283 283 282 282 282 281 281 281 280 280 280 279 280
298 298 297 296 295 295 294 294 294 293 291 291 289 288 286 285 285 285 285 285 285 285 284 284 289 292 288 283 283 283 283 282 282 282 280 281 281 281 280 280 279 279 279
296 296 295 294 293 293 292 291 290 289 289 288 286 286 284 283 284 284 285 285 284 284 284 285 290 291 289 285 282 282 282 282 282 282 282 282 281 281 280 279 278 278 278
294 294 293 293 292 291 290 289 288 288 286 285 285 284 283 283 285 284 285 284 283 283 283 288 289 290 289 286 282 281 281 281 281 280 280 280 280 280 280 280 279 277 278
292 292 292 291 291 290 289 288 287 286 285 284 283 282 282 282 283 284 284 283 283 283 282 287 289 289 289 286 281 281 281 281 281 281 280 280 280 279 279 279 279 278 278
291 290 290 289 289 288 287 286 285 284 284 282 282 282 283 283 285 284 284 284 283 283 286 289 289 288 288 287 281 281 281 281 280 280 280 280 279 280 279 279 278 277 276
289 288 287 287 287 286 286 284 284 283 283 282 282 282 283 283 284 285 285 284 284 288 289 289 288 287 287 285 283 282 282 283 282 282 280 280 279 277 277 276 276 275 274
287 286 286 286 286 285 285 284 283 283 283 283 283 282 282 283 284 284 285 285 287 287 288 286 286 286 285 283 283 283 283 282 282 281 281 280 277 276 275 273 272 271 272
285 285 285 285 284 284 284 284 284 284 284 284 284 285 284 284 283 283 285 286 286 286 286 286 285 284 283 283 282 282 282 281 280 279 278 276 275 273 273 272 271 271 270
286 285 285 284 285 284 285 285 285 286 286 286 286 286 286 284 285 286 287 285 285 285 285 284 284 282 282 281 280 279 278 278 277 276 274 274 273 272 272 271 270 269 268
286 286 286 286 285 284 284 284 285 286 286 286 286 286 286 286 286 286 286 286 285 283 282 280 280 280 280 279 277 276 274 274 273 272 271 271 271 270 269 268 268 267 267
288 287 287 287 286 285 285 284 283 283 282 284 283 283 284 284 283 282 282 282 280 280 279 278 279 278 277 275 273 272 272 271 271 268 268 268 267 267 266 266 266 265 265
288 287 287 286 286 285 285 284 283 284 282 281 280 280 280 280 280 281 281 280 279 278 276 275 274 273 272 272 271 271 269 267 266 266 265 265 264 264 264 264 264 263 263
284 283 283 283 283 282 282 281 281 280 280 278 279 280 279 278 279 279 278 278 276 275 275 274 273 272 272 271 269 267 266 265 264 264 263 263 263 262 263 263 262 262 261
282 282 282 282 281 280 280 279 279 278 277 277 278 277 277 277 277 277 276 275 274 273 272 272 271 270 268 266 265 265 264 264 263 263 262 262 261 261 262 261 261 261 262
280 280 280 280 279 279 279 278 278 276 275 274 275 275 275 275 274 273 273 272 272 271 270 268 267 266 265 265 264 264 264 263 263 263 262 261 261 260 260 260 260 260 260
277 277 277 276 276 276 275 275 275 275 274 273 273 273 270 272 272 271 271 270 268 267 266 266 266 265 264 264 264 263 263 263 262 262 261 261 261 260 259 259 259 259 259
275 274 274 274 274 273 273 273 272 272 271 270 269 270 269 269 269 268 266 266 265 265 265 265 264 264 264 263 263 263 263 262 262 261 261 261 260 259 258 259 259 258 258
271 271 270 270 270 270 269 269 269 269 268 268 268 267 266 266 265 264 264 264 264 264 264 264 264 263 263 263 263 262 262 262 261 261 260 260 260 259 259 258 258 257 257
268 267 267 266 266 266 265 265 265 265 265 264 264 264 264 264 264 264 263 263 263 263 263 262 262 262 262 262 262 261 261 260 260 260 259 259 259 259 258 258 257 257 257
266 266 265 265 265 264 264 264 264 264 264 263 263 263 263 263 263 263 263 262 262 262 262 262 262 262 262 262 262 262 261 261 261 260 260 259 259 259 258 258 258 258 258

GFSGL_925_thetae_057.txt.gz
Theta_e
308 308 308 308 309 310 309 309 308 308 309 309 310 309 310 310 308 306 301 298 297 296 296 296 292 289 287 287 287 287 287 288 288 284 284 284 283 282 282 282 282 282 282
308 307 306 307 308 308 307 307 307 306 307 308 307 306 305 306 302 301 298 297 295 295 295 292 288 287 287 286 286 287 286 286 286 286 283 283 282 282 282 282 282 282 283
307 306 306 306 306 307 306 306 305 303 305 306 304 304 303 304 303 296 296 296 295 295 293 289 288 287 286 286 286 286 285 285 285 285 284 283 282 282 282 282 282 282 282
306 305 305 305 305 305 305 304 302 301 303 305 304 303 302 301 302 296 292 291 292 291 289 287 287 287 287 286 289 286 285 285 284 283 283 282 282 282 282 281 282 282 282
305 305 304 304 303 304 303 302 301 300 302 305 303 299 297 297 298 295 291 288 288 287 286 286 286 286 286 292 290 287 284 286 283 282 282 282 282 282 282 282 281 281 281
304 304 303 303 302 302 302 300 299 298 299 301 299 297 296 294 294 292 289 287 286 286 285 285 285 285 291 290 288 287 287 286 283 283 283 282 283 282 282 281 281 281 281
303 303 302 301 301 300 299 298 296 296 297 296 295 294 293 291 290 287 286 286 285 285 285 285 284 289 291 289 287 286 285 283 283 283 283 283 282 282 282 281 281 281 280
301 300 299 299 298 297 296 295 294 293 293 293 292 290 289 288 285 286 284 285 284 284 284 284 284 289 291 291 289 287 285 283 283 283 284 284 282 282 282 282 281 280 279
297 296 296 296 295 294 293 292 291 291 290 290 289 288 287 286 285 286 283 283 284 284 284 284 284 289 290 291 290 287 284 281 282 282 283 282 283 283 282 281 280 280 280
294 294 293 293 293 292 292 291 290 289 288 287 286 285 285 285 284 286 283 284 284 285 284 283 284 289 289 291 289 287 284 283 282 282 281 281 281 280 280 281 280 280 280
291 291 291 290 291 290 289 289 288 286 286 285 284 284 284 284 285 285 285 285 286 284 283 282 284 287 289 290 288 288 287 284 282 281 281 281 281 281 280 280 279 278 278
289 289 288 288 288 288 287 286 286 285 284 283 283 282 282 283 284 285 285 286 285 285 283 283 284 285 288 289 287 286 284 283 282 281 281 281 281 280 279 278 277 276 275
287 286 286 286 286 286 285 285 284 284 283 282 282 282 282 282 284 285 286 285 286 285 285 285 285 286 289 288 286 285 284 283 283 283 283 282 281 279 277 276 274 273 272
285 285 285 285 285 285 285 285 285 285 285 284 284 284 283 282 283 284 286 286 286 286 286 286 287 287 287 286 284 283 284 283 283 282 281 280 278 277 275 273 272 271 271
286 286 285 285 285 285 285 285 286 286 286 286 286 286 285 284 284 285 285 285 285 286 287 286 286 285 284 283 282 282 281 280 280 279 278 276 275 274 273 272 271 270 269
287 287 286 285 285 285 284 285 286 286 286 287 287 287 287 286 286 286 286 284 284 285 285 284 283 283 282 281 280 279 278 277 276 276 275 274 272 271 270 269 268 268 268
288 287 286 286 285 285 285 285 283 283 283 284 285 285 285 285 285 285 285 284 284 283 282 281 281 281 281 280 278 277 275 274 273 273 272 270 269 268 267 267 266 266 266
289 288 287 286 285 285 285 285 284 284 283 281 281 281 281 281 281 282 282 281 280 280 280 278 278 278 277 276 274 273 272 271 271 269 268 267 267 266 265 265 265 265 264
285 284 284 284 284 284 284 284 284 283 281 279 279 279 279 280 280 280 280 279 277 276 276 275 274 273 272 271 271 271 270 269 267 266 266 265 265 264 264 264 263 263 262
281 280 281 281 280 280 280 280 280 280 280 280 280 277 278 278 278 278 278 277 276 274 273 273 273 272 271 271 270 269 267 266 265 265 264 263 263 263 263 262 262 262 262
278 278 278 279 278 278 278 278 278 278 278 278 276 276 276 276 275 275 274 274 273 273 272 272 272 271 269 268 267 266 265 265 264 263 263 262 262 262 262 261 261 261 261
276 276 276 275 275 275 274 274 274 275 274 274 273 273 272 273 272 271 270 270 270 269 269 267 267 266 266 266 265 265 264 264 263 263 262 262 261 261 261 260 260 260 260
274 273 272 272 271 271 271 271 271 271 270 270 270 269 269 269 269 268 268 268 267 266 266 266 265 265 265 264 264 264 263 263 263 262 262 261 261 261 260 260 259 259 259
272 272 271 270 271 271 270 270 269 269 269 269 268 268 268 268 267 266 266 265 265 265 265 265 265 264 264 264 263 263 263 262 262 262 262 261 261 260 260 259 259 259 258
268 268 268 268 268 267 267 266 266 266 266 265 265 265 265 265 264 264 264 264 264 264 264 264 264 264 263 263 262 262 262 261 261 261 260 260 260 259 259 258 258 258 258
267 267 267 266 266 265 265 265 265 264 264 264 264 264 264 263 263 263 263 263 263 263 263 262 263 263 262 262 262 262 262 262 261 261 261 260 259 259 259 258 258 258 258

GFSGL_925_thetae_060.txt.gz
Theta_e
309 309 309 310 311 311 311 312 312 312 313 313 312 312 313 312 311 310 307 309 308 306 302 301 300 298 295 293 290 290 290 289 286 285 286 285 285 284 283 283 283 283 283
309 309 309 309 308 309 310 310 311 310 311 311 310 310 311 311 311 308 305 306 306 304 302 300 297 294 294 289 288 289 289 289 288 284 284 284 284 283 283 283 283 283 283
308 308 308 308 307 307 308 309 309 308 308 308 308 308 308 308 307 306 305 305 304 303 302 299 296 295 290 287 286 287 287 287 287 286 283 283 283 283 283 282 283 283 283
308 307 307 307 307 306 307 307 307 307 306 305 305 306 306 306 305 303 302 301 300 298 296 294 294 293 289 286 286 286 286 286 286 286 285 284 284 283 282 282 282 283 283
308 307 307 307 306 306 306 306 306 306 305 304 303 302 302 302 302 301 299 297 296 294 293 292 291 289 287 286 286 286 286 287 286 286 285 284 283 282 283 283 282 282 282
307 306 306 306 305 305 304 304 304 304 302 301 300 300 300 299 300 298 296 294 292 291 291 288 288 287 286 286 288 287 289 289 288 287 285 283 283 283 285 283 282 281 281
306 305 305 305 304 303 303 302 302 302 300 298 297 297 296 296 296 294 291 292 290 288 288 287 286 285 285 288 287 288 288 288 289 288 286 285 283 286 285 282 282 281 281
304 303 303 302 302 301 301 300 300 298 297 296 295 294 293 293 290 289 287 287 287 286 286 287 287 284 288 290 288 288 287 290 287 286 285 284 283 285 282 282 282 282 281
299 299 299 298 298 298 298 297 296 294 293 293 292 291 290 289 287 287 286 284 284 284 285 285 285 286 290 289 289 289 290 287 287 286 284 283 284 284 283 283 282 281 279
296 295 295 295 295 295 294 293 292 292 291 290 289 288 288 287 286 287 285 284 283 284 284 284 284 287 290 290 290 290 287 289 288 285 283 283 284 283 283 282 282 281 280
292 293 292 292 292 292 291 291 290 289 288 287 286 286 286 286 286 287 284 284 284 283 283 283 283 287 289 289 289 290 290 289 287 285 283 283 282 281 281 281 280 279 278
289 289 289 289 289 289 289 288 287 286 285 284 283 283 283 283 284 287 285 284 284 284 284 284 284 285 287 288 288 288 289 286 284 283 282 281 281 281 281 280 279 278 277
287 287 286 287 287 286 286 285 284 284 283 283 282 282 283 284 284 286 286 285 285 285 285 285 286 285 285 286 286 287 287 285 284 283 282 282 282 281 280 278 277 275 274
286 285 285 285 285 285 285 285 284 284 283 283 283 283 283 283 284 285 285 286 285 285 285 285 285 285 285 286 286 286 285 285 284 283 283 282 281 279 277 276 274 272 271
285 284 285 285 285 285 285 285 285 286 286 285 285 285 283 283 284 284 285 286 286 286 285 285 285 285 285 285 285 284 283 283 283 282 281 280 278 276 274 273 272 270 270
286 285 285 285 285 285 285 286 286 286 287 287 286 286 286 287 286 286 285 285 285 286 286 285 285 285 285 284 284 283 282 281 280 279 278 277 275 274 272 271 270 268 268
286 286 285 284 284 283 284 284 283 283 283 284 285 286 286 286 286 285 285 285 285 285 285 284 283 283 283 282 281 281 279 278 277 276 275 274 273 272 270 268 267 267 266
287 286 286 285 285 285 285 284 283 282 280 281 282 282 282 282 283 283 284 284 284 283 282 281 280 280 280 280 279 278 276 275 274 273 272 271 270 269 267 266 266 265 265
286 286 285 285 285 285 285 285 283 282 279 279 280 280 280 281 281 281 281 281 280 279 279 279 278 277 276 276 276 275 274 273 272 271 270 268 267 266 265 265 264 264 264
281 282 283 282 282 282 282 282 281 280 279 279 277 276 277 278 278 278 277 277 276 275 275 275 274 274 273 273 273 272 271 271 270 268 267 266 265 265 264 264 263 263 262
279 279 279 279 279 278 278 278 278 278 277 275 274 275 274 275 274 274 273 273 273 272 272 272 271 271 271 271 270 269 268 267 266 266 265 265 264 264 263 263 262 262 262
276 276 276 275 275 275 275 275 275 274 273 273 272 272 272 273 272 272 271 271 270 270 270 269 269 268 267 267 266 266 266 265 265 265 264 264 263 263 262 262 261 261 261
275 275 274 273 273 273 273 273 273 272 271 271 271 271 271 271 270 270 269 269 268 267 267 266 266 266 265 265 265 265 264 264 264 263 263 263 262 262 262 261 261 260 260
274 273 272 272 272 271 270 269 269 269 269 269 269 268 268 267 267 266 266 266 266 266 266 265 265 265 264 264 264 263 263 263 263 263 262 262 262 261 260 260 260 260 259
270 270 269 268 267 267 267 266 266 266 266 266 265 265 265 265 265 265 265 265 265 265 264 264 264 264 263 263 263 263 262 262 262 261 261 261 260 260 260 260 259 259 259
268 267 266 266 266 266 266 266 265 265 265 265 265 265 265 265 264 264 264 264 264 263 263 263 263 263 263 262 262 262 262 262 261 261 260 260 260 259 259 259 258 258 258

GFSGL_925_thetae_063.txt.gz
Theta_e
310 310 310 311 311 311 312 312 313 313 313 313 313 312 312 310 310 310 310 310 310 308 307 304 305 305 304 302 300 293 292 292 287 285 286 286 286 285 285 284 283 283 282
310 310 310 310 310 310 310 311 312 311 312 312 312 312 312 311 309 309 308 308 308 306 306 305 304 304 301 299 297 295 295 288 290 285 286 285 285 285 285 284 283 282 283
310 310 310 310 309 309 309 309 309 310 311 311 311 312 311 311 310 310 307 307 307 306 305 305 304 302 298 295 295 294 290 290 289 288 284 285 284 285 284 283 282 283 283
310 309 309 310 309 308 308 308 307 308 309 309 309 309 309 309 308 308 306 304 304 304 304 304 303 303 297 294 293 291 289 289 288 285 284 284 283 283 283 282 282 283 283
309 309 309 309 308 307 307 307 306 307 307 307 307 307 306 305 305 304 303 302 301 300 300 300 299 298 297 296 293 290 289 288 285 284 283 283 282 283 283 284 283 284 283
309 309 308 308 307 306 306 306 305 305 306 306 305 305 304 302 302 302 300 299 298 296 296 294 293 293 293 293 291 289 289 287 285 284 285 285 287 285 285 284 286 283 281
306 306 306 305 305 305 305 304 304 304 304 304 303 301 300 299 298 297 296 295 294 293 292 292 291 290 290 287 287 288 288 285 289 291 289 289 286 288 284 286 286 282 282
302 303 303 303 303 303 303 303 302 301 301 300 299 298 296 296 293 293 291 291 291 290 290 290 289 288 287 288 287 285 285 286 290 292 291 290 289 285 284 285 285 282 282
299 299 299 299 300 300 300 300 299 298 297 296 296 294 293 292 291 290 289 289 287 287 287 287 286 286 286 287 285 285 286 289 290 290 291 288 286 283 283 285 281 282 281
296 296 296 296 296 296 296 296 295 295 294 293 291 290 290 288 288 288 287 286 284 284 284 284 285 287 286 285 286 287 288 288 288 289 286 285 284 284 284 283 283 282 281
293 292 293 293 293 293 293 292 292 291 290 289 287 287 286 286 286 288 286 284 284 283 283 284 284 285 286 287 288 289 289 290 289 287 286 285 284 283 283 283 282 281 280
290 290 290 290 291 291 291 289 289 288 287 285 285 284 284 284 286 287 286 285 284 284 283 284 284 286 287 287 289 288 288 288 288 287 285 284 283 282 282 282 281 280 279
289 288 288 288 288 288 288 286 286 285 285 283 283 283 284 284 285 287 286 285 285 284 284 284 285 286 287 287 288 287 287 287 286 285 284 283 283 282 282 280 279 278 277
287 286 286 286 286 286 285 285 285 284 284 283 283 283 283 284 285 286 286 286 285 284 284 284 284 285 286 286 286 286 286 286 286 285 284 283 282 281 280 279 277 275 274
285 285 285 285 285 285 284 284 284 284 285 285 284 284 283 283 284 285 285 285 285 285 285 285 285 285 285 285 285 285 285 285 284 284 283 282 280 278 277 276 275 273 272
285 285 285 285 285 286 286 287 287 287 287 286 286 286 286 285 285 285 285 286 286 286 285 285 285 285 285 284 284 285 284 283 283 282 281 280 278 276 275 273 272 271 270
285 285 285 285 285 285 285 284 284 284 285 286 286 286 286 286 286 285 285 285 286 286 286 285 285 285 284 284 284 283 282 281 280 279 278 277 276 274 273 271 270 269 267
286 285 284 284 284 284 284 283 282 281 281 282 283 283 284 284 284 285 285 285 285 285 284 283 282 281 281 281 281 281 280 279 277 276 275 274 273 272 271 270 268 267 266
285 285 285 284 284 284 284 283 281 280 279 280 281 281 280 282 282 282 283 282 280 279 278 279 278 277 277 277 277 276 276 275 274 273 273 272 271 270 269 267 266 266 265
284 285 285 285 284 284 283 282 280 279 277 276 276 277 278 279 278 277 277 277 277 276 276 275 275 275 274 274 273 273 272 272 271 271 270 269 268 267 266 265 265 264 264
283 283 283 282 281 281 280 279 279 278 276 275 275 275 276 277 274 274 274 274 274 274 274 273 273 273 272 272 271 271 271 270 269 268 267 266 265 265 264 264 263 263 263
280 279 279 278 278 278 277 277 277 275 274 273 272 271 272 273 272 272 271 271 271 271 270 270 269 268 268 267 267 267 266 266 266 265 265 264 264 264 263 263 262 262 262
277 276 275 275 275 274 274 273 273 272 272 271 271 270 270 270 270 270 269 268 267 267 266 266 266 266 266 265 265 265 265 264 264 263 263 263 263 263 262 262 262 261 261
275 274 273 272 272 271 271 271 271 270 270 269 268 268 268 267 267 267 266 266 266 266 265 265 264 264 264 264 264 264 263 263 263 262 262 262 262 262 261 261 261 261 260
272 271 270 270 269 268 267 267 267 267 267 267 267 267 266 266 266 265 265 265 265 264 264 264 264 263 263 263 263 263 262 262 262 262 261 261 261 261 261 260 260 260 259
268 268 268 268 267 268 267 267 266 266 266 265 265 265 264 264 264 264 264 264 263 263 263 263 263 262 262 262 262 262 262 262 262 261 261 260 260 260 260 259 259 259 259

GFSGL_925_thetae_066.txt.gz
Theta_e
312 311 310 311 311 311 311 312 312 312 313 313 313 312 312 312 311 309 309 309 309 308 307 307 306 305 303 302 300 298 298 297 296 288 287 287 288 290 287 286 285 284 283
312 311 311 310 310 310 310 310 310 310 311 311 312 311 312 312 311 308 308 308 307 307 306 306 306 305 303 302 300 298 296 294 293 287 287 287 286 285 286 286 285 284 283
310 310 310 310 310 310 310 309 309 309 309 310 310 310 311 311 310 309 308 307 307 307 307 306 305 303 302 300 300 297 294 292 291 291 285 285 287 288 284 284 285 284 283
309 309 309 310 310 310 309 308 308 308 308 308 308 309 310 310 310 310 308 306 306 305 305 304 304 303 302 301 298 295 292 291 292 289 289 289 286 284 283 284 283 283 283
308 308 308 308 308 307 307 307 306 307 307 307 307 308 308 308 308 307 306 305 304 303 302 302 302 302 301 300 297 293 291 290 288 288 286 283 283 282 283 284 283 283 284
305 305 305 305 305 305 306 306 305 305 305 305 306 306 306 306 306 305 304 302 301 300 299 299 298 297 297 296 295 293 294 289 287 285 284 283 283 283 283 284 284 282 283
301 302 303 303 302 302 303 303 303 304 304 304 304 304 304 304 303 302 300 299 297 296 295 295 294 293 293 292 290 290 288 288 290 287 284 284 284 285 287 285 284 284 284
301 299 299 300 301 300 301 301 302 302 301 301 301 301 301 300 298 297 295 294 293 292 291 291 291 290 290 290 288 286 287 288 286 285 285 289 291 291 289 287 284 285 285
300 299 298 297 297 297 297 298 299 299 299 299 298 297 296 296 294 292 291 291 290 289 288 288 288 288 288 287 287 286 286 285 286 286 289 289 288 288 288 284 284 284 281
297 296 295 295 295 295 295 296 296 296 295 294 294 293 293 292 291 290 289 289 286 285 285 285 286 286 286 286 286 286 285 285 287 289 288 285 286 287 285 284 284 282 281
294 293 293 292 293 293 294 294 293 292 292 291 290 289 289 288 288 288 288 286 285 284 284 284 285 285 286 286 286 286 286 286 288 288 286 287 286 285 285 284 284 283 282
292 291 290 291 291 291 291 291 290 290 289 287 286 285 285 286 286 288 287 286 284 284 284 284 285 286 286 286 286 286 286 288 287 286 287 286 286 285 284 283 283 282 281
289 289 289 288 289 289 289 289 288 287 287 285 284 284 284 284 287 287 286 285 285 284 284 284 285 286 287 287 286 286 287 287 286 285 284 285 285 284 283 282 281 280 279
287 287 287 287 287 287 286 286 286 285 284 283 283 284 284 285 286 287 286 285 285 284 284 284 285 286 287 287 287 287 287 286 286 285 285 285 283 282 281 281 279 277 276
286 286 286 286 286 285 284 284 284 284 285 284 284 284 284 284 285 286 286 285 285 284 284 284 285 285 285 285 285 285 285 285 285 285 284 283 282 281 279 278 277 275 274
284 283 285 285 285 284 285 285 286 286 285 285 285 285 284 285 285 285 285 285 285 285 285 285 285 285 284 284 284 284 284 284 284 283 282 281 280 278 277 275 275 274 272
284 284 284 284 285 285 285 285 285 285 286 286 286 286 286 285 285 285 286 286 286 286 285 285 285 284 284 284 283 283 282 282 281 280 279 279 278 277 275 274 273 271 270
285 285 285 284 285 285 284 283 283 282 281 281 283 284 284 285 286 286 286 286 285 284 283 281 281 280 280 280 280 280 279 279 278 277 277 276 275 274 273 272 271 270 269
285 286 285 285 284 284 283 282 282 281 280 279 280 281 280 283 284 284 284 283 281 280 280 280 279 278 277 277 277 277 276 276 275 275 274 273 272 272 271 270 269 268 266
286 286 285 284 284 283 282 281 279 279 278 278 278 279 279 280 280 278 278 278 278 277 277 276 276 275 275 274 274 273 273 273 272 272 271 271 270 269 268 267 266 266 265
283 284 284 283 282 282 281 279 278 277 276 275 275 276 277 278 275 276 275 275 275 275 274 274 273 272 272 271 271 271 270 270 269 269 268 267 266 266 266 265 264 264 264
281 282 282 281 281 281 280 279 277 276 274 274 274 272 275 275 274 273 273 272 272 271 271 270 269 268 267 267 267 267 266 266 266 265 265 265 264 264 264 264 263 263 262
278 279 279 279 278 278 278 277 276 274 273 272 272 272 272 271 270 269 268 267 267 267 266 266 266 266 266 266 266 265 265 265 264 264 264 263 263 263 263 263 262 262 262
275 277 277 275 275 275 274 273 272 272 271 271 270 269 268 267 267 266 266 265 265 265 265 265 265 265 265 265 264 264 264 264 263 263 263 263 262 262 262 262 261 261 261
274 274 273 273 273 272 271 270 270 269 268 268 267 267 266 265 265 265 265 264 264 264 264 264 264 264 264 264 264 263 263 263 262 262 262 262 261 261 261 261 261 261 260
271 271 271 271 270 269 268 267 267 267 267 266 266 265 264 264 264 263 264 264 264 264 263 263 263 263 263 263 263 263 263 263 262 262 262 261 261 261 260 260 260 260 259

GFSGL_925_thetae_069.txt.gz
Theta_e
310 310 310 310 310 310 310 310 310 310 310 311 311 312 312 312 312 312 311 310 310 310 310 308 307 307 306 303 302 301 299 299 301 301 295 292 290 288 286 285 286 287 286
308 308 309 310 310 310 310 310 309 309 309 309 309 310 310 311 311 309 308 308 309 309 308 307 306 306 305 304 302 300 299 299 298 299 291 288 286 286 285 285 285 285 289
308 309 310 310 308 308 308 308 308 308 307 307 307 308 309 309 308 308 308 307 307 307 307 307 306 305 304 302 301 300 299 297 296 296 287 286 285 286 285 286 287 286 288
306 306 307 307 307 307 307 307 306 306 306 306 306 307 307 307 307 307 306 306 306 306 306 306 305 304 303 302 301 300 298 295 293 292 287 286 286 285 286 284 283 284 284
303 303 303 303 304 305 305 305 305 305 305 305 305 305 305 305 306 306 305 305 305 305 305 304 304 303 302 302 300 299 296 293 289 289 288 286 284 284 283 283 283 283 283
303 302 302 302 302 303 302 303 303 303 303 303 304 304 304 304 305 305 305 304 303 302 301 301 301 299 299 298 297 296 296 293 289 289 286 285 284 285 284 283 283 283 283
301 301 301 300 299 300 300 300 300 301 302 302 302 302 302 303 303 303 303 302 300 299 297 297 296 296 295 295 294 292 291 290 290 289 286 286 285 287 286 283 283 284 284
300 300 298 296 296 296 297 298 299 299 299 300 300 300 300 301 301 301 299 297 296 295 293 293 292 292 291 291 290 289 289 288 288 288 289 289 289 288 285 285 285 285 284
299 298 297 295 295 294 294 295 295 296 297 298 298 298 297 298 297 297 295 294 292 291 290 289 289 289 289 289 288 288 287 287 287 287 287 287 286 287 287 287 285 284 283
296 295 295 294 293 293 293 293 294 294 295 295 295 295 294 294 294 293 290 291 290 288 287 287 287 287 287 287 287 287 286 286 286 286 286 287 288 288 288 287 286 284 283
293 293 293 292 291 291 291 291 292 292 292 292 292 292 291 291 291 289 289 289 287 285 284 284 285 286 286 287 286 286 286 286 286 287 286 286 286 285 284 285 284 284 283
292 291 291 291 290 290 289 290 290 290 289 289 289 288 287 287 287 288 288 287 285 284 284 284 285 286 286 286 285 285 286 286 286 287 287 285 285 285 285 284 283 283 282
291 291 289 289 289 288 288 288 288 288 287 287 286 285 284 285 287 287 286 285 284 284 284 285 285 286 287 286 286 286 286 286 287 286 284 284 284 284 283 283 282 281 280
287 287 287 287 287 287 286 286 285 285 285 285 284 284 284 285 287 286 286 285 284 284 284 285 286 286 286 286 286 286 286 286 286 285 284 284 284 283 282 281 280 278 277
285 285 285 285 286 286 285 285 284 284 284 284 284 284 284 284 286 286 285 285 284 284 284 285 286 286 286 286 286 285 285 284 284 284 284 284 283 282 280 279 278 276 275
284 283 283 283 284 285 284 285 285 285 285 285 285 284 284 285 286 286 285 285 285 284 284 284 284 284 284 284 284 284 284 283 283 282 282 282 281 280 278 277 276 275 274
282 283 283 284 284 284 285 285 286 286 286 286 286 285 285 285 286 286 286 286 286 285 285 284 284 283 283 282 282 282 281 281 280 280 279 279 278 277 276 275 274 273 272
280 281 282 284 284 284 285 284 284 283 282 282 283 285 286 286 286 286 286 286 285 284 283 281 281 280 280 280 279 279 279 278 278 277 277 276 276 275 275 274 273 272 270
278 279 281 284 284 284 284 284 283 281 280 280 281 283 282 285 285 285 285 285 282 280 280 279 278 278 277 277 276 276 276 276 275 275 274 273 273 272 272 271 270 269 268
277 279 281 284 284 284 283 282 280 279 279 279 280 280 281 282 283 282 281 281 279 278 277 276 275 275 275 274 274 274 273 273 272 272 271 270 270 270 269 269 267 267 266
276 277 282 283 283 282 282 280 279 278 278 277 277 279 279 280 277 276 276 275 275 274 274 274 273 273 273 273 272 272 271 270 270 269 268 267 267 266 266 265 265 264 264
275 277 280 282 282 281 280 280 277 277 277 276 275 274 276 276 275 274 274 274 273 272 272 272 271 270 269 268 268 268 267 267 266 266 266 266 265 265 264 264 263 263 263
274 276 278 279 280 279 278 277 276 276 275 274 274 273 273 273 272 272 271 270 269 268 268 267 267 267 267 267 266 266 266 266 265 265 264 264 264 263 263 263 262 262 262
274 275 276 276 276 276 276 275 275 275 274 273 272 271 271 270 269 268 267 267 267 266 266 266 266 266 266 265 265 265 265 265 264 264 263 263 263 262 262 262 262 262 261
273 273 273 273 273 273 273 273 273 272 272 271 269 268 267 267 266 266 266 265 265 265 265 265 265 265 265 265 264 264 264 263 263 263 263 263 262 262 262 261 261 261 260
271 271 271 272 271 272 272 271 270 270 269 268 267 267 266 266 265 265 265 265 265 264 264 264 264 264 264 264 264 264 264 264 264 263 263 262 262 262 261 261 260 260 260

GFSGL_925_thetae_072.txt.gz
Theta_e
308 308 308 308 308 308 308 308 308 308 308 308 308 308 308 309 310 311 311 311 312 311 311 310 309 309 308 307 305 304 302 301 301 303 302 301 298 296 293 291 288 288 288
306 307 308 308 308 308 308 307 307 307 307 307 307 307 307 307 308 309 309 309 308 308 308 307 308 309 307 306 305 303 302 301 300 301 301 296 295 293 290 289 286 286 287
305 306 306 306 307 306 306 306 306 306 306 306 306 306 306 306 306 307 306 306 305 307 307 306 307 307 306 305 304 302 301 300 299 298 299 291 289 288 286 285 285 285 285
304 304 304 305 304 305 305 306 306 306 306 305 305 305 305 304 305 305 304 304 305 304 306 305 306 306 305 305 304 302 301 299 298 295 292 289 288 286 285 284 284 284 284
301 301 301 301 301 302 302 303 303 304 304 304 304 304 304 304 304 304 304 302 302 303 304 304 304 304 304 303 302 300 300 298 294 292 291 287 285 284 284 284 284 284 283
299 298 298 298 298 298 299 299 300 300 300 300 301 301 302 302 303 303 303 301 301 301 301 302 301 301 301 300 299 298 297 297 293 291 290 288 285 285 285 284 283 282 282
298 298 297 297 297 297 297 297 297 297 297 298 298 298 299 300 301 301 301 300 300 300 299 298 298 298 298 296 296 295 294 293 292 292 290 288 286 286 286 283 283 284 284
298 297 297 296 295 295 295 294 294 294 295 295 296 297 297 298 298 299 299 298 298 297 296 295 294 294 294 292 292 292 291 290 290 290 289 289 288 288 286 285 284 284 284
298 297 296 295 294 294 293 292 292 292 292 293 293 294 295 295 295 295 295 294 294 293 292 291 291 290 289 289 289 289 289 287 288 287 287 286 287 287 287 286 284 284 283
296 295 295 294 293 292 292 291 291 290 291 291 292 292 293 293 293 293 292 291 291 290 290 289 288 287 287 288 287 287 286 286 286 286 287 287 287 287 287 287 286 284 283
293 294 294 293 291 291 290 290 289 289 290 290 290 290 291 291 291 290 289 289 289 288 286 286 286 286 287 287 287 286 286 286 286 287 287 286 286 286 286 287 286 286 284
291 292 292 291 290 290 288 288 288 288 288 288 288 288 288 287 287 287 288 287 286 285 284 284 285 286 287 286 285 286 286 286 286 286 286 285 285 285 284 284 283 283 283
291 291 291 290 289 289 287 287 286 286 286 286 286 285 285 285 286 287 286 286 285 284 284 284 285 286 287 286 286 286 286 286 286 285 284 284 284 284 283 283 282 281 280
289 289 289 287 287 287 286 286 285 285 285 284 284 284 284 284 286 286 285 284 284 284 285 286 286 286 286 286 286 286 286 286 286 285 284 284 284 282 282 281 280 278 278
284 283 283 283 283 283 285 285 285 285 284 283 284 284 284 284 285 286 285 285 284 285 286 286 286 286 285 285 285 285 284 284 284 283 284 283 282 281 280 279 278 277 276
282 281 282 283 284 283 284 284 285 285 285 285 285 284 284 285 286 286 285 285 285 285 285 285 285 285 284 284 284 283 283 283 282 282 282 281 280 279 279 277 277 276 275
280 280 279 279 282 283 283 284 284 285 285 285 285 284 285 286 286 286 286 286 285 285 284 284 283 283 282 282 282 282 280 279 280 279 279 279 278 277 277 275 274 274 272
277 277 277 277 278 282 282 284 284 284 284 284 285 285 286 286 286 286 286 286 285 284 283 281 280 280 279 279 279 279 278 278 278 277 277 276 275 275 274 273 272 272 270
275 275 275 275 278 280 282 283 284 283 283 282 283 284 284 285 285 285 285 285 282 280 279 279 278 278 277 277 277 276 276 276 275 275 274 273 273 272 272 271 270 270 269
274 274 274 274 276 280 282 282 282 281 280 281 281 281 282 284 284 283 282 281 280 278 277 276 275 275 275 275 275 274 274 273 273 272 272 271 270 270 269 269 268 267 266
271 271 273 274 276 281 282 281 280 280 279 278 279 278 281 283 279 278 277 276 276 275 274 274 274 273 273 273 272 272 272 271 270 269 268 267 267 267 266 266 265 265 265
270 271 272 274 277 282 281 280 280 279 278 277 275 275 279 279 276 275 274 274 273 273 272 272 271 270 269 268 268 268 267 267 267 266 266 266 265 265 265 265 264 264 263
269 271 272 274 276 279 279 279 278 277 276 275 274 275 275 275 274 273 272 271 270 269 269 268 268 268 267 267 267 266 266 266 265 265 265 264 264 264 264 263 263 262 262
269 271 272 273 275 277 277 276 276 276 275 273 273 273 273 272 271 270 269 269 269 268 268 267 267 267 266 266 265 265 265 264 264 264 264 264 264 263 263 262 262 262 261
269 270 272 273 273 274 274 273 273 274 272 271 271 271 270 269 269 269 268 268 268 267 267 266 266 265 265 265 265 265 264 264 264 264 263 263 262 262 262 262 261 261 261
268 269 270 270 271 271 271 271 271 271 270 270 269 268 268 268 268 268 267 266 266 266 265 265 265 264 264 264 264 264 264 264 264 263 263 262 262 262 262 261 261 260 260

GFSGL_925_thetae_075.txt.gz
Theta_e
306 306 306 306 306 306 306 306 306 306 306 306 306 306 306 306 307 307 308 309 309 310 311 311 310 310 309 308 308 307 305 304 304 305 305 304 303 303 303 303 300 297 294
304 305 305 305 305 305 305 305 305 305 306 305 306 305 305 305 305 305 306 306 307 306 307 308 308 308 308 307 307 306 305 304 303 303 303 302 301 300 299 297 294 292 290
301 302 302 302 302 302 303 303 304 304 304 305 303 303 303 303 303 303 304 304 304 305 305 306 306 306 306 305 305 305 304 304 302 301 301 298 296 295 292 289 289 288 287
300 300 300 300 300 300 300 301 301 302 302 302 303 303 302 302 302 301 301 301 302 302 302 302 304 304 305 305 304 304 304 302 300 299 298 296 292 290 289 288 285 285 286
299 299 298 298 298 298 299 299 299 299 299 299 300 301 301 301 301 301 301 300 299 299 300 301 302 303 303 304 303 302 301 300 298 296 296 291 288 286 286 286 285 284 284
298 297 297 297 297 296 296 296 297 297 297 297 297 297 298 299 299 299 299 300 298 298 298 299 300 300 300 300 300 299 299 298 296 294 294 292 288 287 287 285 284 283 283
297 297 296 296 296 295 295 295 295 294 294 294 294 294 295 296 296 297 298 298 298 298 298 297 297 297 298 297 297 296 296 295 295 294 292 291 290 289 287 284 284 284 284
295 294 294 294 294 294 294 294 294 293 292 292 292 293 293 294 294 295 295 295 295 296 296 295 294 294 294 293 292 292 292 292 292 291 291 290 289 288 286 285 284 284 284
293 292 292 293 293 293 292 292 292 291 291 291 291 291 291 292 292 292 292 292 293 293 293 292 292 291 291 289 289 289 289 289 289 289 288 288 287 286 286 285 284 284 283
291 291 292 292 292 292 292 291 291 290 290 289 290 290 290 290 290 291 290 289 289 290 290 289 288 287 287 288 288 288 287 286 287 286 286 286 285 285 286 287 286 285 283
290 290 291 291 291 290 290 290 290 289 289 289 289 289 289 289 289 289 289 288 289 288 288 287 286 286 286 287 287 286 286 286 286 286 286 286 286 285 285 286 286 286 284
289 289 289 290 289 289 289 288 288 287 287 287 287 287 288 288 287 287 287 288 287 286 285 285 285 286 287 286 286 286 286 286 286 285 285 285 285 284 284 284 284 284 283
285 287 287 287 288 287 285 286 287 286 285 285 283 283 284 285 285 286 286 285 285 284 284 284 285 286 286 286 286 286 286 286 285 285 284 284 284 284 284 283 282 281 281
282 283 285 285 284 284 283 282 284 285 284 283 282 282 283 284 284 285 285 285 284 284 285 286 286 286 286 286 285 286 286 286 286 285 284 284 283 282 282 281 279 279 278
279 280 281 280 281 283 283 283 284 285 285 283 283 282 283 283 284 285 285 285 285 285 286 286 286 286 285 285 285 285 285 285 284 284 283 282 281 281 279 279 278 277 276
277 277 277 277 278 280 281 282 282 283 284 285 285 285 285 284 284 285 285 285 285 286 286 285 284 284 284 283 283 282 282 282 282 282 282 281 280 279 278 277 277 276 274
275 275 275 275 275 276 278 279 281 282 284 284 285 285 284 284 285 285 286 285 285 285 285 284 283 282 282 282 282 281 279 279 280 280 280 279 278 277 276 275 274 273 272
273 273 273 273 273 274 275 278 280 280 282 284 284 285 285 285 286 286 286 285 284 284 283 281 280 280 279 279 279 279 278 278 278 277 277 276 276 275 274 273 273 272 271
271 271 271 271 272 273 274 276 279 280 282 282 284 285 286 286 286 286 285 285 282 281 280 279 278 278 278 277 277 277 276 276 275 274 274 273 273 273 272 271 271 271 270
269 270 270 270 270 271 273 276 279 280 281 282 282 283 283 284 283 283 283 282 281 279 278 277 276 276 276 276 275 275 274 273 273 272 272 272 271 271 271 270 269 269 268
267 267 268 268 269 270 273 275 279 280 280 280 282 282 282 280 279 279 278 279 278 277 276 276 275 274 274 273 273 272 272 271 271 270 269 269 268 268 267 267 266 266 265
266 266 266 267 269 271 273 276 280 280 279 279 280 279 278 279 277 275 276 276 275 275 274 274 273 272 271 269 269 269 268 268 268 267 267 267 266 266 266 265 265 264 264
265 265 266 268 270 271 273 275 279 279 278 277 277 276 275 276 274 273 274 273 273 272 271 270 269 269 268 268 268 267 267 267 266 266 266 266 266 265 265 264 263 263 263
265 265 266 267 269 271 273 275 277 277 276 275 275 273 273 273 272 271 271 270 269 269 268 268 268 268 267 267 266 266 266 266 265 265 265 265 264 264 263 263 263 262 262
265 265 266 267 269 271 273 274 274 273 273 273 272 271 271 271 269 268 268 268 268 267 267 267 267 266 266 266 265 265 265 265 265 265 264 264 263 263 263 262 262 261 261
264 265 265 266 268 269 271 271 271 271 271 271 270 270 270 268 267 267 267 267 267 266 266 266 265 265 265 265 265 264 264 264 264 264 263 263 263 263 262 262 261 261 261

GFSGL_925_thetae_078.txt.gz
Theta_e
305 305 305 304 304 304 304 304 304 304 304 304 304 305 305 305 305 305 305 306 307 308 309 310 310 310 309 309 309 309 308 307 307 307 307 306 306 305 304 304 304 303 302
301 301 301 301 300 300 300 300 300 301 301 301 301 301 302 302 302 302 303 303 304 305 305 306 306 306 307 308 307 308 306 306 306 306 306 305 304 304 303 301 301 299 298
299 299 298 298 298 298 298 298 298 299 299 299 299 299 299 300 300 300 300 301 301 302 302 303 304 304 304 305 305 305 305 305 305 304 304 304 302 301 299 297 296 295 293
298 298 298 298 297 297 298 298 298 298 298 298 299 299 299 299 299 299 299 299 299 299 300 300 300 301 302 302 302 303 303 303 302 301 301 301 298 296 294 292 290 290 289
298 298 297 297 297 297 297 297 297 297 297 296 297 297 297 297 297 297 297 298 298 297 297 297 297 299 299 300 301 301 301 300 299 299 298 298 293 290 289 290 288 287 285
296 295 295 295 295 295 295 295 295 295 295 295 295 294 295 296 296 296 296 296 296 296 295 296 296 296 297 297 298 299 298 297 296 296 297 296 295 291 290 289 286 284 286
293 293 292 292 292 292 292 292 292 292 292 292 293 293 293 293 294 294 294 294 294 294 294 294 294 294 296 296 295 295 295 295 295 294 294 294 293 291 290 286 285 286 286
292 291 291 291 291 291 291 290 291 291 291 291 291 292 291 292 293 292 292 292 292 292 292 292 292 292 292 292 291 290 291 291 291 291 292 292 291 290 288 287 285 285 284
290 290 290 290 290 290 290 290 290 290 290 290 290 290 290 291 291 291 290 290 290 290 291 291 291 291 291 289 288 288 288 288 289 289 289 289 288 287 286 285 285 286 285
290 290 290 290 289 289 288 288 288 288 288 288 289 289 289 290 290 289 289 288 288 288 289 289 289 289 288 287 287 287 288 287 287 286 286 286 285 285 285 285 286 287 285
288 288 288 288 288 288 287 287 286 286 286 287 287 288 288 288 289 288 287 287 287 288 287 287 286 286 286 287 287 287 287 286 286 286 285 285 285 285 285 285 286 286 286
285 286 286 286 286 286 286 286 285 284 284 285 285 286 286 286 286 287 286 286 287 286 286 285 285 285 287 286 286 286 286 286 286 286 285 285 284 283 284 284 284 284 283
284 284 284 284 284 283 283 284 283 282 282 284 285 285 285 285 284 285 285 286 286 285 284 284 285 286 286 286 287 286 286 286 286 285 285 283 282 282 282 282 282 281 281
281 282 282 282 282 282 282 283 284 284 284 284 285 285 285 284 284 284 285 285 285 284 284 285 286 286 286 286 285 285 286 286 286 285 283 282 282 281 281 280 279 279 278
277 278 278 279 279 279 280 281 282 282 283 283 283 283 285 285 285 284 284 285 285 285 285 286 286 286 285 284 284 284 285 285 284 283 282 281 280 279 278 279 277 277 277
275 275 276 275 276 276 277 278 279 280 281 283 283 285 285 285 285 284 285 285 285 285 286 286 286 285 285 283 283 282 281 281 281 281 280 280 279 278 277 276 276 276 275
272 272 272 273 273 274 275 276 277 279 280 282 283 284 285 285 285 284 286 285 285 285 285 285 284 283 282 281 280 280 279 279 280 280 279 278 277 276 276 275 274 274 273
270 270 269 270 271 271 272 273 275 277 278 280 282 283 284 285 285 285 286 285 285 284 283 282 281 280 279 279 278 278 277 278 277 277 277 276 276 275 275 274 273 273 272
268 268 268 268 269 269 270 271 272 274 277 279 281 282 284 285 285 286 286 285 283 281 281 280 280 279 279 278 277 277 276 276 276 275 275 275 274 274 272 271 271 271 270
266 266 266 266 267 268 269 271 272 274 276 279 281 282 282 284 285 285 284 284 282 280 278 279 278 277 277 276 276 275 275 274 274 273 273 272 272 271 271 270 269 269 268
265 265 266 265 266 267 269 270 272 273 275 278 281 281 282 282 281 282 282 281 280 278 277 277 276 276 275 275 274 273 273 272 272 271 271 270 269 269 268 267 267 266 266
264 264 265 265 266 267 269 270 271 273 275 278 280 281 281 280 280 279 278 278 277 276 275 275 275 274 274 273 272 271 270 269 269 268 268 267 267 267 266 266 265 265 265
264 264 265 265 266 267 268 270 271 273 275 278 280 278 278 277 277 276 275 275 275 273 274 273 273 271 270 270 269 269 268 268 268 267 267 267 266 266 265 265 265 264 263
264 264 265 265 266 267 268 270 272 273 275 277 276 275 274 274 273 272 272 273 272 271 270 270 269 269 269 269 268 268 268 268 267 267 266 265 265 265 264 264 264 263 263
263 264 264 265 265 266 268 270 272 273 273 273 272 272 271 271 270 270 270 270 269 268 268 268 268 268 268 267 267 267 267 266 266 266 265 265 265 264 264 263 263 262 262
263 263 263 263 264 265 266 268 269 270 269 270 270 269 269 269 269 269 268 268 268 268 268 267 267 267 266 266 266 266 265 265 265 265 264 264 264 264 263 263 262 262 261

GFSGL_925_thetae_081.txt.gz
Theta_e
304 303 302 302 302 301 301 300 300 300 300 300 300 301 301 301 301 302 302 303 304 305 306 307 308 308 308 308 308 309 308 309 308 308 308 308 307 307 306 306 306 305 304
301 300 299 299 299 298 298 298 298 298 299 299 299 299 299 299 299 299 300 300 301 302 303 304 304 304 304 305 305 306 306 306 306 306 306 306 306 305 305 304 303 303 301
299 299 298 297 297 297 297 297 297 297 297 296 296 297 297 297 297 297 298 298 298 299 300 301 302 302 302 301 301 302 303 304 304 304 304 304 304 303 303 301 300 299 298
298 297 297 296 296 296 296 295 295 295 295 295 295 295 295 295 295 295 295 296 296 297 297 297 297 297 298 298 299 299 300 301 301 302 302 301 301 300 299 297 294 295 294
297 296 294 294 293 293 293 293 293 293 293 293 293 293 293 293 293 294 294 294 294 295 295 296 295 294 295 295 296 296 297 297 298 298 299 299 298 295 293 294 292 291 288
293 293 293 292 292 292 292 292 292 292 291 291 291 291 291 292 292 292 293 292 293 293 293 294 293 293 293 293 293 294 294 294 294 294 295 296 296 296 293 292 289 286 287
292 292 291 291 291 291 291 291 291 291 290 290 290 290 290 290 291 291 292 291 291 291 292 292 292 291 291 291 291 292 292 292 292 292 292 292 293 293 293 290 287 286 287
291 291 291 290 290 290 290 290 290 289 289 289 289 289 289 289 289 290 290 290 290 290 290 290 290 290 290 290 290 289 289 289 290 290 289 290 290 291 290 289 287 285 285
290 290 289 289 289 289 289 289 288 288 287 287 287 287 287 288 288 288 288 288 288 288 288 288 289 289 289 288 288 287 288 288 288 288 288 288 288 288 287 286 285 285 284
289 289 288 288 288 287 287 287 287 286 286 286 286 286 286 287 287 288 287 286 286 287 287 288 288 287 287 287 286 287 288 288 287 286 286 286 286 285 285 286 286 286 285
288 288 288 287 286 286 285 286 285 285 285 285 285 286 286 286 287 287 286 286 286 286 287 287 286 286 286 286 287 287 287 287 286 286 285 285 284 284 285 286 286 286 285
287 286 286 286 286 285 285 285 285 285 285 285 285 285 286 287 286 286 285 286 286 286 287 285 284 285 285 287 286 286 286 286 286 286 285 284 282 282 283 283 283 283 282
284 284 285 285 285 285 283 283 283 284 285 285 285 285 286 286 286 285 285 285 285 286 285 284 285 285 286 286 287 286 286 286 286 285 283 282 281 280 280 280 280 281 280
282 282 282 282 282 282 281 281 282 283 284 284 284 284 284 284 284 285 285 285 284 285 284 285 285 286 286 285 285 286 286 286 285 284 282 281 281 281 280 279 279 279 278
279 279 279 279 279 278 278 279 279 280 281 281 282 283 283 283 284 285 286 285 285 285 285 285 286 286 285 285 284 284 284 284 284 283 282 281 280 279 278 278 278 278 277
276 276 276 275 275 275 276 276 277 278 279 279 280 281 282 283 284 285 285 286 285 286 285 286 286 286 285 284 283 283 282 282 282 281 281 280 279 278 277 277 277 276 275
274 273 272 272 272 273 274 274 274 276 276 277 278 280 281 283 284 285 285 285 285 285 286 286 286 285 284 283 282 281 280 279 280 279 279 278 278 277 277 276 275 274 273
272 272 271 270 271 271 271 272 272 272 273 274 275 277 279 281 283 284 286 285 286 286 285 285 284 283 282 281 280 279 278 278 278 278 277 276 276 276 275 275 274 273 272
270 270 270 269 269 268 269 269 271 272 272 273 274 276 278 281 283 283 285 286 286 284 284 283 282 281 280 279 278 278 277 277 276 276 275 275 274 274 273 273 272 272 271
269 268 267 267 267 268 268 269 270 270 271 273 274 275 277 281 282 284 285 286 285 284 282 280 279 278 278 277 277 277 276 275 275 274 274 273 273 272 272 271 270 270 269
266 266 266 266 267 267 267 268 269 270 271 272 273 274 276 280 282 283 282 282 283 282 281 279 278 277 276 276 275 275 274 274 273 273 272 272 271 271 270 269 268 267 267
265 266 266 266 266 266 267 268 268 269 270 271 273 274 276 280 281 280 280 279 279 279 279 279 277 275 275 274 274 273 273 272 271 271 270 269 269 268 267 267 267 266 266
265 266 266 266 266 266 267 268 268 269 271 272 273 275 278 279 278 277 277 276 276 275 276 276 276 274 274 272 272 271 270 270 270 269 268 268 268 267 267 266 266 265 265
265 265 265 265 266 266 266 267 268 269 271 273 274 276 275 274 274 273 273 272 272 273 273 274 273 272 271 270 270 270 270 269 268 268 268 268 267 266 266 266 265 264 264
264 264 264 264 265 265 265 266 267 268 269 270 271 271 270 270 270 269 269 270 270 271 271 270 270 270 270 269 269 268 268 268 267 267 267 266 266 266 265 265 264 264 263
264 264 263 264 264 264 264 264 265 266 266 267 267 267 267 267 267 267 268 269 269 269 268 269 269 269 268 268 267 267 267 267 266 266 266 265 265 265 264 264 264 263 263

GFSGL_925_thetae_084.txt.gz
Theta_e
303 303 302 301 300 299 299 299 298 298 298 298 298 298 298 297 297 297 297 298 298 298 298 299 300 301 302 302 302 303 304 305 306 306 306 306 305 305 305 305 305 305 305
300 299 298 298 298 298 297 297 297 297 296 296 296 296 295 295 295 295 295 295 295 296 296 297 297 298 300 301 301 301 301 301 302 303 303 303 303 302 303 304 303 303 304
298 298 297 297 297 296 295 295 294 294 294 293 293 293 293 293 293 293 293 293 293 293 294 294 295 295 296 296 296 297 297 298 298 299 300 299 300 301 301 301 301 301 301
297 296 295 294 294 293 293 293 292 292 292 292 292 292 291 292 291 291 291 291 292 292 292 293 293 293 294 293 293 293 294 295 296 296 297 298 298 299 299 298 297 297 297
295 294 293 293 292 292 292 292 292 291 291 291 291 291 290 290 290 289 289 289 290 290 291 291 292 292 292 292 291 291 291 291 293 294 294 295 295 296 295 296 294 294 292
293 292 292 291 292 292 291 291 291 291 290 290 290 289 289 289 289 289 288 288 288 289 289 289 290 290 290 291 290 290 290 290 290 291 292 293 293 293 293 293 292 289 287
292 291 291 291 291 291 290 290 290 289 288 288 288 288 288 288 288 287 287 287 287 288 288 288 288 288 289 288 288 289 289 289 289 289 290 290 290 290 290 291 289 287 287
291 291 291 291 290 290 289 288 288 287 287 287 287 287 287 287 287 287 286 287 287 287 287 287 287 287 287 287 287 287 287 286 287 287 288 288 288 287 288 289 288 286 285
290 290 289 289 289 288 287 287 287 287 287 287 287 287 287 287 287 287 287 287 286 285 285 286 286 287 287 286 286 286 285 286 287 287 287 287 287 287 286 286 285 284 284
289 289 288 288 287 287 287 287 287 286 286 286 286 286 286 286 286 286 286 286 286 285 286 286 286 287 286 286 285 286 286 287 287 286 285 285 285 285 286 286 285 284 284
288 288 287 286 286 286 286 286 286 285 285 285 284 285 285 285 285 285 286 286 285 285 285 285 286 285 285 285 287 287 286 286 286 285 284 283 284 284 284 285 286 285 283
287 286 286 286 286 285 285 285 284 283 282 283 283 284 284 284 284 284 285 285 285 285 285 285 285 284 285 286 286 286 286 286 285 284 283 281 281 281 281 282 282 282 281
285 286 286 285 285 284 283 282 280 280 280 281 282 282 282 282 283 283 283 284 285 285 285 284 284 285 285 286 286 285 286 286 285 283 281 280 280 280 280 280 280 280 280
285 284 283 283 283 281 279 279 278 278 279 279 279 280 280 280 281 281 282 283 284 285 285 285 284 285 285 285 285 285 285 285 284 282 281 280 280 280 279 279 279 279 278
282 281 280 278 278 278 278 277 277 277 278 278 279 279 279 280 280 281 282 283 284 286 286 286 285 285 286 284 284 284 284 284 283 282 281 280 280 279 278 278 279 278 276
279 277 277 277 276 276 275 276 276 275 276 277 277 278 278 279 280 281 281 282 284 285 286 286 285 286 285 284 283 283 282 282 282 281 281 280 279 278 278 277 277 276 274
276 276 275 274 274 273 272 271 271 276 273 274 274 275 276 277 278 279 281 282 284 286 286 285 285 286 285 284 283 282 281 280 281 281 280 279 278 277 277 276 275 274 272
274 274 273 272 271 271 270 270 270 269 270 271 272 273 274 276 277 279 281 283 284 285 285 286 286 285 284 283 282 281 280 279 279 279 278 277 277 276 275 274 274 273 271
274 273 271 271 270 270 269 269 269 269 269 269 270 271 272 273 275 277 280 282 284 285 285 285 285 284 283 281 280 279 279 278 277 277 276 276 276 276 274 273 273 272 271
272 271 270 269 269 268 268 268 268 268 268 268 269 270 271 272 274 276 277 281 283 285 285 284 283 282 281 280 279 278 277 276 276 276 275 275 274 274 273 272 272 271 270
270 270 269 269 268 267 267 267 267 267 267 268 268 269 272 274 275 276 277 281 281 281 281 283 281 280 279 279 278 276 276 276 275 275 274 273 273 272 271 271 270 270 269
269 268 267 267 266 266 266 266 266 266 267 268 268 270 272 273 274 276 276 277 277 278 278 278 278 278 278 278 276 276 275 274 274 273 272 272 271 271 270 269 268 267 267
267 267 266 266 266 266 266 266 266 266 266 267 268 270 272 273 272 272 273 273 274 274 275 275 275 275 274 275 275 274 274 273 272 271 271 270 269 269 268 268 267 266 266
266 265 265 265 265 265 265 265 265 265 265 266 267 268 269 269 269 269 270 271 271 271 272 272 272 273 273 272 272 271 271 270 270 270 269 269 268 268 267 267 266 266 265
265 264 264 264 264 264 264 264 264 264 265 265 265 266 266 266 266 267 267 267 268 268 269 270 270 270 269 269 269 269 269 269 268 268 268 267 267 267 266 266 265 265 264
264 264 264 264 263 263 263 263 263 264 264 264 265 265 265 265 265 265 266 266 266 267 267 268 268 267 268 268 268 268 268 267 267 267 267 266 266 266 265 265 265 264 264

GFSGL_925_thetae_087.txt.gz
Theta_e
306 305 304 302 300 299 298 298 298 297 297 296 296 295 294 294 294 293 293 293 293 293 293 293 293 293 294 294 295 296 299 300 300 299 299 299 299 299 299 300 299 300 300
301 300 298 298 297 297 296 296 295 295 294 294 293 293 293 292 292 292 291 291 291 291 291 291 291 291 292 292 293 294 295 296 297 297 297 296 296 297 297 297 297 298 298
298 298 297 296 295 294 294 293 293 293 293 292 292 292 291 291 290 290 289 289 289 289 289 289 289 289 290 290 291 292 292 292 292 293 293 294 294 295 295 296 295 295 295
297 296 294 294 293 293 293 292 292 292 292 291 291 290 290 289 289 288 288 288 288 288 288 288 288 288 288 289 290 290 290 289 289 290 291 291 292 293 293 293 293 294 295
294 293 293 292 292 292 292 292 291 291 290 289 289 289 288 288 288 287 287 287 287 287 287 287 287 287 287 288 289 289 288 288 288 289 289 289 290 291 292 292 293 292 291
293 292 292 292 292 291 291 290 290 289 289 288 288 288 288 288 288 288 287 287 287 287 287 286 286 286 286 286 287 287 287 288 289 289 289 289 289 289 290 290 290 290 290
292 291 291 291 291 290 290 289 288 288 288 288 287 287 287 287 287 287 286 286 286 286 286 285 284 285 286 286 286 287 286 286 287 287 287 287 287 287 287 287 287 288 287
291 291 290 290 290 289 288 288 287 287 287 287 287 286 286 286 286 286 285 286 286 286 285 284 285 285 286 286 287 286 286 285 286 286 286 287 287 287 287 287 286 285 284
290 290 290 289 288 287 288 287 287 287 287 286 286 285 285 286 285 285 285 285 286 285 285 284 285 285 286 286 286 285 285 286 287 286 286 286 285 285 286 285 284 284 284
290 289 288 288 287 287 287 286 286 285 285 285 286 285 284 284 284 284 284 286 286 285 285 285 285 285 285 285 285 286 287 286 286 285 284 284 284 284 285 285 284 284 283
288 288 287 286 287 286 285 285 285 285 285 284 284 284 284 283 283 282 284 285 285 284 285 285 284 284 285 285 287 287 286 287 285 284 283 283 283 283 284 284 285 284 282
287 285 285 285 285 284 284 284 284 284 284 283 283 283 282 281 281 281 282 283 283 284 284 284 284 285 285 286 286 285 285 285 285 284 282 281 281 281 281 281 281 282 281
284 284 284 284 283 283 283 284 284 283 281 279 278 279 279 279 279 279 280 281 282 282 283 283 285 285 285 285 285 285 285 285 285 283 281 280 280 280 280 280 280 280 280
283 283 283 283 283 282 282 282 281 280 278 277 277 278 278 278 278 278 279 280 281 281 282 283 285 286 285 285 285 285 285 285 285 283 281 281 280 279 279 279 279 279 278
283 282 282 282 282 282 281 279 278 277 276 277 277 277 277 277 277 278 279 280 280 281 282 283 285 285 285 285 285 284 284 284 283 282 281 280 280 279 278 278 278 278 276
281 280 280 280 281 279 278 277 276 275 274 275 276 276 276 276 277 278 278 279 280 281 283 284 285 286 285 285 284 283 283 283 282 282 281 280 280 279 278 278 277 276 274
280 279 279 278 278 276 274 274 273 275 273 273 273 273 274 275 276 276 277 278 279 281 283 284 285 285 285 285 285 283 283 282 282 281 281 280 279 278 278 277 275 274 272
278 278 277 276 274 272 272 273 272 270 269 270 272 272 272 273 274 275 276 277 277 280 282 283 285 285 285 285 284 283 282 281 280 280 280 279 278 278 276 276 274 273 272
276 276 275 273 272 271 271 271 270 269 269 269 270 271 271 270 272 274 275 275 275 278 281 281 284 285 285 285 283 282 281 280 280 279 278 278 277 277 276 275 274 273 272
274 273 272 271 270 270 270 269 268 268 268 267 267 268 269 271 273 272 273 274 275 276 277 278 280 283 284 283 282 281 279 278 278 277 277 276 276 275 275 274 273 272 271
271 271 270 269 269 269 268 268 267 266 266 266 267 268 270 271 270 271 272 272 271 272 274 276 277 279 280 280 280 279 278 278 277 276 276 275 274 274 273 273 272 271 271
271 270 270 269 269 268 268 267 266 266 266 266 266 266 268 268 269 269 268 269 270 271 272 272 274 276 277 277 277 277 276 276 275 274 274 273 273 272 272 271 270 270 269
269 270 269 268 268 267 267 266 266 266 265 265 265 266 266 266 266 266 266 267 268 269 270 271 272 273 274 275 275 275 275 275 274 273 273 272 271 271 270 270 269 268 267
269 269 268 267 267 266 266 266 265 265 264 265 265 265 265 265 266 266 266 266 267 267 268 269 269 270 271 272 273 273 272 272 271 271 270 270 269 269 268 268 267 267 266
267 267 266 266 266 265 265 265 265 264 264 264 264 264 265 265 265 265 265 266 266 266 267 267 268 268 269 269 269 269 269 270 269 269 269 268 268 268 267 267 267 266 265
266 266 265 265 265 264 264 264 264 263 263 263 264 264 264 264 265 265 265 265 265 266 267 267 267 267 268 267 267 267 268 269 269 267 267 267 267 267 266 266 266 265 265

GFSGL_925_thetae_090.txt.gz
Theta_e
318 317 318 314 309 305 302 299 298 297 296 295 294 294 293 292 292 292 291 290 290 290 289 289 289 288 288 289 289 290 292 294 294 293 293 293 292 292 292 293 293 293 294
310 309 305 303 300 299 297 296 295 294 294 293 292 292 291 290 290 290 289 289 288 288 288 288 287 287 287 287 288 289 290 290 291 291 290 290 290 290 290 291 291 291 292
302 300 298 297 297 296 294 294 293 293 292 292 291 291 290 289 289 288 288 288 288 288 287 287 287 287 287 287 287 287 288 288 289 289 288 288 288 289 289 289 290 291 292
298 297 296 295 294 293 293 292 292 291 291 290 290 289 289 289 289 288 288 288 287 287 287 287 287 286 286 286 286 286 287 287 287 287 287 288 288 288 288 289 289 289 290
296 295 293 293 293 292 292 291 291 290 290 289 289 289 289 288 287 287 287 287 287 287 287 286 286 285 284 285 285 286 286 286 286 287 287 287 287 287 287 287 288 287 287
294 293 292 292 292 291 291 290 289 289 289 289 288 288 287 287 286 286 286 286 286 286 286 285 284 283 284 285 285 286 287 287 286 286 287 286 286 286 286 286 287 287 287
293 292 291 291 291 290 289 288 288 288 288 288 287 287 287 286 286 286 285 285 285 286 285 285 285 284 284 285 285 286 285 285 286 286 286 285 285 286 286 286 286 286 286
291 291 291 290 290 289 288 288 288 288 287 287 286 286 286 285 286 285 285 285 285 285 285 285 284 284 284 285 285 285 285 285 286 286 286 286 284 283 283 284 285 284 284
291 290 290 290 288 287 288 287 287 287 287 286 286 286 286 285 285 285 284 284 284 284 284 284 284 284 284 285 285 285 285 286 286 286 285 283 284 284 284 285 284 284 283
290 290 289 288 287 287 287 287 286 286 286 286 286 285 285 284 284 283 283 283 283 283 283 283 284 284 284 285 285 286 286 285 285 284 284 284 283 284 284 284 284 283 283
289 288 287 286 286 286 286 286 285 285 285 285 284 284 283 283 282 281 281 282 282 282 282 282 283 283 284 285 286 286 285 286 284 284 283 283 283 283 283 283 283 283 282
288 286 285 285 285 285 284 284 284 284 284 284 285 283 281 281 280 280 280 280 281 281 281 281 281 283 284 285 286 285 285 285 283 284 283 282 282 281 281 281 281 281 281
286 284 284 284 284 283 283 283 283 283 283 283 282 281 281 280 279 278 278 279 280 280 280 281 282 282 283 284 284 284 284 284 283 284 283 282 281 281 280 280 280 280 280
284 283 283 283 282 282 282 282 281 280 281 281 280 279 277 277 277 277 278 278 279 279 280 280 281 282 283 284 285 285 285 284 284 284 283 282 281 280 280 279 279 279 279
282 282 281 280 280 281 280 280 280 280 279 278 277 276 276 275 276 277 278 278 279 279 280 280 281 282 283 284 285 285 284 284 284 283 282 282 281 280 279 279 279 278 277
281 280 280 280 279 278 278 278 278 277 277 277 276 275 275 275 276 277 277 278 279 279 279 280 281 282 283 284 285 285 284 284 283 283 282 281 280 280 279 278 277 277 276
282 281 280 279 277 277 277 276 277 276 277 276 275 274 273 274 274 275 276 278 277 278 278 279 281 281 283 284 285 284 284 284 283 282 282 281 280 279 278 277 276 275 273
281 279 279 278 277 276 276 275 274 273 273 274 274 273 271 272 273 275 276 275 276 276 276 277 277 277 279 282 284 284 284 284 282 281 281 281 279 278 277 276 275 275 273
279 278 277 276 276 276 274 273 272 272 271 271 273 273 272 272 271 273 273 273 272 273 272 273 274 274 276 278 281 284 284 283 282 280 280 279 279 277 277 276 275 274 273
276 275 275 275 274 273 272 272 271 270 270 269 269 269 270 271 270 270 270 270 270 270 269 270 271 273 274 276 278 280 281 281 280 279 279 278 278 277 276 276 274 273 272
275 275 274 273 273 272 271 270 269 269 268 268 268 268 270 269 268 268 267 267 267 267 267 268 269 271 272 274 275 277 278 278 278 278 277 277 276 276 275 275 273 273 272
274 273 272 272 271 270 269 268 267 267 267 267 268 268 267 267 267 266 267 267 267 267 267 267 268 269 270 272 273 274 275 276 277 276 276 275 275 274 274 273 272 272 271
272 271 270 269 269 268 267 267 267 267 267 267 267 267 267 266 266 266 266 266 266 266 267 267 267 268 269 270 272 272 273 274 275 275 274 274 273 272 272 272 271 270 269
269 269 268 268 267 267 267 267 267 266 266 266 267 266 266 265 265 265 265 266 266 267 266 266 267 267 268 269 270 271 271 272 272 272 272 271 271 271 270 270 270 269 268
268 267 267 267 266 266 266 266 266 266 266 266 266 265 265 265 265 265 265 265 266 266 266 266 266 266 267 268 268 269 269 268 269 269 270 269 269 268 268 268 268 267 266
266 266 266 266 266 266 266 266 266 265 265 265 265 264 264 264 265 265 265 265 265 266 266 266 266 266 266 267 267 267 267 268 269 269 269 269 268 267 267 267 266 266 266

GFSGL_925_thetae_093.txt.gz
Theta_e
324 325 322 321 317 318 316 313 308 302 298 297 295 294 293 292 291 291 290 290 289 289 288 288 288 288 287 287 287 287 288 289 289 289 289 288 288 287 287 287 288 288 288
318 316 315 317 317 315 307 301 298 297 294 294 293 292 291 290 290 289 289 289 289 289 288 288 287 287 287 286 286 286 287 287 287 288 287 287 287 287 287 287 287 287 288
312 313 313 312 310 303 299 297 295 294 293 292 291 290 290 289 289 289 289 288 288 288 287 287 286 286 286 285 285 285 285 286 286 286 286 286 286 286 286 286 286 286 286
308 308 306 302 300 297 295 294 293 292 291 290 290 289 289 288 288 288 288 288 287 287 286 286 286 285 285 284 284 285 285 285 286 286 286 286 286 286 285 285 285 286 285
302 301 298 297 296 294 293 292 291 291 290 289 289 288 288 287 287 287 287 287 287 287 286 286 285 285 284 284 285 285 285 286 286 286 285 285 285 285 285 285 285 285 285
298 296 295 294 293 292 291 291 290 289 289 288 288 288 287 287 287 287 287 287 286 286 286 286 285 284 284 284 284 285 285 286 285 285 285 285 285 285 284 283 283 284 286
296 294 293 292 291 291 290 290 289 288 288 288 288 287 287 287 287 287 286 286 286 285 285 285 284 284 284 283 284 284 284 285 285 285 285 285 285 284 282 281 282 283 283
293 292 291 291 291 290 289 288 288 287 287 287 286 286 287 287 286 286 285 285 285 284 284 284 283 284 284 284 284 284 284 285 285 285 285 285 283 282 281 282 283 283 282
292 291 291 291 290 289 288 287 287 287 286 286 286 287 286 286 285 284 284 284 283 283 283 282 282 283 284 284 284 284 285 285 285 284 283 284 283 283 283 283 284 283 282
291 291 290 290 289 287 287 287 286 286 286 285 286 285 285 284 284 283 282 282 282 282 282 281 281 282 282 283 284 285 286 285 285 285 283 283 283 283 283 283 282 283 283
291 290 289 288 287 286 286 286 286 285 285 285 285 284 283 283 282 281 281 281 281 281 280 280 280 281 282 283 284 285 286 285 286 284 283 283 283 283 283 283 283 283 281
290 289 287 286 285 285 285 285 284 284 285 284 283 282 282 281 280 279 279 280 280 279 279 279 280 281 282 282 283 284 285 285 284 283 283 283 283 282 282 281 281 280 280
289 287 285 284 284 284 284 283 283 283 283 282 282 281 280 279 278 279 279 279 279 279 279 280 280 281 281 282 283 284 285 284 284 283 283 283 282 282 281 280 279 279 279
287 285 283 283 282 282 282 282 283 282 282 281 280 279 278 278 279 279 279 278 278 279 279 280 280 280 281 282 282 284 284 285 284 284 283 283 282 282 281 279 279 278 278
285 283 282 282 281 281 281 281 281 282 280 280 278 278 277 278 278 278 278 278 278 279 280 279 279 280 280 281 282 283 284 284 284 284 283 283 282 281 281 279 278 278 277
282 281 281 280 280 280 281 282 281 279 277 277 276 276 276 276 276 276 277 278 279 278 278 277 278 279 278 278 280 281 283 284 284 283 283 282 282 281 280 279 278 277 277
283 281 280 280 281 282 282 279 277 276 277 276 276 276 275 274 275 275 277 277 276 276 275 275 274 274 275 276 277 279 280 282 284 283 283 283 282 280 279 278 277 276 275
283 282 282 284 282 281 278 277 277 276 276 275 275 275 274 274 273 275 274 273 273 274 272 271 272 272 272 272 274 276 278 280 281 282 282 282 281 280 278 278 276 276 274
282 285 284 282 279 277 276 274 274 274 273 273 274 273 273 273 272 272 271 271 269 269 269 270 270 270 270 271 272 273 275 277 279 280 281 281 280 279 278 278 276 275 274
285 284 283 278 276 275 273 273 272 271 271 272 272 272 272 272 271 271 270 269 269 269 268 268 269 269 269 270 270 271 273 276 277 278 279 279 279 278 278 277 276 274 273
281 278 277 275 274 274 273 271 271 271 271 271 271 271 271 270 269 268 268 268 268 268 267 267 268 268 268 268 269 270 272 274 275 275 276 277 277 277 277 276 275 274 273
276 275 275 274 273 271 270 270 270 270 270 270 270 269 268 268 268 268 268 268 268 267 267 266 267 267 267 267 268 269 270 272 273 273 274 275 275 275 275 275 274 273 272
274 274 272 271 270 269 269 269 269 269 268 268 268 268 268 267 267 267 267 267 267 268 268 267 267 267 268 267 267 268 269 270 271 272 273 274 274 274 273 273 272 271 271
272 271 270 270 269 269 269 268 267 267 267 267 267 267 267 267 267 267 267 267 267 267 267 267 266 266 267 267 267 268 268 269 270 271 271 272 272 272 272 271 271 270 270
270 270 269 269 269 268 267 267 267 267 266 266 266 266 266 266 266 266 266 266 266 266 267 266 266 267 266 267 267 267 268 268 268 268 269 269 270 269 269 269 269 269 268
269 268 268 268 267 267 267 266 266 266 266 265 265 265 265 265 266 266 266 266 266 266 266 266 266 266 266 266 266 266 267 267 268 268 268 269 269 269 268 268 267 267 266

GFSGL_925_thetae_096.txt.gz
Theta_e
318 323 325 326 327 326 325 323 317 313 311 308 300 296 294 293 292 291 290 290 289 289 288 288 287 287 287 287 286 286 286 286 286 286 286 285 285 285 285 285 285 285 285
317 320 323 324 324 323 320 315 312 310 303 298 295 293 292 291 290 290 289 289 289 288 287 287 287 287 286 286 286 285 285 285 285 285 285 285 285 285 285 285 285 285 284
316 318 318 319 315 318 313 311 309 300 296 294 292 291 291 290 289 289 289 288 288 287 287 287 287 286 286 285 285 284 284 285 285 285 285 285 285 285 285 285 284 283 284
312 313 314 312 310 312 311 307 298 295 293 292 291 290 289 289 289 288 288 287 287 287 287 287 286 286 285 284 284 284 284 285 285 285 285 285 285 285 285 284 283 282 284
308 309 309 307 309 307 301 296 293 292 291 290 289 289 289 288 288 287 287 288 288 287 287 286 286 285 284 284 284 284 284 285 285 284 285 285 285 285 284 282 282 282 284
305 305 305 304 301 297 294 293 291 290 289 289 288 288 287 287 287 287 288 288 287 287 286 286 285 284 284 283 283 284 285 285 284 285 285 285 285 285 283 282 281 282 282
303 302 300 297 295 293 292 291 290 289 288 288 287 287 286 286 286 287 287 287 287 286 285 285 284 284 284 284 284 284 284 284 285 285 285 284 284 283 282 281 281 282 282
298 297 295 294 292 291 290 290 288 288 287 287 287 286 286 286 286 286 287 286 285 285 284 284 283 283 283 284 284 284 284 284 285 284 284 283 283 282 281 281 282 283 282
294 294 293 292 291 290 289 288 287 287 286 286 285 285 286 286 285 285 285 285 285 284 284 283 282 282 282 283 283 283 283 284 285 284 284 283 283 282 283 283 283 283 282
294 293 292 291 291 289 288 287 287 286 286 285 285 285 285 285 285 284 284 285 284 283 283 282 281 281 281 283 283 283 283 284 285 285 284 283 282 282 283 283 281 281 282
294 293 291 290 290 289 287 286 286 285 284 284 284 284 284 284 283 283 283 283 283 282 281 281 281 281 282 283 283 283 283 284 284 284 283 282 282 282 282 282 282 281 281
293 292 290 289 288 287 286 285 285 284 284 284 283 283 282 282 282 282 282 282 281 281 281 280 281 281 282 282 282 282 283 284 284 283 282 282 282 282 282 281 280 280 280
292 290 289 288 287 285 285 284 283 283 283 283 282 282 281 281 281 281 281 280 279 280 280 280 280 280 281 281 282 282 283 283 284 283 282 283 282 282 282 280 279 279 279
289 287 287 286 284 284 283 283 283 282 282 282 282 281 281 281 280 280 280 279 279 279 280 280 279 280 280 280 280 281 282 283 283 282 282 284 283 282 281 281 279 278 278
286 285 284 284 283 282 281 282 282 281 282 283 283 285 281 280 279 278 278 278 279 280 279 279 279 278 278 278 278 280 281 282 282 283 283 283 283 282 281 280 279 278 278
283 282 282 281 281 280 280 279 279 281 281 283 287 281 279 278 277 277 277 278 279 277 278 277 276 276 275 275 275 276 277 279 280 281 282 282 283 282 281 280 279 278 277
282 281 281 281 280 280 279 280 280 280 280 282 279 277 276 277 276 276 277 277 276 276 275 274 274 273 273 272 272 273 275 276 277 279 280 281 282 282 281 280 278 277 276
283 282 281 281 281 280 281 283 284 283 280 277 276 275 275 276 275 275 274 275 275 274 273 273 273 272 271 271 270 270 271 272 274 276 278 279 279 280 280 279 278 277 275
282 281 281 281 281 285 285 284 281 278 277 275 274 274 274 274 273 273 272 273 272 272 272 273 271 270 269 269 269 270 270 271 272 274 276 277 278 279 279 279 278 277 275
282 282 282 281 283 283 281 278 276 275 274 274 274 274 273 273 273 272 271 271 270 270 270 271 270 269 268 268 268 269 269 270 271 272 274 275 276 276 277 278 277 276 275
281 280 282 284 282 280 278 275 274 274 273 273 272 272 271 272 271 270 271 271 270 270 269 269 269 268 268 268 268 268 268 269 270 270 272 273 274 275 276 276 276 276 275
279 279 278 278 277 275 274 274 273 273 272 271 271 271 269 269 269 269 270 270 269 268 267 267 268 268 267 267 267 267 268 268 269 269 270 272 272 273 274 274 275 274 273
278 277 276 274 273 273 272 272 271 271 271 271 270 269 269 269 268 269 269 269 268 268 267 267 267 268 267 267 266 266 267 267 267 268 269 270 271 272 272 272 273 272 271
275 275 274 273 272 271 270 270 270 270 270 269 269 268 268 268 268 268 268 267 267 267 267 267 267 267 267 267 267 267 267 267 267 268 268 269 269 270 270 271 271 271 271
273 272 271 271 270 269 269 269 269 269 268 267 267 267 267 267 267 267 267 266 266 267 267 266 266 266 266 267 267 267 267 267 267 267 267 268 268 269 269 269 269 269 269
270 269 269 269 269 269 268 268 268 267 267 266 266 266 266 266 266 266 266 266 266 266 266 266 266 266 266 266 266 266 266 267 267 266 267 267 267 267 267 267 268 267 267

GFSGL_925_thetae_099.txt.gz
Theta_e
319 325 325 326 326 328 328 327 325 323 320 315 311 312 304 296 294 292 291 290 289 289 288 288 288 287 287 287 286 286 285 286 286 286 285 285 285 285 285 285 284 284 284
309 314 322 325 326 326 326 325 323 321 315 312 309 305 296 293 292 290 290 289 289 288 288 287 287 287 287 287 286 285 285 285 285 285 285 285 285 285 285 285 283 283 284
311 314 319 321 322 323 323 322 318 317 311 303 303 297 293 292 290 289 289 289 288 288 287 287 287 287 287 286 286 285 284 284 285 285 285 285 285 285 285 283 283 283 283
311 314 316 317 318 319 319 319 314 312 304 300 295 293 291 290 289 289 288 288 287 287 287 287 287 287 286 286 285 284 284 285 285 285 285 285 285 285 284 283 282 282 283
311 312 313 314 314 313 313 310 311 302 299 294 292 290 289 289 289 288 288 287 287 287 287 287 286 286 285 285 284 284 284 285 285 285 285 285 285 284 283 282 282 282 283
309 309 310 309 310 308 306 302 300 295 293 291 290 289 288 288 288 287 288 287 287 287 286 286 286 285 285 284 284 284 285 284 284 285 285 285 285 284 283 282 281 281 282
306 306 306 305 304 302 300 296 293 292 291 289 288 288 287 287 287 287 287 287 287 286 286 285 285 284 284 284 284 284 284 284 285 285 285 284 284 283 282 281 281 281 282
303 303 303 302 301 299 295 293 291 290 289 288 287 287 287 286 286 286 286 287 286 285 285 285 284 284 284 283 284 283 283 283 284 284 285 285 283 282 281 280 280 281 282
300 300 299 299 298 295 291 290 289 288 287 287 287 286 286 286 286 285 285 286 285 285 285 284 284 283 283 282 283 283 283 283 283 284 284 285 283 282 282 282 282 280 282
298 299 299 298 297 292 290 289 288 287 287 286 285 285 285 286 285 285 285 285 284 284 284 283 283 283 282 282 283 283 283 283 283 284 284 283 282 281 282 282 282 280 281
298 297 296 294 293 291 289 288 287 286 286 285 284 284 284 284 284 283 284 284 284 284 283 283 282 282 281 282 283 283 283 283 284 284 284 283 282 281 282 282 281 281 281
296 295 293 291 290 290 289 287 286 285 284 283 283 282 282 282 282 282 283 283 283 283 282 282 282 282 282 282 282 282 283 283 283 283 284 283 282 281 282 281 280 280 280
294 292 291 290 289 288 287 286 284 284 283 282 282 281 281 281 281 281 281 282 282 282 281 281 281 281 281 281 281 281 281 282 282 282 283 282 283 282 282 281 280 279 279
291 289 288 288 287 286 285 285 284 283 282 282 282 281 281 281 281 281 281 281 281 281 280 281 280 279 280 280 280 279 280 281 281 281 281 281 281 281 281 281 280 279 278
290 287 286 286 286 285 284 284 283 283 284 283 283 283 283 282 282 282 281 280 280 280 280 279 279 278 278 278 278 278 278 278 279 279 280 280 281 281 281 281 280 279 278
286 285 283 283 282 282 281 280 280 281 282 282 283 285 285 284 285 281 279 279 279 279 278 278 277 276 275 274 274 274 275 276 276 276 277 278 279 280 281 281 280 279 278
286 283 282 281 281 280 280 279 278 278 280 281 282 285 283 288 281 279 278 278 278 277 277 276 274 273 273 273 272 272 272 273 273 274 275 276 277 278 279 280 280 279 277
285 283 282 280 280 279 279 280 280 280 281 281 279 280 281 279 278 277 277 276 276 275 274 274 273 273 272 271 271 271 271 272 272 271 272 273 275 276 278 279 279 279 277
283 281 281 280 280 280 281 280 282 284 285 281 281 279 276 277 275 275 275 275 275 274 273 273 272 272 271 271 270 270 270 270 270 269 271 272 273 274 276 277 277 278 277
281 281 280 280 279 279 280 280 283 283 281 281 279 276 275 274 274 275 274 274 273 273 273 272 272 271 270 270 270 270 270 269 269 269 269 270 271 272 273 274 275 275 276
280 279 279 279 279 279 281 283 282 280 279 278 275 275 275 275 275 274 273 272 271 271 271 271 270 270 270 270 269 269 268 268 267 267 268 268 269 270 272 273 273 274 274
279 278 278 278 278 279 279 277 277 276 276 274 274 273 272 272 273 272 271 270 270 270 269 269 270 269 269 269 268 268 268 268 267 267 267 268 268 269 270 271 272 273 273
278 278 278 279 280 279 278 276 275 274 273 273 272 272 272 271 271 270 270 269 269 268 268 268 268 268 268 267 267 267 267 267 267 267 266 267 268 268 269 270 270 271 271
276 277 278 278 277 276 275 274 272 271 271 271 270 271 271 270 269 269 269 268 268 267 267 267 267 267 267 267 267 266 266 266 267 267 266 267 267 268 268 269 269 270 270
274 274 273 272 272 271 270 269 269 269 269 269 270 269 269 268 268 268 268 267 267 266 267 266 266 266 266 266 267 266 266 266 266 266 266 266 266 267 267 268 268 268 268
271 271 271 271 271 270 270 270 269 269 269 269 268 268 268 267 267 267 266 266 266 266 266 266 266 265 265 265 265 265 266 266 266 266 265 266 266 266 267 267 267 267 267

GFSGL_925_thetae_102.txt.gz
Theta_e
325 327 327 327 327 327 326 326 328 328 324 323 321 318 313 311 307 298 294 292 290 290 289 288 288 288 288 288 288 289 289 289 290 290 289 288 287 287 287 286 285 285 285
321 324 325 325 325 325 325 327 328 326 323 322 319 314 309 307 302 294 292 290 290 289 288 288 288 287 287 287 288 288 288 287 288 289 288 287 287 287 287 286 285 285 284
311 319 321 323 324 325 325 325 326 322 321 319 315 310 306 303 295 292 291 290 289 288 288 288 288 287 287 287 287 287 287 287 287 288 288 287 287 287 286 285 284 284 284
310 311 313 317 319 321 322 322 322 319 317 315 309 308 302 296 293 291 290 289 288 288 288 288 287 287 287 287 286 286 286 287 287 287 287 287 287 286 286 284 284 284 284
309 308 309 311 314 316 316 316 316 314 313 313 306 299 295 293 291 290 289 288 288 288 288 287 287 286 286 286 286 286 286 287 287 287 287 287 287 286 285 284 283 283 284
308 308 308 310 310 312 313 310 308 306 306 305 297 296 291 290 289 289 289 288 288 287 287 287 286 285 285 285 285 285 285 286 285 286 287 286 286 285 284 283 283 283 284
307 308 309 309 308 307 306 303 302 302 302 296 294 291 290 289 288 288 288 288 288 287 287 286 286 285 285 285 285 284 284 284 284 285 286 286 285 284 283 283 283 282 282
306 306 307 305 303 302 302 300 298 296 295 291 291 289 289 288 288 287 287 287 287 286 286 285 285 285 284 285 285 285 284 284 283 284 284 285 285 284 282 282 281 280 280
302 304 304 303 300 299 296 295 295 292 290 289 289 288 288 287 286 286 286 286 286 285 285 285 284 284 284 283 284 284 283 284 283 283 284 285 285 284 282 281 281 281 283
302 304 303 302 301 298 296 294 292 289 288 288 287 287 286 287 286 286 286 286 285 284 284 284 284 283 283 283 283 283 283 283 283 283 284 284 284 283 282 281 281 281 282
302 302 302 300 299 298 294 292 290 288 287 286 286 285 285 286 285 285 284 285 284 284 284 283 283 283 283 282 283 284 283 283 283 284 284 284 284 283 283 281 281 280 281
299 299 299 298 296 295 293 289 288 287 285 285 284 283 284 284 284 284 284 284 284 284 284 283 283 282 282 282 283 283 283 283 283 283 283 284 284 283 282 281 281 281 281
296 295 294 293 292 290 288 287 285 284 284 282 282 282 281 282 283 282 282 283 283 283 283 285 282 281 281 281 281 281 281 280 281 282 283 283 283 282 282 282 282 281 281
293 291 290 290 288 288 286 286 285 283 283 282 281 281 280 280 281 281 281 281 282 282 284 282 281 281 280 280 280 280 279 279 279 280 281 281 281 281 281 280 279 279 278
292 290 288 286 286 285 285 284 284 284 284 283 282 282 281 280 282 282 282 282 283 283 282 281 280 280 279 279 278 278 277 277 278 279 278 279 280 281 281 281 279 279 278
289 287 286 285 284 283 283 281 282 283 283 283 283 284 283 284 284 283 283 282 282 281 280 280 279 278 277 276 275 275 276 276 276 276 277 277 278 279 280 281 280 279 279
288 286 285 284 283 282 281 281 281 280 281 282 282 282 283 285 284 284 280 280 280 279 279 278 277 276 275 274 273 273 273 273 274 273 274 275 276 276 277 279 280 280 279
286 286 284 283 282 281 281 281 280 280 280 281 281 282 284 284 283 279 279 279 278 277 278 276 275 274 273 273 272 272 272 271 271 270 271 272 272 273 275 277 279 280 279
284 283 282 282 281 281 280 280 280 280 279 280 280 279 280 278 277 278 278 278 277 276 275 274 273 273 272 272 271 271 270 270 269 269 269 269 270 271 273 275 276 277 278
281 282 282 280 280 279 279 280 279 279 280 281 281 280 278 276 276 276 275 276 275 274 273 273 272 272 271 270 270 269 269 269 268 268 268 268 269 270 271 272 274 275 276
280 279 279 279 279 279 279 279 280 280 282 281 279 278 277 277 275 274 274 275 274 273 273 272 271 271 270 269 269 269 268 268 267 268 268 267 266 267 268 270 271 273 274
278 278 278 278 278 277 277 277 278 279 279 277 276 276 274 274 274 274 273 273 273 272 272 271 270 270 269 269 268 268 268 268 268 267 267 267 266 266 267 269 270 271 273
277 277 276 276 276 277 277 278 278 278 277 276 274 273 273 273 272 272 272 271 271 270 270 270 269 269 269 268 268 267 267 267 267 267 267 266 264 265 266 267 269 270 271
275 276 277 277 277 277 277 276 276 275 274 273 272 271 271 270 270 271 271 270 270 269 268 268 268 268 268 268 267 267 267 267 267 267 266 265 265 264 265 266 267 268 269
272 272 273 273 272 272 273 273 273 273 272 271 271 271 270 270 270 270 270 269 268 268 268 267 267 267 267 267 267 266 266 266 266 266 265 265 265 265 265 265 266 266 267
270 270 270 270 270 271 270 270 270 269 269 269 269 269 269 268 268 268 267 267 267 267 267 267 266 266 266 266 266 266 266 266 265 265 264 264 264 265 265 265 265 265 266

GFSGL_925_thetae_105.txt.gz
Theta_e
326 329 330 331 332 332 332 332 331 330 328 326 325 324 324 322 317 312 311 304 296 292 291 291 290 289 289 289 289 290 291 290 292 292 290 289 288 288 288 287 286 286 285
322 326 328 330 330 330 329 329 329 326 326 325 323 323 322 319 315 308 306 299 293 291 290 290 289 289 289 289 290 290 290 289 290 290 290 289 288 288 287 286 285 285 284
316 323 326 328 328 327 327 327 327 324 325 323 321 320 321 316 311 304 301 295 292 290 290 289 289 288 288 288 289 289 289 288 289 289 289 288 288 288 287 286 285 285 285
312 317 323 323 324 324 324 325 325 324 323 322 318 320 318 312 305 301 295 292 291 290 289 289 289 288 288 288 288 288 288 288 288 288 288 288 288 287 286 285 284 284 284
311 312 316 319 319 321 322 322 322 320 319 317 313 311 307 307 302 299 293 291 290 289 289 288 288 288 288 287 287 288 287 288 288 288 288 288 288 286 285 284 284 284 284
310 311 311 311 313 315 317 317 316 314 313 311 310 307 304 301 298 295 292 290 289 289 288 288 287 287 287 286 286 287 287 287 286 286 287 287 287 286 284 284 283 283 284
308 309 309 308 308 309 311 312 312 310 308 305 304 302 303 295 295 292 290 290 289 288 288 288 287 287 286 286 285 285 285 285 285 285 286 286 286 285 284 283 283 283 283
307 307 308 307 307 307 307 307 305 304 302 300 300 297 297 294 292 289 289 289 288 288 287 287 287 286 286 285 285 285 285 285 284 284 283 284 284 285 284 282 282 281 281
305 306 306 306 304 303 301 299 299 298 296 296 297 296 294 290 289 289 288 287 287 287 287 286 286 285 285 284 285 285 285 285 284 284 283 284 285 285 284 283 282 282 282
304 305 305 305 304 302 301 298 296 296 295 294 291 290 289 289 288 287 287 287 287 286 285 285 285 285 284 284 284 285 284 285 284 284 284 283 284 284 284 283 282 281 281
303 304 304 302 302 301 298 295 293 291 291 289 289 288 288 288 287 286 286 286 286 285 285 284 284 284 284 283 284 284 284 284 284 283 284 284 284 284 284 283 282 281 281
300 300 300 300 298 297 296 294 291 290 289 287 286 285 286 287 287 286 285 285 285 285 284 284 284 284 283 283 284 284 284 284 283 283 283 283 283 284 284 283 282 281 281
297 297 297 297 296 295 294 292 289 288 286 285 284 284 284 285 286 286 285 284 284 284 284 284 285 283 282 284 283 283 283 282 281 282 282 283 284 283 283 282 282 281 280
294 293 293 292 291 290 289 289 288 286 285 285 284 284 283 283 284 284 284 283 283 283 283 284 283 283 282 283 281 281 281 280 279 280 281 281 282 281 281 281 281 280 279
291 291 290 289 289 288 288 287 286 286 286 285 284 284 282 281 283 284 284 283 283 283 284 283 282 282 282 281 280 279 279 278 278 279 279 279 279 279 280 281 280 280 280
289 288 287 287 286 286 285 285 284 284 285 284 284 284 283 283 283 283 283 282 282 284 283 282 282 282 280 279 278 277 277 276 277 277 277 277 277 278 278 279 280 281 280
288 287 286 285 285 284 283 283 282 282 282 283 283 283 283 284 283 282 282 282 282 282 281 281 281 280 279 277 276 276 276 275 275 274 274 275 276 276 276 276 277 279 281
286 286 285 285 284 283 283 282 282 282 281 282 282 282 282 282 283 283 284 283 282 282 280 279 279 278 277 276 275 274 274 273 273 273 272 272 273 273 273 274 276 277 279
283 283 283 283 283 282 282 282 281 281 281 281 281 281 281 282 285 283 282 281 280 279 279 278 277 277 276 274 273 273 272 272 271 271 271 270 271 271 272 273 273 274 275
281 281 281 281 281 281 281 281 280 281 281 280 281 281 282 281 281 280 280 280 279 278 277 276 276 275 274 273 272 272 271 270 270 269 269 269 269 269 270 270 271 272 273
280 280 279 280 280 280 280 280 281 281 281 280 280 280 281 280 278 278 278 278 277 276 276 274 274 274 273 272 271 270 270 269 269 268 268 268 267 267 268 268 269 270 271
277 278 278 278 278 278 279 279 280 280 280 280 279 278 278 277 277 276 275 275 275 274 272 272 271 271 271 271 270 269 269 269 268 267 267 267 267 266 266 267 268 269 270
276 276 276 276 276 276 277 277 277 278 278 278 278 278 277 276 275 274 273 273 273 272 272 272 271 270 270 269 269 269 268 268 268 267 267 267 266 266 265 266 267 267 268
274 274 275 275 276 276 276 276 276 276 276 275 275 274 274 274 273 273 272 272 272 272 271 271 270 269 269 269 268 268 268 267 267 267 266 266 266 265 265 265 266 266 267
272 272 272 272 272 272 272 272 273 272 272 272 272 272 271 271 271 270 270 269 269 269 269 268 268 268 268 268 267 267 267 266 266 266 265 265 265 265 265 265 265 265 266
269 269 269 269 270 270 270 270 271 270 270 270 269 269 269 269 269 269 268 268 268 268 268 267 267 267 267 267 266 266 265 265 265 265 265 264 264 264 264 264 265 265 265

GFSGL_925_thetae_108.txt.gz
Theta_e
329 331 332 333 333 333 333 333 333 333 332 331 330 328 326 325 325 324 322 317 313 310 304 296 293 292 291 290 290 290 290 291 292 291 290 289 288 288 287 287 286 285 285
326 327 329 330 331 332 333 333 333 333 332 331 330 328 325 324 324 323 320 314 311 305 299 293 292 291 290 290 290 290 290 289 291 291 290 289 288 288 287 287 286 285 285
315 321 324 327 329 331 331 332 332 332 331 329 328 326 324 322 321 319 318 313 311 302 297 292 291 290 290 289 289 290 290 289 289 289 289 289 288 288 287 286 285 285 285
310 311 316 323 326 328 329 328 328 329 329 328 326 324 323 319 318 317 313 308 306 298 293 291 291 290 290 289 289 289 289 288 289 288 288 288 288 287 286 286 285 284 284
311 310 312 320 323 324 324 324 323 323 325 325 324 321 316 314 312 311 313 305 300 294 291 290 290 289 289 289 289 289 288 288 288 288 288 288 288 287 286 284 283 283 284
311 311 311 313 317 318 318 319 320 321 321 320 318 317 315 309 308 308 303 302 296 292 290 289 289 289 288 288 288 288 287 288 288 288 288 288 287 287 286 284 283 283 283
310 310 311 311 313 314 314 315 316 315 315 313 311 309 308 305 303 303 304 301 292 291 290 289 288 288 288 287 287 288 287 287 287 286 286 286 287 286 285 284 283 282 282
308 308 308 309 308 307 307 307 308 309 309 307 306 305 303 301 300 298 297 298 292 290 289 288 288 287 287 286 286 285 285 286 286 285 285 284 284 285 284 284 283 281 281
306 306 306 306 305 304 303 305 304 305 305 304 303 301 299 298 295 296 295 293 289 289 288 288 288 287 286 286 286 286 285 285 285 284 284 284 284 285 285 284 283 282 282
303 303 304 304 304 305 305 303 301 300 300 298 296 296 296 294 293 294 293 290 288 288 287 287 287 286 286 285 285 285 285 285 285 285 284 283 284 284 284 285 283 282 281
301 302 302 303 303 303 301 300 298 296 294 292 292 292 292 293 292 290 289 288 287 287 286 286 285 285 285 284 284 285 286 285 285 285 284 284 284 284 284 284 284 283 282
298 299 299 299 300 300 299 298 295 294 291 289 288 288 288 289 289 287 287 286 286 287 286 286 285 285 284 284 284 285 285 285 285 284 283 284 284 283 283 284 283 283 282
295 295 295 296 297 297 295 293 291 290 289 288 287 287 287 288 288 288 287 286 285 285 285 285 284 284 284 284 284 284 284 284 284 283 283 282 282 283 284 284 283 282 282
294 293 292 292 292 291 291 291 290 289 288 287 286 286 285 286 287 287 286 285 285 285 284 284 284 284 283 284 283 283 283 283 282 281 280 281 281 282 282 282 281 281 281
291 291 291 291 290 290 289 289 288 288 288 287 287 286 285 284 285 286 286 285 284 284 283 283 283 283 283 282 283 282 282 281 280 279 279 279 279 279 279 280 280 281 280
288 288 287 287 287 287 287 286 285 285 286 286 286 285 284 285 285 285 285 285 284 283 282 282 283 284 283 283 282 281 280 279 278 277 278 278 279 278 278 278 278 279 280
286 286 286 285 285 285 285 284 284 283 283 284 284 285 286 287 285 284 284 284 283 282 282 284 284 283 283 282 281 280 279 278 277 276 276 276 276 276 276 276 276 276 278
284 284 284 284 283 283 283 283 283 283 282 283 283 283 283 283 283 283 283 283 282 283 283 283 283 282 281 280 279 279 277 276 275 275 274 274 273 273 274 274 274 275 276
282 282 282 282 282 282 282 282 282 282 282 282 282 282 282 283 283 283 283 283 283 283 283 281 281 280 279 278 278 276 276 275 274 274 272 272 272 271 271 272 272 273 273
280 280 281 281 281 281 281 281 281 281 281 281 281 281 281 282 283 284 284 284 283 282 281 280 279 279 278 277 276 274 273 273 272 272 271 271 270 270 270 270 270 270 271
278 278 279 279 279 280 280 280 280 280 280 281 281 281 281 281 281 282 282 281 281 280 280 279 278 276 275 274 273 273 273 272 272 271 270 270 269 269 269 268 268 268 269
277 277 277 277 277 278 278 279 280 280 280 281 280 280 279 279 280 280 280 280 279 278 277 276 275 275 274 274 273 273 272 271 271 270 269 269 268 268 268 267 267 268 268
275 276 276 276 276 276 276 276 276 277 277 277 277 277 277 277 277 277 276 276 275 275 274 274 273 273 272 272 271 271 270 270 270 269 268 268 267 267 267 266 267 267 267
273 273 273 272 273 273 273 274 274 274 274 274 274 274 274 274 274 274 274 273 273 273 272 272 272 271 271 270 270 269 269 269 268 268 267 267 266 266 266 266 266 266 266
271 271 271 271 271 271 271 271 271 271 271 271 271 271 271 271 271 271 271 271 271 270 270 270 270 269 269 268 268 268 267 267 267 267 266 265 265 265 265 264 265 265 266
269 269 269 269 269 269 269 269 269 269 269 269 269 269 269 268 268 268 269 269 268 268 268 268 268 267 267 267 267 266 266 266 266 265 265 264 264 263 264 264 264 264 265

GFSGL_925_thetae_111.txt.gz
Theta_e
331 332 332 332 330 329 328 329 330 331 331 331 331 330 330 329 328 327 325 325 324 322 318 314 313 309 299 293 292 293 293 293 292 291 291 290 289 288 288 287 286 286 286
329 331 331 332 332 332 331 330 330 331 331 332 331 331 331 330 329 327 325 324 323 320 318 311 306 299 294 292 291 291 291 291 292 291 290 289 289 288 288 287 286 286 285
319 324 327 328 330 331 332 332 331 331 331 331 329 330 330 329 328 326 324 322 321 319 315 308 302 296 292 291 291 290 290 290 290 291 290 289 289 288 287 286 286 285 285
309 309 312 319 324 327 329 330 331 332 332 331 329 328 329 329 326 324 321 319 317 316 315 309 304 296 293 291 290 290 290 290 289 289 289 289 288 288 287 286 285 284 284
310 310 309 310 314 320 323 327 329 327 328 328 328 326 324 323 323 323 320 314 313 309 307 305 301 294 292 291 290 290 290 289 288 289 288 288 288 287 287 286 285 284 283
310 310 310 310 311 318 322 323 322 322 323 323 323 323 323 321 321 322 319 311 308 307 302 297 296 292 291 290 290 290 290 289 288 288 288 288 288 288 287 286 284 283 283
310 310 310 310 311 313 315 316 317 316 316 317 317 317 317 316 315 312 308 307 305 303 299 296 291 290 289 289 289 289 289 288 288 288 288 288 287 287 287 286 284 283 283
309 308 308 308 309 309 309 308 310 310 310 309 309 309 308 307 306 304 303 301 300 298 295 294 290 292 291 289 288 288 288 287 287 287 287 287 286 286 285 286 284 283 282
306 306 306 307 306 305 304 304 304 305 305 306 306 306 306 306 303 300 298 296 296 295 293 291 293 293 289 288 288 287 287 287 286 286 286 286 286 284 284 284 284 283 282
302 303 304 304 305 305 304 304 304 304 303 302 301 300 299 298 297 294 292 293 292 292 292 291 291 289 288 287 286 286 285 286 285 285 285 285 285 284 285 286 286 283 282
300 301 301 302 302 303 303 302 300 298 297 296 295 295 295 294 293 291 291 292 291 289 289 288 287 287 286 285 285 286 286 286 286 285 285 284 284 284 284 285 284 285 283
297 298 299 298 299 299 299 298 296 295 294 292 291 291 290 291 291 290 289 289 288 289 288 288 287 286 285 285 285 285 285 285 286 285 285 285 285 284 284 284 284 284 284
295 295 295 295 295 296 294 293 292 291 290 289 289 288 288 288 289 289 288 287 288 287 287 287 286 286 285 285 285 284 284 286 286 286 284 286 285 283 283 283 283 284 284
291 290 290 291 291 291 291 291 291 291 289 289 287 287 287 287 288 288 288 287 287 286 286 286 285 284 284 284 284 284 286 286 286 285 284 284 282 281 282 283 283 283 282
289 289 288 288 288 288 288 287 287 287 287 288 288 288 287 286 287 288 288 287 286 286 286 284 283 283 283 283 284 285 284 284 284 283 282 281 280 281 281 281 280 281 281
288 287 286 286 286 286 286 286 286 286 286 286 287 287 287 286 286 286 287 287 287 285 284 283 283 283 283 283 284 284 285 282 282 281 280 279 279 279 279 279 278 279 279
285 285 285 285 285 284 284 284 284 284 284 284 285 285 285 286 286 287 287 286 285 284 283 282 282 282 282 283 284 283 282 282 281 279 278 278 277 278 278 277 277 277 277
283 283 283 283 283 283 283 283 283 283 283 283 283 283 284 284 284 284 285 285 284 284 283 282 282 282 283 283 282 281 281 280 278 277 276 276 276 275 275 275 275 275 275
281 282 282 282 282 282 282 282 282 282 282 282 282 282 282 283 284 284 284 284 282 283 283 282 282 282 282 281 280 280 279 278 276 275 275 274 273 273 273 273 273 273 273
280 280 280 281 281 281 280 281 281 281 281 281 281 281 282 282 283 283 283 283 282 282 282 282 282 281 281 280 279 278 276 275 274 274 273 273 272 271 271 271 271 271 271
278 278 279 279 279 279 279 280 279 279 280 280 280 280 280 280 281 282 283 283 283 282 282 281 280 279 279 277 276 275 275 274 274 273 272 272 271 270 270 270 269 269 269
276 277 277 277 277 277 277 277 278 278 278 279 279 279 279 279 278 279 279 279 279 279 278 277 277 276 276 275 275 274 273 273 272 272 271 270 270 269 269 268 268 268 268
274 274 274 275 276 276 276 276 276 276 276 276 276 276 277 277 276 276 276 276 276 275 275 275 274 274 273 273 272 272 271 271 271 270 269 269 269 268 268 267 267 267 267
272 272 272 272 272 272 272 273 273 273 273 273 274 274 274 274 274 273 273 272 272 272 272 272 271 271 271 271 270 270 269 269 268 268 267 267 267 267 267 266 266 266 266
270 270 269 269 269 269 269 269 269 270 270 270 270 270 270 270 270 270 270 270 270 269 269 269 269 269 268 268 268 268 268 267 267 267 267 266 266 265 265 265 265 265 265
268 268 267 267 267 267 267 267 267 267 267 267 267 267 267 267 267 267 267 267 267 267 267 267 267 267 267 267 266 266 266 266 266 265 265 265 264 264 264 264 264 264 264

GFSGL_925_thetae_114.txt.gz
Theta_e
329 329 327 326 324 324 324 324 324 325 326 327 328 328 328 328 328 327 326 324 324 323 324 324 324 322 318 312 306 300 296 294 292 290 291 291 289 288 288 288 287 287 286
329 330 330 330 330 328 326 325 325 326 327 327 328 328 328 328 328 327 326 323 323 322 324 323 322 319 313 310 304 297 295 294 293 290 290 289 289 288 288 288 287 287 286
324 327 328 330 330 330 330 329 328 327 327 328 328 328 328 328 328 328 328 324 324 322 322 322 321 316 311 306 302 294 293 293 293 292 289 289 288 288 288 288 287 286 286
308 308 311 318 323 326 327 329 329 330 329 329 329 329 329 328 327 326 326 323 323 321 320 319 317 315 313 307 298 292 291 291 291 291 290 289 289 288 288 288 287 286 285
309 309 309 309 308 310 314 319 323 326 328 329 329 329 328 326 326 325 322 321 320 319 316 313 312 310 309 303 298 293 291 290 290 289 289 288 288 288 287 288 287 286 284
309 309 309 309 309 310 315 319 320 322 322 323 322 321 320 319 318 317 317 316 314 314 310 306 305 300 297 298 297 291 290 290 289 288 288 288 288 288 288 287 286 284 283
309 309 309 309 309 310 311 314 316 315 315 314 316 315 315 316 315 314 311 309 308 307 305 303 301 298 296 295 292 292 290 290 290 290 289 288 288 288 288 287 286 285 284
308 308 308 308 308 308 308 308 309 309 310 310 311 310 310 310 310 309 309 306 304 302 301 300 298 297 293 291 291 289 289 290 290 288 288 288 288 288 288 287 286 286 284
305 305 305 305 305 305 304 303 304 305 305 306 305 306 306 307 306 304 303 300 299 297 296 295 294 293 292 291 289 289 290 290 288 288 288 288 287 287 286 285 285 284 283
300 301 302 303 304 303 303 304 304 303 302 303 303 302 301 302 300 299 297 295 294 293 291 290 291 291 290 289 291 292 289 288 287 287 286 286 286 286 285 285 284 284 283
298 299 300 300 299 301 302 302 300 300 299 299 299 297 296 295 295 294 293 293 292 291 291 290 290 291 291 291 291 289 288 287 287 286 286 286 286 286 286 285 285 285 284
296 297 297 297 298 299 299 298 297 296 295 294 294 293 293 292 291 291 291 291 290 290 291 291 291 292 291 288 287 287 286 286 286 286 286 287 287 287 286 284 284 284 285
295 295 294 295 295 295 295 294 293 292 291 291 290 289 290 290 290 290 290 290 290 289 290 291 290 288 287 286 286 286 285 285 285 285 287 288 288 288 286 284 284 284 284
292 291 291 291 291 292 292 291 291 290 289 289 288 288 288 288 288 289 289 288 288 287 288 287 287 287 286 286 286 286 285 285 285 286 287 287 286 285 284 284 283 283 283
289 288 288 288 288 288 288 288 288 287 287 287 287 287 287 287 288 288 288 288 288 287 286 285 284 285 285 285 285 285 285 285 285 286 285 285 284 283 283 282 282 282 282
287 286 286 286 286 286 285 285 285 285 285 286 286 286 285 285 285 286 287 287 287 286 285 285 284 284 283 283 283 284 284 284 285 284 283 282 281 281 281 280 280 280 280
285 285 285 285 284 284 284 283 283 284 284 285 285 284 284 284 285 286 287 287 286 285 284 284 283 283 283 282 282 282 283 283 284 283 282 281 280 279 278 278 278 279 278
283 283 283 283 283 283 283 282 282 282 282 283 283 282 282 283 283 284 285 285 286 285 284 283 281 282 282 282 282 282 283 283 282 281 280 279 278 277 276 276 276 276 276
282 281 281 282 281 281 281 281 281 281 281 281 282 282 282 283 284 284 284 284 284 283 283 283 282 281 281 282 282 282 282 281 280 279 277 277 276 275 274 274 273 274 274
279 279 280 281 281 281 280 280 280 280 280 280 280 280 281 281 281 283 283 283 283 282 282 281 281 281 281 281 281 280 279 278 277 276 275 275 274 273 272 272 272 271 271
278 278 278 279 279 279 279 279 279 279 279 279 279 279 280 280 279 279 280 281 281 281 280 280 279 279 279 278 278 277 276 276 275 274 274 273 272 272 271 271 270 270 270
276 277 278 278 277 278 277 277 277 277 277 277 277 277 278 278 277 277 278 278 278 278 277 277 276 276 275 275 274 273 273 273 272 272 272 271 271 270 270 269 269 269 268
274 274 274 274 274 274 274 274 275 275 274 274 274 275 275 275 275 275 275 275 275 274 274 274 273 273 273 272 272 271 271 271 270 270 269 269 269 268 268 268 268 267 267
271 272 271 271 271 271 271 271 271 271 271 271 271 271 271 271 271 271 271 271 272 271 271 271 270 270 270 270 270 269 269 268 268 268 267 267 267 267 267 266 266 266 266
269 269 269 269 269 268 269 268 268 268 268 269 269 269 269 269 269 269 269 269 269 269 269 269 269 269 268 268 268 268 267 267 267 267 267 266 266 266 265 265 265 265 265
267 267 267 267 267 267 267 267 267 267 267 267 267 267 267 268 268 268 268 268 268 268 267 268 267 267 267 267 267 266 266 266 266 266 265 265 265 265 264 264 264 264 264

GFSGL_925_thetae_117.txt.gz
Theta_e
323 323 324 325 325 325 325 325 325 324 324 324 324 324 325 325 325 324 323 323 323 323 322 321 321 321 320 320 319 315 309 305 301 291 292 292 291 290 288 288 287 287 286
327 324 323 323 323 323 323 323 323 323 323 323 324 325 325 325 325 325 325 324 324 323 323 322 321 318 319 319 315 313 309 303 296 290 290 290 290 289 288 288 288 287 287
327 328 328 328 327 327 326 325 325 324 324 324 324 325 326 326 326 326 326 325 325 325 324 322 321 319 318 316 312 308 299 294 294 292 289 289 288 288 288 287 287 287 287
309 317 323 326 327 327 328 328 328 328 327 326 326 326 327 327 327 326 326 325 324 323 322 319 319 317 316 313 308 302 299 295 293 293 290 289 288 287 288 287 287 287 287
308 308 308 307 308 309 311 315 320 323 324 326 326 326 325 325 324 324 323 322 319 318 318 315 314 312 310 307 305 302 297 293 292 291 289 288 288 287 287 287 287 288 287
307 308 308 308 308 309 310 312 315 316 317 320 322 322 322 321 319 317 316 315 314 313 312 311 309 307 305 303 300 298 298 294 290 289 289 289 290 288 288 288 287 286 285
307 307 307 308 308 308 308 309 311 312 312 312 312 313 313 312 311 313 312 310 308 307 305 304 303 302 300 298 295 295 295 294 292 290 291 291 289 289 289 287 287 288 286
306 306 306 306 306 306 305 304 304 304 305 305 305 305 305 306 307 308 308 307 306 305 303 301 300 299 298 295 293 292 291 290 290 290 290 290 290 289 288 288 289 288 286
302 302 303 304 305 303 302 302 302 302 304 304 304 304 304 303 302 301 301 301 300 299 298 298 297 296 295 293 292 291 290 290 290 289 291 290 288 288 288 288 286 285 284
297 299 300 301 301 301 302 302 302 302 302 302 301 301 300 300 300 300 298 296 295 295 294 294 293 293 292 291 291 291 289 289 289 290 289 288 287 287 287 288 287 286 284
295 296 297 298 300 301 301 302 301 301 300 299 299 297 297 297 296 295 293 293 292 292 291 291 291 291 291 291 291 289 289 291 289 290 288 287 286 286 286 286 285 285 285
294 295 296 297 298 298 299 297 297 297 296 295 295 294 293 293 292 292 292 292 291 291 291 291 290 290 290 290 290 290 290 290 288 287 287 286 285 285 286 286 287 286 286
294 293 294 295 296 296 296 295 295 294 293 291 291 291 290 291 290 291 291 291 289 288 288 289 289 289 289 289 288 288 287 287 287 286 286 286 285 287 288 287 286 286 284
292 291 291 292 292 292 292 292 291 290 289 289 289 288 288 289 289 289 289 289 289 288 288 287 287 287 287 287 287 287 286 285 284 285 284 285 285 287 287 286 285 283 283
289 288 288 288 288 288 288 288 287 286 287 287 286 286 286 286 286 287 288 288 288 287 286 286 285 286 286 286 285 285 285 284 284 284 283 284 285 285 284 283 282 282 282
286 286 286 287 286 286 285 285 285 285 286 286 286 285 284 285 285 286 287 287 287 286 286 285 284 284 283 284 284 283 284 283 283 283 283 283 284 283 282 281 281 281 281
284 284 284 284 283 283 283 284 283 283 284 283 283 283 283 283 285 286 287 287 287 285 284 283 282 282 283 283 283 282 281 283 282 282 283 283 283 281 280 279 279 279 279
283 283 283 283 283 283 282 282 282 282 282 282 282 282 282 283 284 284 284 285 286 286 284 283 283 282 280 281 281 282 282 282 282 282 282 281 280 278 278 277 277 277 277
282 281 281 281 281 281 282 282 281 281 281 280 282 282 282 282 283 283 283 283 283 283 283 282 282 281 281 281 281 281 281 281 280 280 279 278 278 277 276 275 275 274 274
279 279 280 280 280 281 280 281 280 280 280 280 279 280 280 281 281 281 282 282 282 282 282 282 281 281 280 280 279 279 279 278 278 277 276 276 275 274 274 273 273 272 272
277 277 278 278 278 278 278 278 278 278 277 277 277 277 278 279 279 277 278 278 279 279 279 278 278 278 278 277 277 276 276 275 275 274 274 273 273 272 272 272 271 271 270
274 275 276 275 276 276 276 276 276 276 276 276 276 276 275 276 276 275 276 276 276 276 275 275 275 275 275 275 274 274 274 273 273 272 271 271 271 270 270 270 269 269 269
273 273 273 273 273 273 273 273 273 273 273 273 273 273 274 274 273 273 273 273 274 274 274 273 273 273 273 273 272 272 271 271 271 270 270 269 269 269 268 268 268 268 268
271 271 271 271 271 271 271 271 271 271 270 271 271 271 270 270 270 270 270 270 271 271 271 271 271 271 271 271 270 270 270 270 269 269 269 268 268 267 267 267 267 267 266
269 269 269 269 269 268 269 269 269 269 269 269 269 269 269 269 269 269 269 269 269 269 269 269 269 268 268 268 268 268 268 268 268 267 267 266 266 266 266 266 265 265 265
268 267 267 267 267 267 266 267 267 267 267 267 267 267 267 267 267 267 268 267 267 267 267 267 267 267 266 266 267 267 267 267 266 266 266 266 266 266 265 265 264 264 264

GFSGL_925_thetae_120.txt.gz
Theta_e
324 324 324 325 325 326 326 326 326 325 325 324 324 324 323 323 323 323 323 322 322 322 322 321 321 322 321 320 319 317 312 309 310 296 296 292 290 292 291 290 288 287 289
325 323 323 324 325 325 325 325 326 326 325 325 324 324 323 323 324 323 323 323 323 322 323 322 322 321 320 320 317 315 311 307 304 295 292 291 292 292 293 291 288 288 287
325 325 322 322 322 323 324 324 324 324 324 323 323 323 323 323 324 324 324 324 324 324 323 323 322 321 319 317 314 312 308 304 301 297 292 292 291 291 289 289 289 288 287
317 323 324 324 324 323 323 323 323 323 323 323 323 323 323 324 324 325 325 325 325 324 323 321 320 319 317 315 311 308 304 300 297 295 293 291 290 288 289 289 287 287 287
307 307 307 308 311 314 318 321 322 322 322 322 322 322 323 323 323 322 322 322 320 319 317 315 314 312 311 310 308 306 302 299 294 292 290 289 289 287 288 287 287 287 287
306 306 307 307 307 307 308 308 309 311 312 314 317 318 318 318 314 315 316 316 314 312 312 311 309 307 307 306 303 301 301 299 294 292 290 290 289 289 287 288 287 286 286
306 306 306 306 306 306 305 306 308 309 309 310 310 310 310 309 309 308 310 310 310 307 306 305 305 305 303 302 300 297 296 296 296 295 291 290 289 289 290 287 287 288 287
304 304 304 305 304 303 303 303 303 304 304 304 304 304 305 305 306 307 307 306 304 303 304 302 301 299 299 298 297 295 294 293 293 292 293 292 291 292 291 290 290 288 287
301 301 302 302 301 301 301 301 301 301 302 303 302 301 303 304 304 305 303 302 301 300 300 300 299 298 297 296 293 292 291 291 291 290 290 290 290 290 290 289 288 286 285
296 298 299 300 301 302 302 302 302 301 300 299 300 300 299 299 299 299 299 299 298 296 295 295 294 293 292 291 291 291 290 290 289 290 289 290 291 291 289 288 288 286 286
295 296 297 299 300 301 301 301 299 299 297 297 297 296 296 297 295 294 293 293 292 292 291 291 292 292 292 290 290 290 290 290 289 289 289 289 288 287 287 287 287 288 287
294 295 297 298 298 298 299 297 297 297 297 295 294 293 293 292 293 292 292 291 291 291 290 290 290 290 290 290 289 289 289 289 290 289 288 288 287 287 286 286 286 286 286
293 294 294 295 295 295 296 295 294 294 293 291 291 290 290 290 291 291 290 289 289 288 288 288 290 289 289 289 289 289 288 288 288 287 286 286 287 287 286 285 285 286 285
291 291 292 292 291 291 291 291 291 290 290 289 288 288 287 288 289 289 289 289 289 288 288 288 288 288 288 288 288 287 286 285 284 284 284 283 284 285 285 285 286 285 284
288 288 288 289 289 288 288 287 288 287 288 287 286 286 286 286 286 287 288 288 287 287 286 285 286 286 285 285 285 284 285 284 284 284 283 282 282 284 285 284 284 283 282
286 286 286 286 286 285 285 285 286 286 285 285 285 285 285 285 286 287 287 287 287 286 285 284 283 283 283 283 283 283 283 283 283 283 283 282 281 281 283 283 282 281 281
285 285 284 284 284 285 284 284 283 282 282 282 282 283 284 284 285 287 288 287 286 285 284 283 282 281 280 281 281 281 281 282 281 281 281 281 282 282 281 280 280 279 279
283 283 283 283 283 283 283 283 283 283 282 281 281 281 282 284 284 284 285 286 286 285 283 283 282 281 281 280 279 280 281 281 281 281 281 281 280 280 279 278 278 277 277
281 281 281 281 281 281 282 282 282 282 280 280 281 281 282 282 282 283 283 283 283 283 283 283 282 281 280 280 280 280 280 280 280 279 279 279 278 277 276 276 275 275 275
279 279 280 280 280 280 280 280 280 279 279 279 279 278 278 279 281 280 281 281 281 281 281 281 281 280 280 279 279 279 279 278 278 277 277 276 275 275 274 274 273 273 272
276 276 277 277 277 277 277 277 276 277 276 276 276 276 274 277 277 276 277 278 278 278 278 278 278 278 278 277 277 277 276 276 276 275 275 274 274 273 273 272 272 271 271
273 273 274 274 274 274 274 274 274 274 274 275 274 274 274 275 275 275 275 275 275 275 275 275 275 275 275 275 274 274 274 274 274 273 273 272 272 271 271 270 270 269 269
271 271 272 271 271 271 271 271 271 271 271 271 271 271 271 271 271 271 271 271 271 271 271 272 272 272 271 271 271 271 271 271 271 271 270 270 270 270 269 269 268 268 268
270 270 269 269 269 269 269 269 269 269 269 269 269 269 269 269 269 269 269 269 269 269 269 269 269 269 269 269 269 269 269 269 269 269 269 268 268 268 268 267 267 267 267
268 268 268 268 268 267 268 268 268 268 268 268 268 268 268 268 269 269 268 268 268 268 268 268 268 267 267 267 267 267 267 267 267 267 267 266 267 267 266 266 266 266 265
267 267 266 266 266 266 266 266 267 267 267 267 267 267 267 267 267 268 268 268 267 267 267 267 267 266 266 266 266 266 266 266 266 266 265 265 265 265 265 265 265 264 264